[[[{"header":{"parameterUnit":"kt","parameterCategory":2,"dx":1,"dy":1,"la1":29.285339999999998,"la2":30.599998999999997,"lo1":-89.70041500000002,"lo2":-87.6738589999976,"nx":112,"ny":82,"refTime":"2022-09-19T00:00:00:Z","depth":0,"parameterNumber":1,"parameterNumberName":"U-component_of_WINDS"},"data":[9.4827,9.4814,9.2597,8.5482,8.1498,7.7102,6.858,6.7831,6.7947,6.437,6.5174,6.646,6.6154,6.3312,6.0696,5.9736,6.0037,5.8757,0.0,5.336,5.4176,5.621,5.9446,6.3136,6.7266,6.7702,7.3001,8.5657,8.4175,8.6363,9.4951,9.884,10.0873,10.0954,10.297,10.403,10.3994,10.4379,10.4307,10.3772,10.3257,10.2639,10.1945,10.1197,10.0339,9.9408,9.8962,9.8469,9.7856,9.7404,9.7213,9.7213,9.6919,9.6543,9.6196,9.5812,9.549,9.5251,9.5251,9.5251,9.5251,9.5251,9.5251,9.5251,9.5251,9.5251,9.5251,9.5251,9.5251,9.5251,9.5251,9.5251,9.5251,9.5251,9.5251,9.5251,9.5251,9.5251,9.5251,9.5251,9.5251,9.5251,9.5251,9.5251,9.4462,9.2095,9.1306,9.0089,8.7755,8.6965,8.667,8.667,8.667,8.6746,8.6962,8.7144,8.7251,8.743,8.7641,8.785,8.7953,8.8193,8.8296,8.8296,8.8296,8.8296,8.8296,8.8296,8.8296,8.8296,8.8296,8.8193,9.0663,9.0611,8.8123,7.9982,7.617,7.2378,6.4268,6.3563,6.3573,6.0053,6.216,6.3789,6.0826,6.0282,5.9348,5.6836,5.8757,5.8672,0.0,5.3029,5.4836,5.8622,6.2904,6.701,7.0684,7.1134,7.5987,8.7682,8.6125,8.8358,9.6752,10.0187,10.1855,10.19,10.3335,10.4221,10.4221,10.4339,10.4454,10.449,10.3765,10.3211,10.2927,10.2157,10.1347,10.0367,9.9811,9.9066,9.8329,9.7856,9.7482,9.7213,9.6999,9.6625,9.6196,9.6047,9.5694,9.5251,9.5251,9.5251,9.5251,9.5251,9.5251,9.5251,9.5251,9.5251,9.5251,9.5251,9.5251,9.5251,9.5251,9.5251,9.5251,9.5251,9.5251,9.5251,9.5251,9.5251,9.5251,9.5251,9.5251,9.5251,9.5251,9.5251,9.4429,9.2062,9.1273,9.0089,8.7689,8.7042,8.6854,8.6854,8.6962,8.7037,8.7251,8.7324,8.7536,8.7641,8.7745,8.7953,8.7953,8.8193,8.8296,8.8296,8.8296,8.8296,8.8296,8.8296,8.8296,8.8296,8.8193,8.7953,8.5519,8.5422,8.3856,7.2524,6.9617,6.746,5.9245,6.0872,6.327,6.0305,6.2935,6.4781,6.1407,6.035,5.8945,5.5672,5.6542,0.0,0.0,5.4541,5.7358,6.2203,6.835,7.2873,7.4575,7.2061,7.5581,8.8258,8.4817,8.7551,9.9999,10.2451,10.3471,10.3642,10.3606,10.3722,10.3994,10.3994,10.4108,10.4411,10.3916,10.3801,10.3958,10.349,10.259,10.153,10.1197,10.0108,9.8435,9.8647,9.8182,9.7292,9.7448,9.7079,9.6312,9.651,9.6047,9.5251,9.5251,9.5251,9.5251,9.5251,9.5251,9.5251,9.5251,9.5251,9.5251,9.5251,9.5251,9.5251,9.5251,9.5251,9.5251,9.5251,9.5251,9.5251,9.5251,9.5251,9.5251,9.5251,9.5251,9.5251,9.5251,9.5251,9.4758,9.3344,9.1897,9.0451,8.9037,8.7886,8.7037,8.7037,8.7324,8.743,8.743,8.743,8.7641,8.785,8.785,8.7953,8.8193,8.8296,8.8296,8.8296,8.8296,8.8296,8.8296,8.8296,8.8296,8.8193,8.7953,8.7745,7.8009,7.8569,7.8532,7.2942,7.0589,6.8378,6.3699,6.0809,5.9241,5.9576,5.9717,0.0,0.0,0.0,5.8709,5.7463,0.0,6.3964,5.8677,6.5893,7.1639,7.1293,7.2767,7.6683,8.4143,8.3079,8.6201,9.6691,9.2033,9.225,10.0293,10.2451,10.3471,10.3642,10.3606,10.3722,10.3994,10.4185,10.4185,10.4108,10.4226,10.4114,10.3722,10.3801,10.3409,10.2675,10.1926,10.1103,10.0304,9.9645,9.8962,9.8255,9.8148,9.7822,9.7414,9.7236,9.6899,9.6477,9.6477,9.6477,9.6477,9.6477,9.6477,9.6477,9.6477,9.6279,9.5963,9.5963,9.5609,9.5251,9.5251,9.5251,9.5251,9.5251,9.5251,9.5251,9.5251,9.5251,9.5251,9.5251,9.5251,9.5251,9.5251,9.5251,9.4758,9.3344,9.1897,9.0564,8.9227,8.7962,8.7144,8.7324,8.743,8.7536,8.7745,8.7745,8.785,8.809,8.8193,8.8193,8.8296,8.8296,8.8296,8.8296,8.8296,8.8296,8.8296,8.8296,8.8193,8.7953,8.7536,8.7251,7.4359,7.4771,7.4871,7.0216,6.9844,6.899,6.2925,6.0333,5.9056,5.8698,0.0,0.0,0.0,0.0,0.0,0.0,6.3065,6.6599,6.1903,6.9878,7.6536,7.7257,8.0256,8.425,8.9255,8.897,9.2282,10.1194,9.5958,9.5138,10.1514,10.2843,10.3425,10.3517,10.3562,10.3722,10.3801,10.3994,10.4108,10.4185,10.4303,10.419,10.4036,10.419,10.4,10.349,10.271,10.2015,10.1325,10.0568,9.978,9.9066,9.8996,9.8682,9.8255,9.7788,9.7381,9.7045,9.7045,9.7045,9.7045,9.7045,9.7045,9.7045,9.7045,9.6853,9.651,9.651,9.6196,9.5609,9.5609,9.549,9.5251,9.5251,9.5251,9.5251,9.5251,9.5251,9.5251,9.5251,9.5251,9.4856,9.3673,9.3443,9.2982,9.1569,9.0615,8.9676,8.8304,8.7599,8.7144,8.7357,8.7463,8.7536,8.7745,8.7745,8.785,8.8057,8.809,8.8193,8.8296,8.8296,8.8296,8.8296,8.8296,8.8296,8.8296,8.816,8.785,8.7536,8.7251,8.6929,7.2552,7.2187,7.1777,6.6202,6.7737,6.842,6.0396,0.0,6.1959,5.9811,0.0,5.9252,5.8916,0.0,0.0,5.6841,6.3409,6.7915,6.529,7.1301,7.7517,8.1985,8.8981,9.3069,9.1947,9.2206,9.5489,10.289,9.818,9.7467,10.3139,10.3425,10.3425,10.3425,10.3517,10.3562,10.3606,10.3642,10.388,10.4298,10.4149,10.4226,10.4529,10.4603,10.4343,10.4036,10.349,10.2795,10.1962,10.1487,10.0699,9.978,9.9783,9.9341,9.8787,9.8289,9.7746,9.7158,9.7158,9.7158,9.7158,9.7158,9.7158,9.7158,9.7158,9.7158,9.7079,9.7079,9.6739,9.6312,9.6196,9.5845,9.5371,9.5251,9.5251,9.5251,9.5251,9.5251,9.5218,9.5054,9.5021,9.4133,9.1437,9.0944,9.0549,8.9267,8.8938,8.8379,8.7174,8.7061,8.7144,8.7144,8.7324,8.743,8.743,8.7536,8.7641,8.7816,8.785,8.7953,8.8193,8.8193,8.8296,8.8296,8.8296,8.8193,8.8193,8.7953,8.7641,8.7144,8.7037,8.668,6.7297,6.5499,6.502,6.6288,6.4269,6.2914,0.0,0.0,0.0,7.1982,7.3012,7.2975,7.3059,7.1948,7.1182,7.1506,7.568,7.8159,7.5991,8.3682,9.0028,9.1215,9.4034,9.6136,9.7175,9.8423,10.0348,10.3211,10.2283,10.214,10.3389,10.3425,10.3471,10.3562,10.3471,10.3552,10.3606,10.3801,10.388,10.3722,10.4226,10.4454,10.4451,10.4565,10.4529,10.4454,10.4036,10.3526,10.2879,10.2051,10.1452,10.0864,10.0281,9.9817,9.9478,9.9203,9.8889,9.8571,9.8571,9.8571,9.8571,9.8571,9.8571,9.8571,9.8571,9.8216,9.7746,9.7746,9.7303,9.6705,9.6312,9.608,9.5963,9.5371,9.5251,9.5251,9.5251,9.5251,9.4922,9.3771,9.3541,9.2982,9.124,9.0944,9.0845,9.0582,8.9563,8.8853,8.9073,8.7872,8.7251,8.7641,8.7536,8.743,8.743,8.7641,8.7745,8.7536,8.7953,8.8057,8.7953,8.8193,8.8296,8.8296,8.8296,8.8193,8.7953,8.792,8.7745,8.7324,8.668,8.6242,6.4523,6.3603,6.3522,6.3408,6.3361,0.0,0.0,6.4467,6.6107,7.192,7.2382,7.2819,7.6166,7.66,7.6447,7.6239,8.0815,8.4916,8.613,9.0684,9.3789,9.3597,9.5922,9.7895,9.868,10.0856,10.2569,10.3389,10.3425,10.3425,10.3425,10.3425,10.3425,10.3552,10.3517,10.3517,10.3606,10.3722,10.3801,10.3801,10.4036,10.4149,10.4411,10.4415,10.4565,10.4603,10.4149,10.388,10.349,10.2315,10.1727,10.1487,10.038,9.9817,9.9716,9.9237,9.9028,9.8923,9.8923,9.8923,9.8923,9.8923,9.8923,9.8923,9.8923,9.8678,9.8465,9.8465,9.7999,9.7303,9.6739,9.6395,9.608,9.5371,9.5251,9.5251,9.5251,9.4692,9.4002,9.3278,9.1963,9.0516,8.9037,8.8807,8.8885,8.9218,8.8403,8.7942,8.8419,8.7607,8.6962,8.7251,8.7144,8.7037,8.7037,8.7251,8.7357,8.743,8.7779,8.7953,8.8057,8.816,8.8296,8.8296,8.8296,8.8193,8.8057,8.7502,8.7185,8.7037,8.6462,8.5877,6.2187,6.2364,6.2935,6.1472,6.3101,0.0,6.3712,6.4177,6.6542,7.2455,7.3146,7.4115,7.9014,8.1031,8.1468,8.009,8.4672,8.9743,9.3621,9.4303,9.4231,9.3521,9.6272,9.843,9.8716,10.132,10.3104,10.3425,10.3425,10.3425,10.3425,10.3425,10.3425,10.3425,10.3517,10.3562,10.3562,10.3606,10.3686,10.388,10.3801,10.3916,10.4411,10.4411,10.4451,10.4603,10.4149,10.3994,10.388,10.2402,10.1782,10.1544,10.0247,9.9716,9.9614,9.9133,9.8923,9.8923,9.8923,9.8923,9.8923,9.8923,9.8923,9.8923,9.8923,9.8923,9.8923,9.8923,9.8571,9.7999,9.7158,9.6739,9.6163,9.5371,9.5251,9.5185,9.4922,9.3969,9.2982,9.2423,9.0301,8.8348,8.7052,8.6962,8.7144,8.7536,8.7144,8.707,8.7536,8.7037,8.6746,8.6746,8.6779,8.667,8.667,8.6746,8.6962,8.7357,8.743,8.7641,8.809,8.809,8.809,8.8193,8.809,8.809,8.7987,8.6971,8.6538,8.6527,8.6021,8.5573,5.8172,5.8133,5.9437,6.4863,6.2224,0.0,7.4103,7.5909,7.7581,8.7022,9.1071,9.2712,9.1909,9.1967,9.1888,9.1372,9.1976,9.3056,9.4715,9.4692,9.4303,9.3899,9.5505,9.7181,9.8609,10.0321,10.1926,10.3353,10.3425,10.3425,10.3425,10.3425,10.3425,10.3425,10.3425,10.3425,10.3425,10.3597,10.3642,10.3606,10.388,10.4108,10.4411,10.4411,10.4451,10.4603,10.4149,10.3994,10.388,10.2402,10.1544,10.0925,10.0083,9.9614,9.9341,9.9028,9.8923,9.8923,9.8923,9.8923,9.8923,9.8923,9.8923,9.8923,9.8923,9.8923,9.8923,9.8923,9.8923,9.8571,9.7269,9.6932,9.6591,9.549,9.5251,9.4922,9.364,9.3245,9.2391,8.9826,8.8825,8.812,8.7463,8.7712,8.8126,8.8126,8.7745,8.7536,8.7816,8.7144,8.6746,8.707,8.6854,8.667,8.667,8.6962,8.6962,8.6746,8.7251,8.7536,8.7536,8.7536,8.7641,8.7953,8.7641,8.7463,8.7251,8.6755,8.6396,8.6131,8.5347,8.4921,5.6096,5.6676,5.8238,6.1876,0.0,0.0,7.1712,7.4585,7.7698,8.5544,8.9248,9.1589,9.3339,9.4624,9.5282,9.4962,9.4901,9.5057,9.5358,9.5035,9.4692,9.4231,9.5513,9.6611,9.7217,9.9572,10.1356,10.1998,10.1952,10.2262,10.3389,10.3425,10.3425,10.3425,10.3425,10.3425,10.3425,10.3471,10.3471,10.3471,10.3633,10.3758,10.3916,10.4108,10.4262,10.4415,10.4149,10.3801,10.349,10.2315,10.1544,10.1055,10.0083,9.9614,9.9512,9.9133,9.8923,9.8923,9.8923,9.8923,9.8923,9.8923,9.8923,9.8923,9.8923,9.8923,9.8923,9.8923,9.8923,9.8678,9.7269,9.7045,9.6705,9.5457,9.5251,9.4856,9.3443,9.2688,9.1663,8.9647,8.8745,8.8229,8.792,8.8126,8.8298,8.8601,8.8195,8.792,8.8126,8.7536,8.7037,8.6854,8.6746,8.667,8.667,8.6746,8.6854,8.6962,8.7144,8.7357,8.743,8.743,8.7536,8.7641,8.7324,8.7144,8.7037,8.6821,8.6462,8.6131,8.5314,8.4774,5.4351,0.0,0.0,0.0,0.0,0.0,7.2851,7.5857,7.9023,8.4977,8.8159,9.0862,9.3872,9.5617,9.6517,9.6261,9.6237,9.6079,9.5695,9.5271,9.4899,9.4516,9.5232,9.5861,9.6218,9.8359,10.0143,10.0999,10.0954,10.155,10.3353,10.3425,10.3425,10.3425,10.3425,10.3425,10.3425,10.3425,10.3425,10.3425,10.3425,10.3471,10.3606,10.3801,10.4108,10.4411,10.3994,10.3526,10.2879,10.2051,10.1395,10.0864,10.0018,9.9716,9.9512,9.9133,9.8923,9.8923,9.8923,9.8923,9.8923,9.8923,9.8923,9.8923,9.8923,9.8923,9.8923,9.8923,9.8923,9.8678,9.7746,9.7414,9.6932,9.5609,9.549,9.5213,9.3443,9.265,9.182,9.0137,8.9268,8.8635,8.8501,8.8635,8.8836,8.9197,8.8702,8.8229,8.8229,8.7641,8.7144,8.6746,8.667,8.667,8.667,8.667,8.6746,8.6962,8.6929,8.7037,8.7324,8.7357,8.7251,8.7324,8.7144,8.6929,8.6821,8.6527,8.6053,8.5685,8.5201,8.4742,0.0,0.0,0.0,6.9556,6.9138,7.0181,8.3031,8.5008,8.5404,9.0199,9.4118,9.6576,9.621,9.6364,9.6517,9.6261,9.6237,9.6079,9.5695,9.5271,9.4899,9.4516,9.4157,9.4613,9.6218,9.6468,9.7788,10.082,10.107,10.1748,10.3353,10.3425,10.3425,10.3425,10.3425,10.3425,10.3425,10.3425,10.3425,10.3425,10.3425,10.3471,10.3606,10.3606,10.3916,10.4334,10.3837,10.3081,10.2227,10.1579,10.0899,10.0118,9.9817,9.9512,9.9341,9.9028,9.8923,9.8923,9.8923,9.8923,9.8923,9.8923,9.8923,9.8923,9.8923,9.8923,9.8923,9.8923,9.8923,9.8923,9.8923,9.8465,9.7525,9.5727,9.6163,9.6191,9.3677,9.3321,9.292,9.0915,9.0083,8.9655,8.9099,8.9427,8.9751,8.9751,8.8935,8.8229,8.8229,8.7324,8.6746,8.667,8.667,8.667,8.667,8.667,8.667,8.6779,8.6779,8.6854,8.7037,8.6854,8.6854,8.7037,8.6854,8.6527,8.6099,8.5638,8.5183,8.4806,8.4806,8.4425,5.8274,6.1165,6.493,7.3433,7.5263,7.7126,8.5165,8.8338,8.9906,9.1333,9.4761,9.6883,9.488,9.5824,9.6779,9.648,9.632,9.614,9.6079,9.5467,9.4967,9.4899,9.4266,9.4113,9.4684,9.5719,9.6825,9.7859,9.8815,10.0018,10.1784,10.1657,10.2155,10.3389,10.3425,10.3425,10.3425,10.3425,10.3425,10.3425,10.3425,10.3425,10.3471,10.3562,10.3722,10.3837,10.34,10.2128,10.0375,10.1009,10.0768,10.0152,9.9817,9.9512,9.9341,9.9028,9.8923,9.8923,9.8923,9.8923,9.8923,9.8923,9.8923,9.8923,9.8923,9.8923,9.8923,9.8923,9.8678,9.8357,9.8784,9.8107,9.7191,9.6591,9.6705,9.6531,9.461,9.3835,9.3024,9.1264,9.0381,8.9751,8.9558,8.9655,8.9655,8.9329,8.9,8.8534,8.7816,8.7463,8.707,8.6746,8.667,8.667,8.667,8.667,8.667,8.667,8.667,8.6746,8.6854,8.6746,8.6746,8.6854,8.6495,8.6242,8.6131,8.5909,8.5718,8.5379,8.5183,8.4921,6.1372,6.4726,6.8591,7.7034,8.007,8.2376,8.7774,9.0633,9.2192,9.2504,9.5332,9.7165,9.5145,9.5935,9.6941,9.665,9.6438,9.6237,9.6237,9.5632,9.5205,9.5071,9.4481,9.4048,9.3899,9.4863,9.5719,9.6325,9.7746,9.9235,10.0963,10.1489,10.2191,10.3389,10.3425,10.3425,10.3425,10.3425,10.3425,10.3425,10.3425,10.3425,10.3425,10.3353,10.2997,10.2578,10.2483,10.1151,9.9314,10.0521,10.0672,10.0217,9.9817,9.9614,9.9444,9.9028,9.8923,9.8923,9.8923,9.8923,9.8923,9.8923,9.8923,9.8923,9.8923,9.8923,9.8923,9.8923,9.8678,9.8465,9.8784,9.8107,9.7303,9.7303,9.7045,9.6284,9.4682,9.335,9.2174,9.1163,9.0083,8.9231,8.9231,8.9231,8.9133,8.8802,8.8601,8.8229,8.7536,8.7357,8.7037,8.6746,8.667,8.667,8.667,8.667,8.667,8.667,8.667,8.667,8.667,8.667,8.667,8.667,8.6385,8.6131,8.583,8.5909,8.5798,8.5379,8.5183,8.4954,6.2319,6.7008,7.2528,8.0889,8.3794,8.6009,9.1211,9.2378,9.2684,9.3935,9.6107,9.7547,9.6725,9.6834,9.6941,9.665,9.6438,9.6237,9.6237,9.592,9.5467,9.5138,9.4762,9.4303,9.3974,9.3899,9.4541,9.6147,9.7788,9.9393,10.0856,10.2533,10.3425,10.3425,10.3425,10.3425,10.3425,10.3425,10.3425,10.3425,10.3425,10.3425,10.3425,10.2852,10.1845,10.0521,10.0898,10.0195,9.874,9.9907,10.0374,10.0276,9.9883,9.9716,9.9614,9.9133,9.8923,9.8923,9.8923,9.8923,9.8923,9.8923,9.8923,9.8923,9.8923,9.8923,9.8923,9.8923,9.8923,9.8923,9.8923,9.8465,9.7889,9.7999,9.7012,9.5757,9.3894,9.2036,9.0576,9.0546,8.9201,8.8229,8.8229,8.8229,8.8229,8.8229,8.7816,8.743,8.743,8.6962,8.667,8.667,8.667,8.667,8.667,8.667,8.667,8.667,8.667,8.667,8.667,8.667,8.667,8.6637,8.6637,8.6197,8.533,8.5638,8.5379,8.4806,8.4806,8.4806,7.0451,7.417,7.7996,8.7709,8.9254,8.9774,9.5129,9.5267,9.4667,9.5984,9.7105,9.7594,9.6957,9.6941,9.6941,9.665,9.6438,9.6237,9.6237,9.592,9.5596,9.5467,9.4899,9.4446,9.4303,9.4048,9.4078,9.4506,9.7146,9.893,9.9322,10.1962,10.3425,10.3425,10.3425,10.3425,10.3425,10.3425,10.3425,10.3425,10.3425,10.3425,10.3425,10.2852,10.0987,9.8222,9.852,9.7252,9.5181,9.7573,9.8454,9.8557,9.9335,9.9614,9.9341,9.9028,9.8923,9.8923,9.8923,9.8923,9.8923,9.8923,9.8923,9.8923,9.8923,9.8923,9.8923,9.8923,9.8571,9.8323,9.8818,9.8107,9.7414,9.7856,9.6869,9.5497,9.4757,9.2906,9.0911,8.9131,8.8497,8.8229,8.8229,8.8229,8.8126,8.7745,8.7536,8.7357,8.6962,8.6746,8.667,8.667,8.667,8.667,8.667,8.667,8.667,8.667,8.667,8.667,8.667,8.667,8.6527,8.6242,8.6053,8.5751,8.533,8.5444,8.5183,8.4806,8.4806,8.4806,7.0386,7.5309,8.098,8.9636,9.078,9.1173,9.6574,9.6334,9.5478,9.6869,9.7401,9.7499,9.7099,9.6888,9.6816,9.665,9.6438,9.6237,9.6237,9.5982,9.5858,9.5695,9.5102,9.4692,9.4446,9.4121,9.3899,9.3899,9.6896,9.8751,9.8751,10.1748,10.3425,10.3425,10.3425,10.3425,10.3425,10.3425,10.3425,10.3425,10.3425,10.3425,10.3342,10.2646,10.0005,9.6054,9.6582,9.5583,9.367,9.5964,9.7181,9.7838,9.8439,9.903,9.9409,9.9133,9.8923,9.8923,9.8923,9.8923,9.8923,9.8923,9.8446,9.8036,9.8719,9.8002,9.7115,9.7695,9.7411,9.7091,9.7411,9.724,9.7045,9.7191,9.6553,9.5325,9.3499,9.1459,8.9389,8.7835,8.7536,8.7536,8.7536,8.7536,8.743,8.7144,8.7144,8.7037,8.6746,8.667,8.667,8.667,8.667,8.667,8.667,8.667,8.667,8.667,8.667,8.667,8.667,8.6527,8.6385,8.6131,8.5909,8.5605,8.5069,8.5216,8.5069,8.4806,8.4806,8.4806,6.7601,7.4089,8.222,8.8653,9.0211,9.1416,9.6009,9.6223,9.5785,9.7105,9.7401,9.7302,9.701,9.6779,9.6594,9.6574,9.6379,9.6237,9.6237,9.6237,9.6079,9.5759,9.5337,9.4899,9.4622,9.4158,9.3899,9.3899,9.6718,9.843,9.843,10.1213,10.2818,10.2818,10.2997,10.3104,10.3104,10.3353,10.3425,10.3425,10.3425,10.3235,10.2903,10.1733,9.8651,9.4288,9.494,9.4452,9.3139,9.4565,9.5946,9.7216,9.7337,9.8236,9.9305,9.9134,9.8923,9.8923,9.8923,9.8923,9.8923,9.8923,9.8002,9.7149,9.8514,9.7115,9.5272,9.6296,9.6225,9.5771,9.5665,9.6212,9.6585,9.6246,9.603,9.487,9.142,8.9119,8.7483,8.6779,8.667,8.667,8.667,8.667,8.667,8.667,8.667,8.667,8.667,8.667,8.667,8.667,8.667,8.667,8.667,8.667,8.667,8.667,8.667,8.667,8.667,8.6385,8.6131,8.6021,8.6021,8.5573,8.4806,8.5069,8.5069,8.4806,8.4806,8.4806,7.3246,7.7776,8.2141,8.7121,9.0292,9.2426,9.324,9.5453,9.7307,9.7376,9.7401,9.7302,9.701,9.6779,9.6537,9.632,9.6297,9.6237,9.6237,9.6237,9.6237,9.614,9.5503,9.5071,9.4967,9.4339,9.3899,9.3899,9.5719,9.6789,9.6789,9.8537,9.9572,9.9572,10.082,10.1463,10.1463,10.2783,10.3425,10.3425,10.3425,10.2547,10.0793,9.8582,9.6334,9.4219,9.3612,9.2643,9.1481,9.2568,9.3454,9.4349,9.6476,9.7548,9.7861,9.8861,9.9133,9.8923,9.8923,9.8923,9.8923,9.8923,9.8753,9.8582,9.8855,9.8548,9.7934,9.6876,9.6569,9.6328,9.5771,9.5471,9.5348,9.6013,9.4952,9.2836,8.9826,8.8918,8.8227,8.69,8.667,8.667,8.667,8.667,8.667,8.667,8.667,8.667,8.667,8.667,8.667,8.667,8.667,8.667,8.667,8.667,8.667,8.667,8.667,8.667,8.667,8.6637,8.6307,8.583,8.5638,8.5183,8.4806,8.4806,8.4806,8.4806,8.4806,8.4806,7.1065,7.4944,7.9159,8.1247,8.4631,8.8655,9.2998,9.46,9.5778,9.8372,9.6563,9.4968,9.6663,9.6706,9.6342,9.6201,9.6237,9.6237,9.6237,9.6237,9.6237,9.6237,9.5695,9.5271,9.5071,9.4552,9.4085,9.3899,9.5433,9.6397,9.6397,9.7895,9.8751,9.8751,9.9465,9.9857,9.9857,10.0606,10.1391,10.2176,10.1076,10.0485,10.0129,9.6948,9.4445,9.2717,9.216,9.1471,9.0816,9.1262,9.2086,9.3075,9.439,9.5804,9.7314,9.7731,9.8345,9.8923,9.8923,9.8923,9.8923,9.8923,9.8377,9.7866,9.8685,9.7797,9.6398,9.5682,9.5239,9.4791,9.4197,9.4153,9.4398,9.4555,9.2721,9.0516,8.9135,8.8248,8.7492,8.6801,8.667,8.667,8.667,8.667,8.667,8.667,8.667,8.667,8.667,8.667,8.667,8.667,8.667,8.667,8.667,8.667,8.667,8.667,8.667,8.667,8.667,8.6495,8.6164,8.5718,8.5411,8.5183,8.4806,8.4806,8.4806,8.4806,8.4806,8.4806,6.9407,7.2858,7.7165,7.8105,8.0058,8.396,9.2431,9.285,9.2898,9.8179,9.5886,9.3729,9.6515,9.6537,9.6237,9.6237,9.6237,9.6237,9.6237,9.6237,9.6237,9.6237,9.5858,9.5467,9.5071,9.4692,9.4303,9.3899,9.5112,9.5861,9.5861,9.7039,9.7717,9.7717,9.8038,9.8252,9.8252,9.8573,9.9358,10.0535,9.8815,9.8392,9.9137,9.5422,9.2874,9.1321,9.1053,9.0838,9.0563,9.0563,9.1099,9.2042,9.2384,9.3961,9.6085,9.6091,9.6876,9.7863,9.8204,9.8307,9.848,9.8821,9.807,9.732,9.8548,9.7217,9.5238,9.4999,9.4354,9.3601,9.3344,9.3165,9.3029,9.2704,9.0714,8.8774,8.8445,8.7459,8.667,8.667,8.667,8.667,8.667,8.667,8.667,8.667,8.667,8.667,8.667,8.667,8.667,8.667,8.667,8.667,8.667,8.667,8.667,8.667,8.667,8.667,8.667,8.6385,8.6021,8.5718,8.5525,8.5183,8.4806,8.4806,8.4806,8.4806,8.4806,8.4806,7.4568,7.7175,7.974,8.4108,8.2031,8.0977,8.9059,8.9234,8.9274,9.4756,9.6206,9.6626,9.692,9.6537,9.6237,9.6237,9.6237,9.6237,9.6237,9.6237,9.6237,9.6237,9.5858,9.5467,9.5071,9.4692,9.4303,9.3899,9.4042,9.4113,9.4113,9.4256,9.4327,9.4327,9.5826,9.6611,9.6611,9.8038,9.8823,9.8965,9.8318,9.7294,9.5937,9.296,9.1549,9.1321,9.1053,9.0838,9.0563,9.0378,9.026,9.0534,9.1973,9.2693,9.3104,9.4277,9.4557,9.4523,9.5986,9.6497,9.6701,9.8341,9.8821,9.8719,9.8889,9.8719,9.8207,9.6774,9.5375,9.4422,9.5123,9.3042,9.0752,9.104,8.999,8.8478,8.713,8.6735,8.667,8.667,8.667,8.667,8.667,8.667,8.667,8.667,8.667,8.667,8.667,8.667,8.667,8.667,8.667,8.667,8.667,8.667,8.667,8.667,8.667,8.667,8.667,8.6385,8.6021,8.5718,8.5718,8.5379,8.4806,8.4806,8.4806,8.4806,8.4806,8.4806,6.7902,7.0466,7.3658,7.5666,7.8314,8.0873,8.2591,8.568,8.9174,9.2894,9.3805,9.365,9.2589,9.4482,9.5909,9.485,9.5544,9.6237,9.6237,9.6237,9.6237,9.6237,9.6079,9.5759,9.5138,9.4899,9.4552,9.3899,9.3899,9.3899,9.3899,9.3899,9.3899,9.3899,9.4541,9.4898,9.4898,9.5275,9.5937,9.6861,9.5186,9.3961,9.3364,9.2038,9.1356,9.1356,9.1232,9.1143,9.1053,9.0747,9.0563,9.0412,9.0937,9.1699,9.259,9.311,9.3665,9.4183,9.4999,9.5818,9.6568,9.732,9.8139,9.8923,9.8923,9.8241,9.7217,9.5716,9.4829,9.4217,9.386,9.2728,9.1502,9.0442,8.8876,8.736,8.6768,8.667,8.667,8.667,8.667,8.667,8.667,8.667,8.667,8.667,8.667,8.6637,8.6385,8.6385,8.6275,8.6197,8.6086,8.6164,8.6385,8.6385,8.6385,8.6385,8.6385,8.6131,8.5573,8.5201,8.5004,8.4889,8.4658,8.4308,8.3987,8.4073,8.4073,8.3987,8.434,8.4308,6.4255,6.646,6.9674,7.0748,7.5307,7.9579,7.9774,8.2831,8.668,9.041,9.1996,9.2398,9.1156,9.3421,9.5069,9.3865,9.4668,9.5653,9.6164,9.6237,9.6237,9.614,9.614,9.592,9.5205,9.5035,9.4762,9.4085,9.3974,9.3899,9.3899,9.3899,9.3899,9.3899,9.3749,9.3749,9.3749,9.3289,9.3733,9.4714,9.2845,9.1897,9.1724,9.1498,9.1356,9.1356,9.1356,9.1356,9.1356,9.1053,9.0838,9.0563,9.0378,9.0937,9.1931,9.1802,9.226,9.3054,9.3597,9.4351,9.5239,9.575,9.6944,9.8207,9.8207,9.7797,9.7081,9.6057,9.5067,9.4183,9.3585,9.2761,9.1642,9.0037,8.8094,8.667,8.667,8.667,8.667,8.667,8.667,8.667,8.667,8.667,8.667,8.667,8.667,8.6637,8.6385,8.6242,8.6021,8.5718,8.5605,8.5573,8.5765,8.5765,8.5653,8.5653,8.5653,8.5428,8.4626,8.4425,8.4308,8.4308,8.3923,8.3686,8.339,8.3447,8.3415,8.3238,8.3717,8.3717,6.7004,6.8183,7.0184,7.3576,7.4462,7.6115,8.2296,8.1096,8.0413,8.6598,9.152,9.4554,9.4415,9.4008,9.3682,9.3682,9.3682,9.4303,9.5982,9.6237,9.614,9.5847,9.6043,9.5982,9.5301,9.5102,9.4899,9.4516,9.4085,9.3899,9.3899,9.3899,9.3899,9.3899,9.3521,9.3289,9.3289,9.2928,9.2755,9.2755,9.2151,9.1724,9.1321,9.1356,9.1356,9.1356,9.1356,9.1356,9.1356,9.1053,9.0838,9.0563,9.0563,9.0563,9.0598,9.0003,8.9812,9.0051,9.1293,9.1771,9.2109,9.3773,9.5375,9.6603,9.6603,9.7661,9.8889,9.8889,9.6671,9.4557,9.5537,9.3219,9.0437,8.9763,8.8127,8.667,8.667,8.667,8.667,8.667,8.667,8.667,8.667,8.667,8.667,8.667,8.667,8.667,8.667,8.6385,8.6021,8.5718,8.5347,8.5201,8.5168,8.494,8.4709,8.4709,8.4709,8.4626,8.4425,8.4308,8.4308,8.4308,8.3923,8.3686,8.339,8.2932,8.2779,8.2779,8.2842,8.2842,6.372,6.5812,6.8719,7.2025,7.3741,7.6216,8.2472,8.2149,8.2304,8.8661,8.7178,8.527,8.7081,8.9962,9.2442,9.35,9.4668,9.5617,9.6164,9.6237,9.6201,9.6104,9.614,9.6043,9.5532,9.5271,9.4899,9.4516,9.4085,9.3899,9.3899,9.3899,9.3899,9.3899,9.3521,9.3289,9.3289,9.2567,9.2186,9.2151,9.1724,9.1498,9.1356,9.1356,9.1356,9.1356,9.1356,9.1356,9.1356,9.1232,9.1143,9.1143,9.0928,9.0872,9.0872,9.0655,9.0471,9.0447,9.1021,9.182,9.259,9.2973,9.4137,9.5269,9.5203,9.4726,9.4283,9.4283,9.3566,9.2819,9.2791,9.0927,8.8863,8.8234,8.7367,8.667,8.667,8.667,8.667,8.667,8.667,8.667,8.667,8.667,8.667,8.667,8.667,8.667,8.667,8.6164,8.583,8.5718,8.5004,8.4658,8.4889,8.4658,8.451,8.451,8.3805,8.3326,8.3358,8.3358,8.3358,8.3358,8.2964,8.272,8.2351,8.2228,8.2104,8.1916,8.2383,8.2259,6.3697,6.5562,6.8108,7.2096,7.338,7.5158,8.0867,7.9842,7.9363,8.5204,8.3186,8.1051,8.3253,8.7877,9.1858,9.3485,9.5165,9.6237,9.6237,9.6237,9.614,9.6018,9.6043,9.592,9.5568,9.5241,9.4867,9.4658,9.4194,9.3899,9.3899,9.3899,9.3825,9.3674,9.3289,9.3008,9.2812,9.2067,9.1724,9.1724,9.1498,9.1356,9.1356,9.1356,9.1356,9.1356,9.1356,9.1356,9.1356,9.1356,9.1356,9.1356,9.1143,9.1143,9.1143,9.0838,9.0747,9.0747,9.0655,9.131,9.2008,9.182,9.2755,9.3794,9.3764,9.3392,9.2952,9.2952,9.2576,9.1898,9.0891,8.941,8.8126,8.7641,8.707,8.667,8.667,8.667,8.667,8.667,8.667,8.667,8.667,8.667,8.667,8.667,8.667,8.667,8.667,8.6086,8.5718,8.5718,8.5036,8.4425,8.4425,8.4191,8.3987,8.3836,8.3085,8.2873,8.2873,8.2751,8.2629,8.2629,8.2383,8.201,8.1634,8.1634,8.1539,8.1286,8.1634,8.1634,6.5698,6.6793,6.8228,7.3061,7.3288,7.3517,7.8089,7.5102,7.2718,7.7557,7.9407,8.0608,8.1989,8.6769,9.1185,9.3162,9.5151,9.6443,9.6383,9.6602,9.648,9.5877,9.6076,9.594,9.5366,9.5071,9.4903,9.4834,9.4302,9.3899,9.3899,9.3825,9.3674,9.3289,9.2882,9.2437,9.1947,9.1585,9.1287,9.1182,9.1287,9.1287,9.1182,9.1287,9.1356,9.1356,9.1217,9.1252,9.1356,9.1217,9.1252,9.1356,9.1356,9.1356,9.1321,9.0747,9.0747,9.0963,9.0471,9.0471,9.0655,9.0655,9.1468,9.2446,9.235,9.3115,9.3976,9.3976,9.302,9.1621,8.9864,8.8802,8.8126,8.7641,8.707,8.667,8.667,8.667,8.667,8.667,8.667,8.667,8.667,8.667,8.667,8.667,8.667,8.667,8.667,8.6197,8.5718,8.5718,8.5151,8.4542,8.3923,8.3598,8.3269,8.2873,8.2873,8.2873,8.2873,8.2506,8.2383,8.2383,8.201,8.176,8.1444,8.1444,8.1286,8.0841,8.0841,8.0841,6.1205,6.415,6.7662,7.0154,7.2436,7.5004,7.8592,7.4478,7.0912,7.4447,7.4122,7.3935,7.6538,7.9872,8.3962,8.9176,9.4759,9.8275,9.7792,10.0069,10.0789,9.7922,9.8786,9.8193,9.4341,9.4678,9.5071,9.4903,9.441,9.4083,9.3899,9.3597,9.3366,9.3289,9.2567,9.2067,9.1947,9.1585,9.0732,8.9587,9.0801,9.0732,8.9622,9.0801,9.1356,9.1287,9.0107,9.0246,9.1252,9.0073,9.0281,9.1356,9.1356,9.1356,9.1321,9.1019,9.1053,9.1232,9.0928,9.0928,9.1143,9.0963,9.1114,9.1298,9.0834,9.0945,9.1124,9.1124,9.0789,9.016,8.9102,8.8433,8.785,8.7536,8.707,8.667,8.667,8.667,8.667,8.667,8.667,8.667,8.667,8.667,8.667,8.667,8.667,8.667,8.667,8.6275,8.6021,8.6021,8.5718,8.5151,8.4308,8.4191,8.3717,8.2873,8.2873,8.2873,8.2873,8.2506,8.2506,8.2751,8.2104,8.1854,8.176,8.157,8.1286,8.0841,8.0841,8.0841,6.1583,6.5056,6.7888,6.6529,6.8697,7.1432,7.2461,6.9878,6.794,7.0326,7.0459,7.1021,7.3866,7.6906,8.0712,8.6106,9.19,9.5584,9.5119,9.7332,9.8853,9.8286,9.8422,9.8058,9.6648,9.5663,9.5035,9.4728,9.441,9.4192,9.3899,9.3521,9.321,9.3008,9.2319,9.1897,9.1638,9.1498,9.0558,8.9067,9.0593,9.0523,8.9101,9.0628,9.1356,9.1287,9.0454,9.0558,9.1287,9.0419,9.0593,9.1356,9.1532,9.1532,9.1532,9.1498,9.141,9.1321,9.1053,9.1143,9.1356,9.1232,9.1053,9.0928,9.0655,9.0471,9.0378,9.0063,8.9717,8.9329,8.8802,8.8229,8.7745,8.7324,8.6962,8.667,8.667,8.667,8.667,8.667,8.667,8.667,8.667,8.667,8.667,8.667,8.667,8.667,8.667,8.6352,8.5988,8.5653,8.546,8.4921,8.4191,8.3955,8.3749,8.3148,8.3148,8.3117,8.3206,8.2842,8.2629,8.2873,8.2351,8.201,8.1665,8.1665,8.1382,8.0841,8.0841,8.0841,6.3169,6.6718,6.8568,6.4362,6.5396,6.7058,6.5472,6.4694,6.4656,6.5663,6.734,6.9306,7.151,7.4816,7.8543,8.2643,8.7026,9.0363,9.1586,9.3558,9.5653,9.7703,9.6939,9.7022,9.8912,9.6718,9.4967,9.4552,9.4482,9.4266,9.3899,9.3444,9.3088,9.2755,9.2186,9.1724,9.1356,9.1356,9.0558,8.9067,9.0593,9.0523,8.9101,9.0628,9.1356,9.1356,9.1356,9.1356,9.1444,9.1444,9.1444,9.1498,9.1707,9.1794,9.1794,9.1931,9.1638,9.1321,9.1143,9.1143,9.1356,9.1356,9.1232,9.1053,9.0963,9.0747,9.0471,8.9969,8.9427,8.8969,8.8635,8.8126,8.7641,8.7251,8.6854,8.667,8.667,8.667,8.667,8.667,8.667,8.667,8.667,8.667,8.667,8.667,8.667,8.667,8.667,8.6385,8.6021,8.5314,8.5004,8.4542,8.3773,8.3598,8.339,8.339,8.339,8.3598,8.3805,8.3238,8.2873,8.2873,8.2506,8.201,8.1444,8.1634,8.1477,8.0841,8.0841,8.0841,6.0299,6.4943,6.9436,6.8681,6.8832,6.8778,6.7085,6.4588,6.218,6.0755,6.2954,6.5066,6.4928,6.8776,7.3015,7.6314,7.9576,8.4455,9.2394,9.7411,9.9255,9.6539,9.7355,9.7136,9.4766,9.5213,9.5467,9.4798,9.4764,9.4517,9.3899,9.3167,9.2801,9.2755,9.1846,9.141,9.1356,9.1356,9.0558,8.9067,9.0593,9.0523,8.9101,9.0628,9.1356,9.1356,9.1356,9.1444,9.1742,9.1742,9.1759,9.1897,9.1897,9.1897,9.1897,9.1759,9.162,9.1356,9.1356,9.1321,9.1356,9.1356,9.1356,9.1232,9.1053,9.0655,9.0157,8.9874,8.9393,8.8935,8.8126,8.7745,8.743,8.7144,8.6854,8.667,8.667,8.667,8.667,8.667,8.667,8.667,8.667,8.667,8.667,8.667,8.667,8.667,8.667,8.6637,8.6418,8.5718,8.5605,8.5119,8.3891,8.3805,8.3598,8.339,8.3598,8.3805,8.3805,8.3478,8.3117,8.2873,8.2228,8.1854,8.176,8.1539,8.1286,8.0841,8.0841,8.0841,6.2149,6.5925,6.9399,6.8455,6.8228,6.8002,6.7231,6.5268,6.3275,6.2241,6.2521,6.3372,6.4707,6.6727,7.0154,7.6022,7.8596,8.2601,9.0465,9.4868,9.7293,9.7405,9.7332,9.7307,9.7376,9.6466,9.5596,9.4903,9.4834,9.4446,9.3597,9.3008,9.2555,9.2354,9.1673,9.1356,9.1356,9.1356,9.0646,8.9239,9.0803,9.0403,8.826,9.0593,9.1585,9.1567,9.1673,9.2125,9.2856,9.2194,9.1897,9.1982,9.2067,9.2151,9.2151,9.2102,9.1931,9.1673,9.162,9.1444,9.1356,9.1356,9.1143,9.0963,9.1143,9.0471,8.949,8.9393,8.9034,8.8568,8.816,8.785,8.7641,8.7324,8.7037,8.6854,8.6779,8.667,8.667,8.667,8.667,8.667,8.667,8.667,8.667,8.667,8.667,8.6527,8.6197,8.6197,8.583,8.4742,8.4626,8.4276,8.3326,8.3566,8.3686,8.3598,8.3955,8.4041,8.4041,8.3955,8.3717,8.3326,8.2597,8.2104,8.1854,8.157,8.1286,8.0841,8.0841,8.0841,6.7435,0.0,7.1119,7.0213,6.9965,6.9663,0.0,6.7306,6.5954,6.414,6.3047,6.2959,6.4752,6.5656,6.8207,7.4458,7.7388,8.0909,8.6579,9.0156,9.3491,9.711,9.6466,9.6748,9.9369,9.7402,9.5659,9.5107,9.4971,9.4517,9.3674,9.3008,9.2555,9.2151,9.1673,9.1356,9.1356,9.1356,9.0854,8.9881,9.1064,9.04,8.8021,9.0674,9.1671,9.1376,9.2055,9.2787,9.3485,9.2769,9.2382,9.2151,9.2354,9.2437,9.2437,9.2354,9.2151,9.1897,9.1794,9.1532,9.1356,9.1356,9.1053,9.0655,9.1053,9.0063,8.8935,8.9,8.8635,8.8296,8.8296,8.8057,8.785,8.7536,8.7251,8.7037,8.6746,8.667,8.667,8.667,8.667,8.667,8.667,8.667,8.667,8.667,8.667,8.6418,8.583,8.5718,8.5233,8.3891,8.3923,8.3686,8.2995,8.3566,8.3923,8.3923,8.4308,8.4457,8.4457,8.4425,8.4191,8.3773,8.2995,8.2383,8.1979,8.1696,8.1286,8.0841,8.0841,8.0841,0.0,7.7554,7.697,7.8272,7.8612,7.7385,7.2671,7.1596,0.0,6.3312,6.3142,6.3624,6.1917,6.4148,6.6429,6.6876,7.2084,7.7208,8.0331,8.4801,8.929,9.3579,9.4055,9.4734,9.6383,9.6347,9.6018,9.5632,9.5271,9.4831,9.4374,9.3289,9.272,9.2638,9.1759,9.1356,9.1356,9.1356,9.1287,9.1182,9.1287,9.0664,8.9305,9.0976,9.1113,9.013,9.2631,9.3258,9.2516,9.3676,9.3567,9.2638,9.2638,9.2673,9.2638,9.2437,9.2151,9.1897,9.1794,9.1532,9.1356,9.1356,9.1053,9.0563,9.0655,8.9524,8.8365,8.8935,8.8635,8.8296,8.8296,8.8057,8.785,8.7536,8.7251,8.7037,8.6746,8.667,8.667,8.667,8.667,8.667,8.667,8.667,8.667,8.667,8.667,8.6418,8.583,8.5718,8.5233,8.3891,8.4073,8.4073,8.339,8.3987,8.4308,8.4308,8.4574,8.469,8.469,8.4457,8.4191,8.3773,8.3478,8.2995,8.2383,8.1822,8.1286,8.0841,8.0841,8.0841,7.7627,7.9082,8.0348,8.0934,8.1085,8.0028,7.5988,7.3557,7.0444,6.4592,6.2125,6.1122,6.1296,6.3152,6.6237,7.1301,7.5019,7.9023,8.3985,8.799,9.0927,9.2341,9.4206,9.5648,9.6164,9.5252,9.4913,9.5586,9.4366,9.3754,9.4049,9.3246,9.2755,9.2755,9.1846,9.1356,9.1356,9.1356,9.1444,9.162,9.162,9.0907,8.9732,9.1148,9.1567,9.1062,9.2194,9.242,0.0,9.2611,9.2116,9.1103,9.2086,9.2473,9.2437,9.2354,9.2271,9.2151,9.188,9.1742,9.1532,9.1444,9.1232,9.0963,9.0285,8.949,8.8735,8.8568,8.8365,8.8296,8.8296,8.8193,8.8057,8.7745,8.7536,8.7251,8.6929,8.6854,8.667,8.667,8.667,8.667,8.667,8.667,8.667,8.667,8.667,8.6418,8.583,8.5347,8.4857,8.4159,8.3955,8.3836,8.3955,8.4308,8.4542,8.4542,8.469,8.4806,8.4806,8.4542,8.4191,8.3773,8.3478,8.2585,8.11,8.1729,8.1791,8.1159,8.1,8.0841,8.0007,8.1555,8.3086,8.4105,8.4351,8.3199,7.8798,7.5613,7.1897,6.5683,6.2465,6.1047,6.2041,6.343,6.6602,7.3195,7.6503,7.9984,8.5211,8.9623,9.2302,9.245,9.4775,9.6379,9.6261,9.5202,9.4864,9.5748,9.4359,9.3714,9.4231,9.3324,9.2755,9.2755,9.1931,9.1498,9.1356,9.1356,9.1444,9.1655,9.1655,9.0941,8.9732,9.1198,9.1687,9.1167,9.1807,9.1787,9.1367,9.1857,9.1324,9.0261,9.1841,9.2437,9.2437,9.2437,9.2437,9.2271,9.2052,9.188,9.1707,9.1532,9.1356,9.0963,9.0063,8.949,8.8901,8.8398,8.8296,8.8296,8.8296,8.8296,8.8193,8.792,8.7641,8.743,8.7144,8.6854,8.667,8.667,8.667,8.667,8.667,8.667,8.667,8.667,8.667,8.6418,8.583,8.5201,8.4626,8.4425,8.3836,8.3717,8.4425,8.469,8.4806,8.4806,8.4806,8.4806,8.4806,8.4542,8.4308,8.3923,8.3304,8.2131,8.0558,8.1378,8.1261,8.0425,8.0422,8.0323,8.5181,8.5786,8.5351,8.8576,8.9406,8.7711,8.1026,7.8195,7.4594,6.626,6.444,6.4249,6.4017,6.5218,6.7297,7.0479,7.5126,7.9359,8.2213,8.8127,9.2604,9.388,9.5319,9.6261,9.6364,9.6283,9.6201,9.6201,9.5467,9.5035,9.5071,9.3597,9.272,9.272,9.2236,9.1724,9.1321,9.1356,9.1356,9.1356,9.1356,9.0646,8.9479,9.1198,9.1178,8.992,9.164,9.1477,9.0109,9.1688,9.1525,9.0537,9.2121,9.2755,9.2755,9.2755,9.2555,9.2354,9.2354,9.2052,9.1742,9.1742,9.1232,9.0471,8.9969,8.9393,8.8901,8.8365,8.8296,8.8296,8.8296,8.8296,8.8193,8.792,8.7641,8.743,8.7144,8.6854,8.667,8.667,8.667,8.667,8.667,8.667,8.667,8.667,8.667,8.6418,8.583,8.5201,8.4626,8.4425,8.4041,8.4041,8.469,8.4806,8.4806,8.4806,8.4806,8.4806,8.4806,8.4806,8.469,8.4308,8.2732,8.1651,8.1269,8.0526,7.9598,7.8346,7.8937,7.9218,7.9856,8.2291,8.5105,8.7222,8.8695,8.7788,8.1028,7.8253,7.4722,6.6255,6.442,6.4347,6.4232,6.5341,6.8099,7.3604,7.674,7.9877,8.3825,8.8996,9.2487,9.2537,9.4832,9.5867,9.4755,9.453,9.4412,9.4412,9.3952,9.4106,9.4999,9.4121,9.3366,9.3025,9.2332,9.1724,9.1321,9.1356,9.1356,9.1356,9.1356,9.1201,9.075,9.1289,9.1254,9.0959,9.1411,9.0381,8.8394,9.0884,9.0563,8.8751,9.1419,9.2437,9.2437,9.2673,9.2638,9.2555,9.2354,9.2186,9.1811,9.1321,9.0928,9.0437,8.949,8.8935,8.8466,8.8296,8.8296,8.8296,8.8296,8.8296,8.8193,8.792,8.7641,8.743,8.7144,8.6854,8.667,8.667,8.667,8.667,8.667,8.667,8.667,8.667,8.6495,8.6242,8.6021,8.5233,8.4806,8.5069,8.4574,8.4308,8.4658,8.4806,8.4806,8.4806,8.4806,8.4806,8.4806,8.4806,8.469,8.4308,8.2732,8.1206,7.9907,7.9348,7.8392,7.6907,7.8806,7.9496,7.9024,8.1271,8.4122,8.6503,8.7844,8.7181,8.1726,7.8743,7.489,6.7139,6.5506,6.5399,6.5344,6.7625,7.1119,7.6289,7.9592,8.2591,8.5802,9.0344,9.3226,9.2883,9.4375,9.5267,9.4822,9.4142,9.3938,9.4631,9.433,9.4416,9.5235,9.4692,9.3976,9.3111,9.2497,9.2017,9.1532,9.1532,9.1498,9.1585,9.1585,9.1585,9.1585,9.1673,9.1707,9.1532,9.1673,9.045,8.8592,9.0954,9.0633,8.8847,9.1372,9.2354,9.2354,9.2555,9.2638,9.272,9.2555,9.2271,9.1862,9.1287,9.0838,9.0378,8.9393,8.8836,8.8568,8.8296,8.8296,8.8296,8.8296,8.8296,8.8193,8.792,8.7641,8.743,8.7144,8.6854,8.667,8.667,8.667,8.667,8.667,8.667,8.667,8.667,8.6527,8.6385,8.6385,8.546,8.5036,8.5411,8.4658,8.4159,8.4308,8.4542,8.4542,8.4425,8.4574,8.469,8.4574,8.469,8.469,8.4574,8.2732,8.1269,8.036,7.9802,7.8728,7.7126,7.8459,7.8844,8.0839,8.1782,8.2817,8.6068,8.6975,8.6219,8.2817,7.9667,7.5536,6.8681,6.742,6.7408,6.696,7.0895,7.521,7.8269,8.291,8.6648,8.7925,9.1927,9.4604,9.428,9.4045,9.4441,9.5895,9.4595,9.4339,9.5872,9.5665,9.5514,9.5659,9.5271,9.448,9.3266,9.2892,9.2473,9.1829,9.1829,9.1846,9.1947,9.1947,9.1947,9.1947,9.2186,9.2102,9.1794,9.2102,9.1346,9.0003,9.164,9.1442,9.018,9.1723,9.2354,9.2354,9.2354,9.2555,9.2755,9.2755,9.2354,9.1897,9.1498,9.1053,9.0378,8.9393,8.9,8.8901,8.8398,8.8296,8.8296,8.8296,8.8296,8.8193,8.7953,8.7641,8.743,8.7144,8.6854,8.667,8.667,8.667,8.667,8.667,8.667,8.667,8.667,8.6637,8.6637,8.667,8.5685,8.5233,8.5605,8.451,8.3805,8.3805,8.4073,8.4159,8.3773,8.4308,8.4574,8.4308,8.4574,8.4626,8.4613,8.2656,8.1659,8.1417,8.0677,7.9514,7.7971,7.7861,7.7568,7.8347,8.0082,8.2552,8.4703,8.6248,8.6355,8.295,8.1633,7.8788,7.0707,7.0094,7.0213,6.7533,7.0836,7.5097,7.8488,8.4101,8.8473,8.9562,9.3031,9.5082,9.4227,9.41,9.4136,9.4368,9.396,9.3828,9.4193,9.4134,9.4658,9.6006,9.5438,9.4762,9.4195,9.3295,9.2649,9.2186,9.1982,9.1897,9.1947,9.1947,9.1947,9.1947,9.1982,9.1982,9.1897,9.1947,9.1276,9.0063,9.1723,9.1525,9.0457,9.204,9.2638,9.2638,9.2638,9.2673,9.2755,9.2755,9.2354,9.1897,9.1498,9.1053,9.0378,8.9393,8.9,8.8901,8.8398,8.8296,8.8296,8.8296,8.8296,8.8193,8.816,8.7745,8.743,8.7144,8.6854,8.667,8.667,8.667,8.667,8.667,8.667,8.667,8.667,8.6385,8.6164,8.5942,8.5265,8.4774,8.4658,8.4159,8.3805,8.3805,8.3805,8.3923,8.3805,8.3923,8.4041,8.4308,8.4457,8.4028,8.3132,8.1347,7.9763,7.8455,7.7042,7.6046,7.5428,7.5958,7.6225,7.8498,7.9536,8.1233,8.3023,8.4703,8.553,8.3805,8.3411,8.1505,7.4652,7.3903,7.3509,7.0125,7.3369,7.7359,7.9854,8.5066,8.8903,8.9126,9.2771,9.4823,9.3443,9.3715,9.4263,9.5011,9.4237,9.4011,9.485,9.4887,9.5288,9.6164,9.5858,9.5271,9.4516,9.3789,9.3131,9.2555,9.2354,9.2354,9.2354,9.2354,9.2354,9.2354,9.2354,9.2271,9.2151,9.2151,9.178,9.1197,9.2003,9.1946,9.1396,9.2239,9.2555,9.2555,9.2555,9.2638,9.272,9.2555,9.2271,9.1947,9.1846,9.1498,9.0963,9.0157,8.9874,8.9586,8.8836,8.8635,8.8568,8.8296,8.8296,8.8296,8.8296,8.7953,8.7641,8.743,8.7144,8.6962,8.7037,8.6854,8.6746,8.6854,8.6746,8.667,8.667,8.6527,8.6275,8.583,8.5119,8.4658,8.4425,8.3717,8.3326,8.3326,8.3478,8.3478,8.3326,8.3805,8.3754,8.3051,8.3399,8.284,8.1651,8.0466,7.9507,7.8583,7.7406,7.6723,7.6415,7.6073,7.5874,7.9518,7.9518,7.9913,8.159,8.3064,8.414,8.4266,8.453,8.3396,7.8599,7.7827,7.7072,7.4025,7.6985,8.044,8.2122,8.6578,8.9627,8.9106,9.2803,9.4879,9.2956,9.3455,9.4592,9.6276,9.5041,9.4704,9.6128,9.5945,9.5763,9.5763,9.5763,9.5468,9.4726,9.4374,9.3825,9.2963,9.2882,9.2801,9.2755,9.2755,9.2755,9.2755,9.2755,9.2497,9.1968,9.2249,9.2214,9.1968,9.2249,9.2354,9.2354,9.2354,9.2354,9.2354,9.2354,9.2555,9.2638,9.2437,9.2271,9.2067,9.2271,9.2017,9.1707,9.1143,9.0838,9.0471,8.949,8.9099,8.8901,8.8466,8.8296,8.8296,8.8296,8.809,8.7953,8.785,8.7536,8.7251,8.743,8.7144,8.6854,8.7037,8.6962,8.6779,8.6637,8.667,8.6527,8.583,8.5314,8.4857,8.4425,8.3598,8.2995,8.2995,8.3269,8.3269,8.2873,8.3495,8.3264,8.1851,8.2085,8.1507,8.017,7.9762,7.93,7.9045,7.8451,7.8026,7.7712,7.6375,7.5469,7.9536,7.9518,7.9913,8.159,8.2212,8.2418,8.2533,8.3692,8.3714,8.0112,8.0551,8.0937,7.9046,8.0253,8.2552,8.566,9.0053,9.301,9.2801,9.5555,9.6776,9.4605,9.429,9.4816,9.6276,9.6101,9.5982,9.6201,9.485,9.4011,9.4011,9.4011,9.4452,9.5431,9.5467,9.5003,9.4045,9.3479,9.3202,9.3034,9.2836,9.2755,9.2755,9.2755,9.1981,9.0703,9.2075,9.1899,9.0739,9.211,9.2638,9.2638,9.2638,9.2638,9.2638,9.2638,9.2638,9.2755,9.2638,9.2555,9.2271,9.2067,9.1982,9.1811,9.1108,9.0963,9.0747,8.9969,8.9393,8.9,8.8901,8.8534,8.8296,8.8296,8.8193,8.8193,8.7953,8.7816,8.7745,8.7536,8.743,8.7357,8.7144,8.707,8.6929,8.6746,8.667,8.6527,8.6131,8.5798,8.5347,8.4742,8.4009,8.3686,8.3686,8.3478,8.339,8.3269,8.2541,8.201,8.2145,8.1074,7.9872,7.8785,7.8753,7.7928,7.6325,7.5972,7.5679,7.5414,7.4417,7.3986,7.9377,7.9608,7.9797,8.0528,8.1381,8.2061,8.2201,8.3525,8.4303,8.2859,8.3109,8.3109,8.1444,8.164,8.2802,8.5012,8.705,8.8789,9.0153,9.2265,9.3606,9.3276,9.3781,9.4816,9.6391,9.6379,9.5836,9.4887,9.4996,9.5106,9.5106,9.5106,9.5374,9.5982,9.5759,9.5402,9.5003,9.423,9.3592,9.3114,9.3034,9.2836,9.2755,9.2755,9.2368,9.1734,9.2438,9.2368,9.1769,9.2438,9.2755,9.2755,9.2755,9.2755,9.2755,9.2755,9.2755,9.272,9.2555,9.2555,9.2555,9.2271,9.2067,9.1897,9.1498,9.1321,9.1053,9.0471,9.0063,8.9778,8.9197,8.8836,8.8669,8.8296,8.8296,8.8193,8.8057,8.8057,8.7953,8.7745,8.743,8.7357,8.7536,8.7144,8.6854,8.6962,8.6746,8.6637,8.6495,8.6053,8.5605,8.5347,8.4742,8.4127,8.3805,8.3836,8.34,8.225,8.2085,8.1295,7.9954,7.9391,7.8646,7.7336,7.7134,7.6602,7.5855,7.5462,7.5172,7.4955,7.4517,7.4074,7.8328,7.8713,7.9053,7.9069,8.0263,8.1456,8.1542,8.2882,8.4092,8.4108,8.4448,8.4486,8.3669,8.3153,8.3585,8.5833,8.6119,8.682,8.907,9.0662,9.1738,9.2229,9.2957,9.3935,9.5237,9.5502,9.5069,9.3792,9.485,9.558,9.558,9.558,9.5763,9.6201,9.592,9.5759,9.5659,9.4935,9.4192,9.343,9.3194,9.3034,9.2836,9.2755,9.2509,9.2192,9.2579,9.2509,9.2192,9.2579,9.2755,9.2755,9.2755,9.2755,9.2755,9.2755,9.2755,9.2673,9.2555,9.2555,9.2638,9.2437,9.2271,9.2102,9.1794,9.1532,9.1267,9.0655,9.0437,9.0191,8.9393,8.9099,8.8901,8.8568,8.8398,8.8296,8.8296,8.8296,8.8193,8.7953,8.7674,8.7463,8.7816,8.7251,8.6854,8.6962,8.6854,8.667,8.667,8.6307,8.5975,8.5975,8.5201,8.4594,8.4276,8.4308,8.3467,8.1714,8.1678,8.0706,7.8237,7.8356,7.7819,7.6371,7.6451,7.6239,7.5855,7.5355,7.5063,7.4987,7.4768,7.4296,7.5779,7.6066,7.7306,7.7306,7.8592,7.9803,7.9847,8.1147,8.2372,8.2361,8.3611,8.5201,8.6729,8.5707,8.6196,9.0942,9.1422,9.1704,9.336,9.4293,9.4303,9.2834,9.2132,9.1737,9.1956,9.3088,9.3792,9.3682,9.3755,9.3828,9.3828,9.3828,9.4558,9.6164,9.6237,9.6043,9.5847,9.5659,9.5071,9.4228,9.3473,9.3149,9.3069,9.2836,9.191,9.0608,9.2086,9.191,9.0643,9.2121,9.2755,9.2755,9.2755,9.2755,9.2755,9.2755,9.2755,9.2755,9.272,9.272,9.2755,9.272,9.2673,9.2555,9.2001,9.1532,9.1232,9.0471,9.0063,8.9874,8.9778,8.9393,8.9,8.9,8.8669,8.8296,8.8296,8.8296,8.8296,8.8193,8.8193,8.809,8.7953,8.743,8.6962,8.6746,8.6637,8.667,8.667,8.667,8.6637,8.6637,8.5573,8.4972,8.5605,8.451,8.3435,8.2632,8.125,7.9977,7.8528,7.8495,7.7819,7.6371,7.7691,7.7584,7.5855,7.5537,7.5248,7.4955,7.4517,7.4216,7.6025,7.5203,7.4333,7.5406,7.6895,7.8068,7.8082,7.9368,8.0896,8.1994,8.2713,8.3635,8.5328,8.5177,8.568,8.8443,8.7769,8.7739,9.0071,8.9775,8.9657,9.0604,8.9578,8.9951,9.2854,9.2556,9.1805,9.0931,9.3595,9.5348,9.5465,9.5428,9.5721,9.6342,9.6401,9.6364,9.6187,9.5909,9.5532,9.5138,9.4083,9.3515,9.3202,9.2882,9.2438,9.1945,9.2509,9.2438,9.1945,9.2509,9.2755,9.2755,9.2755,9.2755,9.2755,9.2755,9.2755,9.2755,9.2755,9.2755,9.2673,9.2555,9.2437,9.2354,9.1915,9.1742,9.1532,9.1053,9.0655,9.0285,8.9874,8.9393,8.8901,8.8635,8.8365,8.8296,8.8296,8.8057,8.7953,8.7953,8.785,8.7641,8.7463,8.7324,8.7251,8.6962,8.617,8.5906,8.7012,8.7144,8.7144,8.7144,8.6755,8.6209,8.546,8.4439,8.3003,8.0866,7.979,7.8978,7.8528,7.7594,7.7304,7.7723,7.7336,7.6853,7.6202,7.5644,7.5323,7.5248,7.4737,7.4438,7.3867,7.3086,7.2442,7.2984,7.4776,7.6391,7.6391,7.7678,7.9231,8.0366,8.1048,8.197,8.3611,8.3876,8.462,8.6772,8.6102,8.6081,8.8331,8.7626,8.7468,8.8951,8.7969,8.8142,9.0616,9.0273,8.9907,8.9944,9.2885,9.4931,9.5465,9.5502,9.5757,9.6342,9.6401,9.6459,9.6401,9.6187,9.597,9.5785,9.4999,9.4267,9.3789,9.3131,9.2882,9.2755,9.2755,9.2755,9.2755,9.2755,9.2755,9.2755,9.2755,9.2755,9.2755,9.2755,9.2755,9.2755,9.2755,9.2755,9.2673,9.2555,9.2473,9.2389,9.1931,9.1707,9.1532,9.1232,9.0872,9.0471,8.9969,8.9586,8.9197,8.8669,8.8398,8.8296,8.8296,8.8057,8.7953,8.7953,8.7345,8.6804,8.6522,8.6196,8.5865,8.555,8.5186,8.5628,8.7264,8.743,8.743,8.743,8.7324,8.6755,8.5877,8.4429,8.2701,8.0464,7.916,7.827,7.7787,7.7336,7.7272,7.7755,7.7304,7.6821,7.6234,7.5644,7.5323,7.5248,7.4846,7.4517,6.9184,6.974,7.177,7.0179,7.2338,7.4799,7.4762,7.6125,7.7337,7.7299,7.8625,8.0291,8.1806,8.2147,8.3245,8.6578,8.7014,8.741,8.877,8.8601,8.8356,8.8248,8.7419,8.6365,8.5105,8.629,8.8269,9.1038,9.1424,9.2174,9.3595,9.3668,9.4376,9.6018,9.6128,9.6247,9.6349,9.6423,9.6269,9.6055,9.6055,9.555,9.4654,9.3789,9.3167,9.272,9.272,9.2755,9.2755,9.2755,9.2755,9.2755,9.2755,9.2755,9.2755,9.2755,9.2755,9.2755,9.2755,9.2755,9.2755,9.2755,9.2755,9.2638,9.2151,9.1638,9.1232,9.0747,9.0563,9.0471,8.9969,8.9778,8.9683,8.9197,8.8635,8.8296,8.8296,8.8296,8.8193,8.8193,8.6953,8.5646,8.5474,8.4143,8.2945,8.2433,8.4067,8.5907,8.7198,8.7502,8.7536,8.7536,8.6938,8.6581,8.6971,8.4441,8.2429,8.139,7.9494,7.7819,7.6467,7.7691,7.7787,7.6435,7.7691,7.7552,7.5791,7.541,7.5228,7.4937,7.4611,7.4533,7.1103,6.9816,6.8816,6.9573,7.2321,7.4491,7.3279,7.5249,7.703,7.5784,7.6882,7.8208,7.8625,7.9723,8.12,8.3283,8.3598,8.4455,8.6995,8.7148,8.7177,8.7633,8.6556,8.561,8.513,8.7309,8.8614,8.8284,9.038,9.1919,9.2377,9.2413,9.2633,9.311,9.4284,9.487,9.4741,9.5837,9.6342,9.6164,9.597,9.5559,9.4967,9.4588,9.4009,9.3167,9.3167,9.3008,9.2755,9.2755,9.2755,9.2755,9.2755,9.2755,9.2755,9.2755,9.2755,9.2755,9.2755,9.2755,9.2755,9.2755,9.2755,9.2638,9.2354,9.2186,9.2017,9.1532,9.1143,9.0781,9.0437,9.0097,8.9683,8.9197,8.8901,8.8735,8.8296,8.8057,8.7953,8.7953,8.7412,8.6937,8.6832,8.65,8.6201,8.6025,8.5979,8.5916,8.6112,8.7319,8.809,8.809,8.6985,8.6043,8.5418,8.2658,8.0532,7.9512,7.7902,7.724,7.7884,7.7272,7.724,7.7884,7.6274,7.5141,7.4723,7.3153,7.2437,7.2366,7.1879,7.17,6.7896,6.623,6.4564,6.6219,6.8144,6.9934,7.1012,7.2765,7.4102,7.3841,7.5129,7.6542,7.7223,7.817,7.9571,8.1844,8.2223,8.3063,8.5481,8.6232,8.6671,8.6872,8.6086,8.5447,8.512,8.7252,8.824,8.71,8.8739,9.0082,9.0868,9.0905,9.1199,9.186,9.2814,9.3292,9.3164,9.4045,9.4832,9.5507,9.5224,9.5217,9.5431,9.5071,9.4588,9.3899,9.3521,9.3088,9.2755,9.2755,9.2755,9.2755,9.2755,9.2755,9.2579,9.1276,9.0784,9.0854,9.1523,9.1769,9.1875,9.2509,9.2755,9.2673,9.2555,9.2437,9.2271,9.2052,9.1673,9.1287,9.1019,9.0563,9.0157,8.9683,8.9393,8.9295,8.8935,8.8635,8.8331,8.8331,8.7419,8.6742,8.6742,8.6243,8.6276,8.7579,8.7321,8.6888,8.6819,8.7658,8.8061,8.7424,8.6586,8.5582,8.4309,8.175,7.9927,7.9209,7.7529,7.6933,7.7562,7.6242,7.5888,7.6725,7.4535,7.3666,7.4278,7.3037,7.2285,7.2183,7.1771,7.0648,6.1174,6.0332,5.9952,6.1542,6.2168,6.3503,0.0,6.882,6.9346,7.0649,7.2402,7.4231,7.5936,7.639,7.764,8.1124,8.1541,8.207,8.4009,8.5385,8.6009,8.5654,8.568,8.5451,8.481,8.6353,8.7206,8.672,8.6953,8.7737,8.9091,8.9165,8.9752,9.0947,9.1313,9.1476,9.1361,9.1623,9.2541,9.4153,9.3935,9.4409,9.5507,9.4823,9.4462,9.4294,9.3251,9.2636,9.2273,9.2227,9.2227,9.2227,9.2227,9.2227,9.1875,8.9094,8.8038,8.8249,8.9657,9.015,9.0361,9.1769,9.2227,9.2227,9.2227,9.1923,9.1618,9.1793,9.1521,9.1163,9.0942,9.0747,9.0445,8.9863,8.9584,8.9361,8.9301,8.9019,8.8828,8.8828,8.7456,8.6117,8.6117,8.508,8.508,8.7792,8.8028,8.786,8.8028,8.7894,8.7357,8.6184,8.6084,8.5347,8.3644,8.1421,8.0031,7.9425,7.761,7.6423,7.6113,7.4793,7.4052,7.4052,7.2636,7.2507,7.3694,7.3331,7.2929,7.2724,7.2422,7.0289,0.0,0.0,0.0,0.0,0.0,0.0,0.0,6.2859,6.355,6.2509,6.4744,6.732,6.8929,7.0313,7.2776,7.7526,7.7185,7.7754,8.2056,8.2746,8.2761,8.266,8.3651,8.4212,8.3739,8.5047,8.5818,8.5528,8.6662,8.7464,8.77,8.7652,8.7247,8.629,8.8693,8.9341,8.8031,9.0486,9.1937,9.2267,9.223,9.2268,9.243,9.1869,9.1463,9.1041,9.0189,8.9642,8.9416,8.9109,8.8953,8.8953,8.8953,8.8953,8.8883,8.8284,8.8038,8.8108,8.839,8.8496,8.8566,8.8883,8.8953,8.8953,8.8953,8.8073,8.7222,8.825,8.761,8.6865,8.7916,8.8183,8.7982,8.7266,8.7058,8.6827,8.6321,8.7058,8.7782,8.7782,8.8435,8.8854,8.8496,8.816,8.8061,8.8195,8.655,8.5634,8.6452,8.548,8.5111,8.5983,8.6084,8.548,8.4005,8.0525,7.8219,7.7752,7.5845,7.4696,7.4664,7.3312,7.2539,7.2539,7.1155,7.0447,7.0509,6.9066,6.8298,6.8006,6.8169,6.7531,0.0,0.0,0.0,0.0,0.0,0.0,0.0,0.0,0.0,0.0,0.0,6.2159,6.5502,0.0,6.9897,7.4156,7.5557,7.6946,7.9444,8.1057,8.1742,8.0943,8.2084,8.2833,8.2542,8.3681,8.4377,8.422,8.5484,8.6266,8.622,8.6174,8.5759,8.4948,8.6485,8.6879,8.6032,8.8275,8.9877,9.0685,9.058,9.0913,9.1516,9.0983,9.0645,9.0422,8.9436,8.8974,8.8866,8.8269,8.8038,8.7897,8.6313,8.5715,8.5609,8.487,8.5081,8.5715,8.5715,8.6208,8.7017,8.7792,8.8038,8.8038,8.8038,8.751,8.7052,8.7671,8.732,8.6863,8.7549,8.768,8.7485,8.7124,8.6876,8.6539,8.623,8.6409,8.656,8.6434,8.7381,8.8049,8.7657,8.7406,8.6898,8.6217,8.5039,8.443,8.5009,8.4472,8.4002,8.3838,8.2876,8.2044,8.1759,7.8767,7.7232,7.7858,7.5892,7.4324,7.3481,7.1896,7.1155,7.1475,6.9736,6.916,6.9772,6.8747,6.8203,6.7914,6.7597,6.7018,0.0,0.0,0.0,0.0,0.0,0.0,0.0,0.0,0.0,0.0,0.0,0.0,0.0,0.0,0.0,7.0671,7.3891,7.6239,7.7223,7.9368,8.0324,7.9067,8.0128,8.0915,8.0742,8.2167,8.2976,8.2807,8.3997,8.4744,8.4701,8.4523,8.4469,8.4469,8.4764,8.4948,8.4948,8.64,8.7823,8.9184,8.9033,0.0,9.0675,9.019,8.9678,8.9206,8.8536,8.8015,8.773,8.7395,8.7235,8.6988,8.449,8.343,8.3215,8.1983,8.2124,8.2934,8.2934,8.3567,8.4553,8.5856,8.6243,8.6243,8.6243,8.6067,0.0,8.6172,8.6067,8.5961,8.656,8.6512,8.6426,8.6742,8.6495,8.6206,8.6241,8.5574,8.5071,8.5134,8.5646,8.5995,8.5975,8.5189,8.4218,8.332,8.2659,8.2296,8.2468,8.2501,8.2071,8.1101,7.9785,7.9253,7.9882,7.7142,7.6203,7.8133,7.5335,7.2898,7.1049,6.9695,6.8761,6.8517,6.7248,6.7452,6.9064,6.8842,6.8555,6.8395,6.5897,6.4674,0.0,0.0,0.0,0.0,0.0,0.0,0.0,0.0,0.0,0.0,0.0,0.0,0.0,0.0,0.0,0.0,6.9421,7.2224,7.6731,7.6378,7.5583,7.5405,7.6871,7.7789,7.7516,8.0231,8.1796,8.1308,8.2618,8.3298,8.3098,8.2927,0.0,0.0,0.0,8.4948,8.4948,8.6495,8.7332,8.7516,8.7419,8.7431,8.7577,8.7004,8.5699,8.3794,8.4897,8.4298,8.2582,8.3931,8.4427,8.4392,8.4038,8.3682,8.3356,8.318,8.2371,8.135,8.135,0.0,0.0,7.9731,7.9801,7.9801,7.9801,7.8886,7.8146,7.9449,7.885,7.8498,8.1174,8.1733,8.1937,8.334,8.3503,8.3273,8.3108,8.2835,8.3055,8.4393,8.4487,8.4627,8.5342,8.3349,8.1418,8.0679,7.7938,7.6341,7.7348,7.7236,7.7479,7.8572,8.0276,0.0,8.1357,7.6651,7.4559,7.6572,7.1586,6.7474,6.4827,6.5021,6.3635,6.046,6.154,6.3318,6.5892,6.5617,6.5525,6.5581,5.76,5.5165,0.0,0.0,0.0,0.0,0.0,0.0,0.0,0.0,0.0,0.0,0.0,0.0,0.0,0.0,0.0,0.0,6.5331,6.9081,7.1202,7.1732,7.2641,7.461,7.5443,7.5836,7.5732,7.7702,7.887,7.8488,8.0542,8.1698,8.147,8.1342,8.1253,8.1168,8.1824,8.2148,8.2148,8.3613,8.434,8.434,8.519,8.5569,8.5506,8.6109,8.5817,8.4822,8.5067,8.4143,8.2535,8.3843,8.3678,8.2584,0.0,0.0,0.0,0.0,8.0294,7.959,7.8745,7.8569,7.8745,7.8745,7.8745,7.8745,7.8745,7.8322,7.797,7.8569,7.8322,7.8146,7.9414,7.966,7.9765,8.0433,8.0464,8.0279,8.024,7.987,7.9902,8.1381,8.2058,0.0,8.0714,7.9514,7.8835,7.915,7.7942,7.7585,7.8899,7.8746,7.8675,7.9279,7.8808,7.8581,7.9044,7.5749,0.0,0.0,0.0,6.9757,6.8456,6.783,0.0,0.0,0.0,6.1741,6.2263,5.9369,0.0,0.0,5.2685,5.175,0.0,0.0,0.0,0.0,0.0,0.0,0.0,0.0,0.0,0.0,0.0,0.0,0.0,0.0,0.0,0.0,6.0786,6.4536,6.4536,6.677,6.9346,7.1807,7.3322,7.3966,7.3512,7.5226,7.6291,7.604,7.791,7.891,7.8652,7.8468,7.8532,7.8928,7.9207,7.9644,8.0086,8.1543,8.227,8.227,8.3426,8.3832,8.3757,8.4737,8.4817,8.4161,8.4293,8.3372,8.186,8.2976,8.2554,8.112,7.9917,7.919,7.8745,7.8745,7.8745,7.8534,7.709,7.6985,7.7513,7.7513,7.7513,7.7513,7.7513,7.7513,7.7513,7.7513,7.7513,7.7618,7.8041,7.8077,7.8183,7.857,7.857,7.8392,7.8392,7.768,7.7338,7.8708,7.9254,7.8887,7.6843,7.6464,7.655,7.6641,7.6579,7.7007,7.8418,7.8243,7.8284,7.9093,7.7531,7.6656,7.7167,7.438,7.3017,7.407,7.1644,7.0576,7.1285,6.8962,6.7802,6.8113,6.344,6.0145,0.0,0.0,0.0,0.0,0.0,0.0,0.0,0.0,0.0,0.0,0.0,0.0,0.0,0.0,0.0,0.0,0.0,0.0,0.0,0.0,0.0,0.0,0.0,0.0,5.7634,6.1923,6.5104,6.5218,6.9459,7.1732,7.0103,7.2959,7.4851,7.472,7.4538,7.4365,7.4076,7.371,7.4128,7.5531,7.6922,7.8465,8.0086,8.167,8.2443,8.2443,8.2344,8.2204,8.2109,8.1999,8.0807,7.888,8.0886,8.0509,7.8642,8.0174,8.053,8.0103,7.9942,7.939,7.8745,7.8745,7.8745,7.8534,7.709,7.5612,7.438,7.438,7.438,7.438,7.438,7.438,7.438,7.438,7.438,7.4732,7.6246,7.6497,7.6675,7.8324,7.8464,7.8178,7.8178,7.6736,7.5887,7.7378,7.6506,7.5536,7.514,7.5106,7.4398,7.246,7.1691,0.0,7.2809,7.2673,7.369,7.6619,7.7044,7.7167,7.7167,7.2749,7.0798,7.2843,6.8269,6.6942,7.0133,6.5459,6.3635,6.5408,6.1938,5.8143,5.4041,0.0,0.0,0.0,0.0,0.0,0.0,0.0,0.0,0.0,0.0,0.0,0.0,0.0,0.0,0.0,0.0,0.0,0.0,0.0,0.0,0.0,0.0,0.0,0.0,6.0047,6.3646,6.4773,6.6392,6.6732,6.5066,6.7858,6.9743,6.9505,7.2536,7.4211,7.3895,7.3569,7.3551,7.3874,7.5349,7.6333,7.6759,7.8261,7.9071,7.9071,8.0038,8.0542,8.0532,8.1511,8.1548,8.0887,8.1281,8.0469,7.8967,8.0271,7.8185,7.4128,7.3944,7.3564,7.3182,7.3182,7.3182,7.3111,7.2432,7.1875,7.139,7.1239,7.1177,7.1177,7.1177,7.1881,7.2655,7.2655,7.343,7.4345,7.4873,7.4947,7.5053,7.5647,7.5686,7.5516,7.5344,7.4753,7.4683,7.6002,7.4192,7.1863,6.9978,7.1899,7.2868,7.027,7.2163,7.4419,7.5784,7.5595,7.6054,7.772,7.682,7.6074,7.5725,7.3308,7.1703,7.1368,7.0007,6.9718,7.0645,6.7944,6.6638,6.7104,6.4605,5.9678,5.2305,0.0,0.0,0.0,0.0,0.0,0.0,0.0,0.0,0.0,0.0,0.0,0.0,0.0,0.0,0.0,0.0,0.0,0.0,0.0,0.0,0.0,0.0,0.0,0.0,0.0,0.0,6.2907,6.3665,0.0,6.0824,6.2491,6.3661,6.3489,6.6498,6.8993,7.0404,7.0272,7.0591,7.1487,7.2912,7.3573,7.3378,7.4873,7.5638,7.5638,7.6652,7.7121,7.7195,7.8185,7.8615,7.8615,7.839,7.7625,7.664,7.7286,7.4653,7.0176,6.9858,6.9211,6.845,6.845,6.8748,6.9187,6.9011,6.94,6.98,6.9654,6.8853,6.7938,6.7938,6.7868,6.7973,6.91,7.0156,7.1177,7.2303,7.2585,7.2585,7.2585,7.2521,7.2497,7.2922,7.2443,7.2207,7.3011,7.1412,6.915,6.6435,6.8166,6.9257,6.7212,6.992,7.3043,7.5313,7.5466,7.6025,7.7761,7.6191,7.4944,7.4693,7.385,7.2668,7.1149,7.0801,7.0418,6.9987,6.8384,6.6875,6.5494,6.3068,5.8254,0.0,0.0,0.0,0.0,0.0,0.0,0.0,0.0,0.0,0.0,0.0,0.0,0.0,0.0,0.0,0.0,0.0,0.0,0.0,0.0,0.0,0.0,0.0,0.0,0.0,0.0,0.0,5.9537,6.1014,0.0,0.0,0.0,0.0,5.6839,5.7076,5.9105,6.3478,6.3745,6.5112,6.8052,6.9565,7.0324,7.0252,7.1752,7.2548,7.2506,7.2506,7.2506,7.2501,7.2501,7.2501,7.2501,7.2474,7.2348,7.2077,7.1379,6.9854,6.8046,6.7677,6.6284,6.4488,6.4559,6.5416,6.6588,6.6953,6.7973,6.9135,6.9029,6.6988,6.4524,6.4277,6.22,0.0,0.0,6.4524,6.5298,6.8537,6.9381,6.9417,6.9557,6.931,6.9505,7.1069,7.007,6.8763,6.8519,6.8118,6.6877,6.4019,0.0,6.3585,6.2854,6.4823,6.7667,7.1355,7.2253,7.3634,7.6593,7.5138,7.3945,7.3945,7.3877,7.3229,7.1761,7.0102,6.8864,6.8011,6.6396,6.4041,6.0734,5.7518,0.0,0.0,0.0,0.0,0.0,0.0,0.0,0.0,0.0,0.0,0.0,0.0,0.0,0.0,0.0,0.0,0.0,0.0,0.0,0.0,0.0,0.0,0.0,0.0,0.0,0.0,5.2121,5.4781,5.7668,5.6136,5.4083,0.0,0.0,0.0,0.0,0.0,0.0,5.5251,5.7496,5.9553,6.1205,6.5238,6.7747,6.848,7.1432,7.2831,7.2631,7.2631,7.2626,7.2506,7.2506,7.2506,7.2506,7.2299,7.2167,7.1712,6.6774,6.4125,6.3048,6.1746,6.0114,5.8567,5.9823,5.9787,5.961,6.2931,6.3711,6.3015,6.1481,6.0597,5.9375,5.5847,0.0,0.0,0.0,0.0,6.0828,6.5016,6.6201,6.68,6.9065,6.9531,6.9512,6.9765,6.9237,6.7852,6.4667,6.2799,5.9771,5.354,5.494,0.0,5.3878,5.9921,6.5504,6.7532,7.0893,7.37,7.5411,7.4013,7.2749,7.2375,7.1079,6.9636,6.811,6.7554,6.7276,6.7317,6.3441,6.0373,5.8563,0.0,0.0,0.0,0.0,0.0,0.0,0.0,0.0,0.0,0.0,0.0,0.0,0.0,0.0,0.0,0.0,0.0,0.0,0.0,0.0,0.0,0.0,0.0,0.0,0.0,0.0,0.0,4.8197,5.1159,5.3696,5.1681,4.9476,0.0,0.0,0.0,0.0,0.0,0.0,0.0,0.0,0.0,5.662,5.9368,6.1386,6.2553,6.5865,6.7819,6.8402,6.9797,7.0495,7.0455,7.0455,7.0459,7.0425,6.9567,6.8748,6.7594,6.3173,6.0233,5.8326,0.0,0.0,0.0,0.0,5.3443,5.3571,5.5988,5.6816,5.6589,5.5329,0.0,0.0,0.0,0.0,0.0,0.0,0.0,5.7062,6.0846,6.3528,6.5596,6.7188,6.7526,6.7642,6.8213,6.4828,6.0755,5.7857,5.6213,5.3603,4.8396,4.9277,0.0,0.0,0.0,6.1126,6.3755,6.8253,7.1413,7.2033,7.1271,7.0611,7.029,6.9357,6.8357,6.7468,6.664,6.5201,6.3059,5.9807,5.5569,0.0,0.0,0.0,0.0,0.0,0.0,0.0,0.0,0.0,0.0,0.0,0.0,0.0,0.0,0.0,0.0,0.0,0.0,0.0,0.0,0.0,0.0,0.0,0.0,0.0,0.0,0.0,0.0,0.0,4.6974,4.8874,0.0,0.0,0.0,0.0,0.0,0.0,0.0,0.0,0.0,0.0,0.0,0.0,0.0,5.35,5.48,5.7961,6.0212,6.1536,6.4396,6.5754,6.5867,6.6087,6.6346,6.6456,6.4652,0.0,6.2082,5.9742,0.0,0.0,0.0,0.0,0.0,0.0,0.0,0.0,0.0,0.0,0.0,0.0,0.0,0.0,0.0,0.0,0.0,0.0,0.0,0.0,0.0,0.0,6.3409,6.3382,6.3601,6.4071,6.4889,5.8346,5.1758,5.0172,4.9288,4.792,0.0,0.0,0.0,0.0,0.0,0.0,6.025,6.525,6.8465,6.8531,6.8465,6.8361,6.8187,6.8086,6.7982,6.7775,6.5647,6.2233,5.7372,5.6001,0.0,0.0,0.0,0.0,0.0,0.0,0.0,0.0,0.0,0.0,0.0,0.0,0.0,0.0,0.0,0.0,0.0,0.0,0.0,0.0,0.0,0.0,0.0,0.0,0.0,0.0,0.0,0.0,0.0,0.0,0.0,0.0,0.0,0.0,0.0,0.0,0.0,0.0,0.0,0.0,0.0,0.0,0.0,0.0,0.0,0.0,0.0,0.0,0.0,0.0,5.5342,5.5562,5.5533,5.6921,5.8311,5.9482,5.6614,5.7358,6.0071,5.4382,0.0,0.0,0.0,0.0,0.0,0.0,0.0,0.0,0.0,0.0,0.0,0.0,0.0,0.0,0.0,0.0,0.0,0.0,0.0,0.0,0.0,0.0,5.3904,5.5019,5.7272,5.8152,5.4562,0.0,0.0,0.0,0.0,0.0,0.0,0.0,0.0,0.0,0.0,0.0,5.7765,6.4341,6.8798,6.8893,6.8597,6.7945,6.6765,6.6365,6.5647,6.4371,6.0013,5.6537,0.0,0.0,0.0,0.0,0.0,0.0,0.0,0.0,0.0,0.0,0.0,0.0,0.0,0.0,0.0,0.0,0.0,0.0,0.0,0.0,0.0,0.0,0.0,0.0,0.0,0.0,0.0,0.0,0.0,0.0,0.0,0.0,0.0,0.0,0.0,0.0,0.0,0.0,0.0,0.0,0.0,0.0,0.0,0.0,0.0,0.0,0.0,0.0,0.0,0.0,0.0,0.0,0.0,0.0,0.0,0.0,0.0,0.0,5.2685,5.1097,0.0,0.0,0.0,0.0,0.0,0.0,0.0,0.0,0.0,0.0,0.0,0.0,0.0,0.0,0.0,0.0,0.0,0.0,0.0,0.0,0.0,0.0,0.0,0.0,0.0,0.0,0.0,0.0,0.0,0.0,0.0,0.0,0.0,0.0,0.0,0.0,0.0,0.0,0.0,0.0,5.4627,6.1567,6.6332,6.6396,6.6234,6.5794,6.5135,6.4904,6.3429,6.0225,5.6849,0.0,0.0,0.0,0.0,0.0,0.0,0.0,0.0,0.0,0.0,0.0,0.0,0.0,0.0,0.0,0.0,0.0,0.0,0.0,0.0,0.0,0.0,0.0,0.0,0.0,0.0,0.0,0.0,0.0,0.0,0.0,0.0,0.0,0.0,0.0,0.0,0.0,0.0,0.0,0.0,0.0,0.0,0.0,0.0,0.0,0.0,0.0,0.0,0.0,0.0,0.0,0.0,0.0,0.0,0.0,0.0,0.0,0.0,0.0,4.8774,4.5539,0.0,0.0,0.0,0.0,0.0,0.0,0.0,0.0,0.0,0.0,0.0,0.0,0.0,0.0,0.0,0.0,0.0,0.0,0.0,0.0,0.0,0.0,0.0,0.0,0.0,0.0,0.0,0.0,0.0,0.0,0.0,0.0,0.0,0.0,0.0,0.0,0.0,0.0,0.0,0.0,5.2438,5.9284,6.401,6.401,6.4045,6.3983,6.3983,6.3983,6.1944,5.7198,5.4283,0.0,0.0,0.0,0.0,0.0,0.0,0.0,0.0,0.0,0.0,0.0,0.0,0.0,0.0,0.0,0.0,0.0,0.0,0.0,0.0,0.0,0.0,0.0,0.0,0.0,0.0,0.0,0.0,0.0,0.0,0.0,0.0,0.0,0.0,0.0,0.0,0.0,0.0,0.0,0.0,0.0,0.0,0.0,0.0,0.0,0.0,0.0,0.0,0.0,0.0,0.0,0.0,0.0,0.0,0.0,0.0,0.0,0.0,0.0,0.0,0.0,0.0,0.0,0.0,0.0,0.0,0.0,0.0,0.0,0.0,0.0,0.0,0.0,0.0,0.0,0.0,0.0,0.0,0.0,0.0,0.0,0.0,0.0,0.0,0.0,0.0,0.0,0.0,0.0,0.0,0.0,0.0,0.0,0.0,0.0,0.0,0.0,0.0,0.0,0.0,0.0,5.2989,5.9676,6.4314,6.4314,6.4228,6.4045,6.3983,6.3983,6.1884,5.705,0.0,0.0,0.0,0.0,0.0,0.0,0.0,0.0,0.0,0.0,0.0,0.0,0.0,0.0,0.0,0.0,0.0,0.0,0.0,0.0,0.0,0.0,0.0,0.0,0.0,0.0,0.0,0.0,0.0,0.0,0.0,0.0,0.0,0.0,0.0,0.0,0.0,0.0,0.0,0.0,0.0,0.0,0.0,0.0,0.0,0.0,0.0,0.0,0.0,0.0,0.0,0.0,0.0,0.0,0.0,0.0,0.0,0.0,0.0,0.0,0.0,0.0,0.0,0.0,0.0,0.0,0.0,0.0,0.0,0.0,0.0,0.0,0.0,0.0,0.0,0.0,0.0,0.0,0.0,0.0,0.0,0.0,0.0,0.0,0.0,0.0,0.0,0.0,0.0,0.0,0.0,0.0,0.0,0.0,0.0,0.0,0.0,0.0,0.0,0.0,0.0,0.0,5.1526,5.84,6.343,6.4209,6.3545,6.2904,6.268,6.1856,5.8476,5.1596,0.0,0.0,0.0,0.0,0.0,0.0,0.0,0.0,0.0,0.0,0.0,0.0,0.0,0.0,0.0,0.0,0.0,0.0,0.0,0.0,0.0,0.0,0.0,0.0,0.0,0.0,0.0,0.0,0.0,0.0,0.0,0.0,0.0,0.0,0.0,0.0,0.0,0.0,0.0,0.0,0.0,0.0,0.0,0.0,0.0,0.0,0.0,0.0,0.0,0.0,0.0,0.0,0.0,0.0,0.0,0.0,0.0,0.0,0.0,0.0,0.0,0.0,0.0,0.0,0.0,0.0,0.0,0.0,0.0,0.0,0.0,0.0,0.0,0.0,0.0,0.0,0.0,0.0,0.0,0.0,0.0,0.0,0.0,0.0,0.0,0.0,0.0,0.0,0.0,0.0,0.0,0.0,0.0,0.0,0.0,0.0,0.0,0.0,0.0,0.0,0.0,0.0,4.9948,5.6841,6.2006,6.2941,6.2137,6.1358,6.108,6.0176,5.6098,4.7951,0.0,0.0,0.0,0.0,0.0,0.0,0.0,0.0,0.0,0.0,0.0,0.0,0.0,0.0,0.0,0.0,0.0,0.0,0.0,0.0,0.0,0.0,0.0,0.0,0.0,0.0,0.0,0.0,0.0,0.0,0.0,0.0,0.0,0.0,0.0,0.0,0.0,0.0,0.0,0.0,0.0,0.0,0.0,0.0,0.0,0.0,0.0,0.0,0.0,0.0,0.0,0.0,0.0,0.0,0.0,0.0,0.0,0.0,0.0,0.0,0.0,0.0,0.0,0.0,0.0,0.0,0.0,0.0,0.0,0.0,0.0,0.0,0.0,0.0,0.0,0.0,0.0,0.0,0.0,0.0,0.0,0.0,0.0,0.0,0.0,0.0,0.0,0.0,0.0,0.0,0.0,0.0,0.0,0.0,0.0,0.0,0.0,0.0,0.0,0.0,0.0,0.0,4.8613,5.5442,6.0193,5.9935,5.9935,5.9754,5.9343,5.9308,5.5884,0.0,0.0,0.0,0.0,0.0,0.0,0.0,0.0,0.0,0.0,0.0,0.0,0.0,0.0,0.0,0.0,0.0,0.0,0.0,0.0,0.0,0.0,0.0,0.0,0.0,0.0,0.0,0.0,0.0,0.0,0.0,0.0,0.0,0.0,0.0,0.0,0.0,0.0,0.0,0.0,0.0,0.0,0.0,0.0,0.0,0.0,0.0,0.0,0.0,0.0,0.0,0.0,0.0,0.0,0.0,0.0,0.0,0.0,0.0,0.0,0.0,0.0,0.0,0.0,0.0,0.0,0.0,0.0,0.0,0.0,0.0,0.0,0.0,0.0,0.0,0.0,0.0,0.0,0.0,0.0,0.0,0.0,0.0,0.0,0.0,0.0,0.0,0.0,0.0,0.0,0.0,0.0,0.0,0.0,0.0,0.0,0.0,0.0,0.0,0.0,0.0,0.0,0.0,4.8331,5.3576,5.7855,5.9912,5.9102,5.8311,5.8114,5.703,5.3412,4.6452,0.0,0.0,0.0,0.0,0.0,0.0,0.0,0.0,0.0,0.0,0.0,0.0,0.0,0.0,0.0,0.0,0.0,0.0,0.0,0.0,0.0,0.0,0.0,0.0,0.0,0.0,0.0,0.0,0.0,0.0,0.0,0.0,0.0,0.0,0.0,0.0,0.0,0.0,0.0,0.0,0.0,0.0,0.0,0.0,0.0,0.0,0.0,0.0,0.0,0.0,0.0,0.0,0.0,0.0,0.0,0.0,0.0,0.0,0.0,0.0,0.0,0.0,0.0,0.0,0.0,0.0,0.0,0.0,0.0,0.0,0.0,0.0,0.0,0.0,0.0,0.0,0.0,0.0,0.0,0.0,0.0,0.0,0.0,0.0,0.0,0.0,0.0,0.0,0.0,0.0,0.0,0.0,0.0,0.0,0.0,0.0,0.0,0.0,0.0,0.0,0.0,0.0,0.0,5.1805,5.5639,5.8015,5.7367,5.6702,5.6545,5.5515,5.2198,4.5695,0.0,0.0,0.0,0.0,0.0,0.0,0.0,0.0,0.0,0.0,0.0,0.0,0.0,0.0,0.0,0.0,0.0,0.0,0.0,0.0,0.0,0.0,0.0,0.0,0.0,0.0,0.0,0.0,0.0,0.0,0.0,0.0,0.0,0.0,0.0,0.0,0.0,0.0,0.0,0.0,0.0,0.0,0.0,0.0,0.0,0.0,0.0,0.0,0.0,0.0,0.0,0.0,0.0,0.0,0.0,0.0,0.0,0.0,0.0,0.0,0.0,0.0,0.0,0.0,0.0,0.0,0.0,0.0,0.0,0.0,0.0,0.0,0.0,0.0,0.0,0.0,0.0,0.0,0.0,0.0,0.0,0.0,0.0,0.0,0.0,0.0,0.0,0.0,0.0,0.0,0.0,0.0,0.0,0.0,0.0,0.0,0.0,0.0,0.0,0.0,0.0,0.0,0.0,5.0354,5.3749,5.494,5.5166,5.5114,5.4869,5.4834,5.2131,4.5695,4.231,0.0,0.0,0.0,0.0,0.0,0.0,0.0,0.0,0.0,0.0,0.0,0.0,0.0,0.0,0.0,0.0,0.0,0.0,0.0,0.0,0.0,0.0,0.0,0.0,0.0,0.0,0.0,0.0,0.0,0.0,0.0,0.0,0.0,0.0,0.0,0.0,0.0,0.0,0.0,0.0,0.0,0.0,0.0,0.0,0.0,0.0,0.0,0.0,0.0,0.0,0.0,0.0,0.0,0.0,0.0,0.0,0.0,0.0,0.0,0.0,0.0,0.0,0.0,0.0,0.0,0.0,0.0,0.0,0.0,0.0,0.0,0.0,0.0,0.0,0.0,0.0,0.0,0.0,0.0,0.0,0.0,0.0,0.0,0.0,0.0,0.0,0.0,0.0,0.0,0.0,0.0,0.0,0.0,0.0,0.0,0.0,0.0,0.0,0.0,0.0,0.0,0.0,5.1067,5.3845,5.5294,5.542,5.5268,5.5149,5.5045,5.2164,4.5706,4.3269,0.0,0.0,0.0,0.0,0.0,0.0,0.0,0.0,0.0,0.0,0.0,0.0,0.0,0.0,0.0,0.0,0.0,0.0,0.0,0.0,0.0,0.0,0.0,0.0,0.0,0.0,0.0,0.0,0.0,0.0,0.0,0.0,0.0,0.0,0.0,0.0,0.0,0.0,0.0,0.0,0.0,0.0,0.0,0.0,0.0,0.0,0.0,0.0,0.0,0.0,0.0,0.0,0.0,0.0,0.0,0.0,0.0,0.0,0.0,0.0,0.0,0.0,0.0,0.0,0.0,0.0,0.0,0.0,0.0,0.0,0.0,0.0,0.0,0.0,0.0,0.0,0.0,0.0,0.0,0.0,0.0,0.0,0.0,0.0,0.0,0.0,0.0,0.0,0.0,0.0,0.0,0.0,0.0,0.0,0.0,0.0,0.0,0.0,0.0,0.0,0.0,0.0,4.7648,5.1362,5.5034,5.542,5.5334,5.5252,5.5063,5.2214,4.5706,4.3656,0.0,0.0,0.0,0.0,0.0,0.0,0.0,0.0,0.0,0.0,0.0,0.0,0.0,0.0,0.0,0.0,0.0,0.0,0.0,0.0,0.0,0.0,0.0,0.0,0.0,0.0,0.0,0.0,0.0,0.0,0.0,0.0,0.0,0.0,0.0,0.0,0.0,0.0,0.0,0.0,0.0,0.0,0.0,0.0,0.0,0.0,0.0,0.0,0.0,0.0,0.0,0.0,0.0,0.0,0.0,0.0,0.0,0.0,0.0,0.0,0.0,0.0,0.0,0.0,0.0,0.0,0.0,0.0,0.0,0.0,0.0,0.0,0.0,0.0,0.0,0.0,0.0,0.0,0.0,0.0,0.0,0.0,0.0,0.0,0.0,0.0,0.0,0.0,0.0,0.0,0.0,0.0,0.0,0.0,0.0,0.0,0.0,0.0,0.0,0.0,0.0,0.0,0.0,4.829,5.3924,5.5089,5.5369,5.5217,5.4905,5.2021,4.5741,0.0,0.0,0.0,0.0,0.0,0.0,0.0,0.0,0.0,0.0,0.0,0.0,0.0,0.0,0.0,0.0,0.0,0.0,0.0,0.0,0.0,0.0,0.0,0.0,0.0,0.0,0.0,0.0,0.0,0.0,0.0,0.0,0.0,0.0,0.0,0.0,0.0,0.0,0.0,0.0,0.0,0.0,0.0,0.0,0.0,0.0,0.0,0.0,0.0,0.0,0.0,0.0,0.0,0.0,0.0,0.0,0.0,0.0,0.0,0.0,0.0,0.0,0.0,0.0,0.0,0.0,0.0,0.0,0.0,0.0,0.0,0.0,0.0,0.0,0.0,0.0,0.0,0.0,0.0,0.0,0.0,0.0,0.0,0.0,0.0,0.0,0.0,0.0,0.0,0.0,0.0,0.0,0.0,0.0,0.0,0.0,0.0,0.0,0.0,0.0,0.0,0.0,0.0,0.0,4.7733,5.121,5.4008,5.5519,5.5384,5.4009,5.102,4.5764,0.0,0.0,0.0,0.0,0.0,0.0,0.0,0.0,0.0,0.0,0.0,0.0,0.0,0.0]}],[{"header":{"parameterUnit":"kt","parameterCategory":2,"dx":1,"dy":1,"la1":29.285339999999998,"la2":30.599998999999997,"lo1":-89.70041500000002,"lo2":-87.6738589999976,"nx":112,"ny":82,"refTime":"2022-09-19T00:00:00:Z","depth":0,"parameterNumber":2,"parameterNumberName":"V-component_of_WINDS"},"data":[2.4083,2.4741,2.4811,2.2905,2.2793,2.2291,1.9503,1.9771,2.045,2.045,2.1176,2.2722,2.556,2.5419,2.5296,2.6284,2.6261,2.5396,0.0,2.3618,2.3838,2.4587,2.5233,2.6152,2.7691,2.7525,2.9309,3.3957,3.337,3.4237,3.7402,3.7447,3.7214,3.6994,3.6211,3.582,3.5808,3.4672,3.4648,3.5985,3.7327,3.8886,4.0672,4.2695,4.4674,4.6619,4.7734,4.8827,5.0129,5.1247,5.1689,5.1689,5.2077,5.2692,5.3322,5.3932,5.4577,5.4993,5.4993,5.4993,5.4993,5.4993,5.4993,5.4993,5.4993,5.4993,5.4993,5.4993,5.4993,5.4993,5.4993,5.4993,5.4993,5.4993,5.4993,5.4993,5.4993,5.4993,5.4993,5.4993,5.4993,5.4993,5.4993,5.4993,5.4538,5.3171,5.2715,5.2013,5.0665,5.021,5.0039,5.0039,5.0039,4.9831,4.9452,4.9053,4.8863,4.8463,4.8081,4.7698,4.7507,4.714,4.6948,4.6948,4.6948,4.6948,4.6948,4.6948,4.6948,4.6948,4.6948,4.714,2.3658,2.3856,2.3612,2.1431,2.1124,2.0583,1.8428,1.8677,1.9436,1.9368,2.0497,2.1964,2.3654,2.4203,2.4583,2.4861,2.5396,2.5208,0.0,2.3333,2.3844,2.5035,2.6217,2.7414,2.8558,2.8559,3.0124,3.4098,3.3492,3.4139,3.7382,3.7209,3.7072,3.6837,3.6086,3.5378,3.5378,3.4911,3.4444,3.4456,3.6236,3.7566,3.8227,4.0241,4.2239,4.4424,4.575,4.7518,4.9025,5.0129,5.1016,5.1689,5.1847,5.2463,5.3322,5.3514,5.4141,5.4993,5.4993,5.4993,5.4993,5.4993,5.4993,5.4993,5.4993,5.4993,5.4993,5.4993,5.4993,5.4993,5.4993,5.4993,5.4993,5.4993,5.4993,5.4993,5.4993,5.4993,5.4993,5.4993,5.4993,5.4993,5.4993,5.4993,5.4519,5.3152,5.2696,5.2013,5.0627,5.0001,4.9641,4.9641,4.9452,4.9243,4.8863,4.8654,4.8272,4.8081,4.789,4.7507,4.7507,4.714,4.6948,4.6948,4.6948,4.6948,4.6948,4.6948,4.6948,4.6948,4.714,4.7507,2.2915,2.2689,2.2665,2.0625,2.0292,1.9823,1.8396,1.9047,1.9646,1.8437,2.0449,2.2464,2.2654,2.362,2.4265,2.3919,2.4585,0.0,0.0,2.3857,2.5089,2.5924,2.7442,2.8706,2.9564,2.8385,2.9392,3.3658,3.2134,3.2952,3.7388,3.7543,3.7405,3.6702,3.6689,3.6475,3.5808,3.5808,3.5593,3.4935,3.6035,3.6249,3.5796,3.6902,3.9124,4.1796,4.2695,4.5096,4.881,4.838,4.9488,5.1459,5.0999,5.1618,5.3112,5.2674,5.3514,5.4993,5.4993,5.4993,5.4993,5.4993,5.4993,5.4993,5.4993,5.4993,5.4993,5.4993,5.4993,5.4993,5.4993,5.4993,5.4993,5.4993,5.4993,5.4993,5.4993,5.4993,5.4993,5.4993,5.4993,5.4993,5.4993,5.4993,5.4708,5.3892,5.3057,5.2222,5.1405,4.9977,4.9243,4.9243,4.8654,4.8463,4.8463,4.8463,4.8081,4.7698,4.7698,4.7507,4.714,4.6948,4.6948,4.6948,4.6948,4.6948,4.6948,4.6948,4.6948,4.714,4.7507,4.789,2.1451,2.142,2.141,2.04,2.0074,1.993,1.902,1.8736,1.8537,1.8356,1.8543,0.0,0.0,0.0,2.2389,2.3071,0.0,2.7316,2.4907,2.831,3.0225,2.8263,2.8664,3.0013,3.2089,3.1683,3.2874,3.6151,3.441,3.4262,3.7249,3.7543,3.7405,3.6702,3.6689,3.6475,3.5808,3.5366,3.5366,3.5593,3.5127,3.5342,3.6475,3.6249,3.7128,3.89,4.0922,4.2916,4.4658,4.6201,4.7734,4.9256,4.9471,5.0112,5.0981,5.1158,5.1794,5.2655,5.2655,5.2655,5.2655,5.2655,5.2655,5.2655,5.2655,5.3094,5.3742,5.3742,5.4369,5.4993,5.4993,5.4993,5.4993,5.4993,5.4993,5.4993,5.4993,5.4993,5.4993,5.4993,5.4993,5.4993,5.4993,5.4993,5.4708,5.3892,5.3057,5.2024,5.0998,4.9767,4.9053,4.8654,4.8463,4.8272,4.789,4.789,4.7698,4.7333,4.714,4.714,4.6948,4.6948,4.6948,4.6948,4.6948,4.6948,4.6948,4.6948,4.714,4.7507,4.8272,4.8863,2.0972,2.0911,2.1116,2.0134,2.0192,2.0272,1.9088,1.8734,1.862,1.8367,0.0,0.0,0.0,0.0,0.0,0.0,2.532,2.7416,2.4853,2.9123,3.1898,3.0627,3.1614,3.2763,3.3816,3.3708,3.4503,3.7332,3.5401,3.5098,3.7451,3.7686,3.7644,3.7166,3.6928,3.6475,3.6249,3.5808,3.5593,3.5366,3.4899,3.5115,3.5569,3.5115,3.5557,3.6902,3.8913,4.07,4.2489,4.4251,4.5999,4.7518,4.775,4.8397,4.9256,5.0095,5.0964,5.16,5.16,5.16,5.16,5.16,5.16,5.16,5.16,5.2041,5.2674,5.2674,5.3322,5.4369,5.4369,5.4577,5.4993,5.4993,5.4993,5.4993,5.4993,5.4993,5.4993,5.4993,5.4993,5.4765,5.4082,5.3949,5.3683,5.2867,5.2317,5.1514,5.047,4.9561,4.9053,4.8672,4.8482,4.8272,4.789,4.789,4.7698,4.7315,4.7333,4.714,4.6948,4.6948,4.6948,4.6948,4.6948,4.6948,4.6948,4.7122,4.7698,4.8272,4.8863,4.9433,2.0804,2.0699,2.0751,1.9925,2.0225,2.0592,1.9043,0.0,1.9387,1.9002,0.0,1.9252,2.0143,0.0,0.0,2.0548,2.4341,2.6582,2.4736,2.8446,3.1911,3.2916,3.505,3.5959,3.5065,3.4704,3.5465,3.7449,3.5735,3.5475,3.754,3.7644,3.7644,3.7644,3.7166,3.6928,3.6689,3.6702,3.6022,3.5151,3.5354,3.5127,3.4216,3.3988,3.466,3.5569,3.6902,3.8689,4.0937,4.2297,4.4046,4.5999,4.6265,4.7117,4.8182,4.9273,5.0343,5.1388,5.1388,5.1388,5.1388,5.1388,5.1388,5.1388,5.1388,5.1388,5.1618,5.1618,5.2252,5.3112,5.3322,5.3951,5.4785,5.4993,5.4993,5.4993,5.4993,5.4993,5.4974,5.4879,5.486,5.4348,5.2791,5.2506,5.2279,5.1538,5.1349,5.1026,5.0076,4.9508,4.9053,4.9053,4.8654,4.8463,4.8463,4.8272,4.8081,4.768,4.7698,4.7507,4.714,4.714,4.6948,4.6948,4.6948,4.714,4.714,4.7507,4.8081,4.9053,4.9243,4.9793,1.9297,1.9091,1.9106,1.9636,1.9496,1.9385,0.0,0.0,0.0,2.1664,2.18,2.179,2.1641,2.2168,2.2957,2.4273,2.7732,3.0198,3.0317,3.2963,3.4558,3.4104,3.4691,3.5466,3.5609,3.6066,3.6772,3.7566,3.7228,3.7176,3.7631,3.7644,3.7405,3.6928,3.7405,3.7179,3.6689,3.6249,3.6022,3.6475,3.5127,3.4444,3.4696,3.4228,3.4216,3.4444,3.5569,3.6915,3.8465,4.0714,4.2282,4.3857,4.5173,4.6281,4.6917,4.7583,4.8232,4.8878,4.8878,4.8878,4.8878,4.8878,4.8878,4.8878,4.8878,4.9505,5.0343,5.0343,5.1194,5.2234,5.3112,5.3532,5.3742,5.4785,5.4993,5.4993,5.4993,5.4993,5.4803,5.4139,5.4006,5.3683,5.2677,5.2506,5.245,5.2298,5.1709,5.1041,4.9883,4.9463,4.8863,4.8081,4.8272,4.8463,4.8463,4.8081,4.789,4.8272,4.7507,4.7315,4.7507,4.714,4.6948,4.6948,4.6948,4.714,4.7507,4.7489,4.789,4.8654,4.9793,5.0547,1.8502,1.8539,1.8816,1.8933,1.922,0.0,0.0,2.0017,2.0369,2.1475,2.1785,2.1916,2.2381,2.3054,2.3555,2.4221,2.8024,3.1327,3.2847,3.368,3.4368,3.4995,3.5388,3.5631,3.5917,3.6709,3.7332,3.7631,3.7644,3.7644,3.7644,3.7644,3.7644,3.7179,3.7166,3.7166,3.6689,3.6475,3.6249,3.6249,3.5569,3.5354,3.4935,3.4684,3.4228,3.3988,3.5354,3.6022,3.6902,4.0045,4.1617,4.2297,4.4955,4.6281,4.6498,4.76,4.8032,4.8248,4.8248,4.8248,4.8248,4.8248,4.8248,4.8248,4.8248,4.8663,4.9093,4.9093,4.9933,5.1194,5.2252,5.2884,5.3532,5.4785,5.4993,5.4993,5.4993,5.4671,5.4272,5.3854,5.3095,5.226,5.1405,5.1273,5.106,5.0477,5.0527,5.0263,4.9264,4.9314,4.9452,4.8863,4.9053,4.9243,4.9243,4.8863,4.8672,4.8463,4.7908,4.7507,4.7315,4.7122,4.6948,4.6948,4.6948,4.714,4.7315,4.8254,4.8826,4.9243,5.017,5.1091,1.7832,1.8177,1.8792,1.8647,1.9292,0.0,1.9631,1.9927,2.0503,2.1807,2.2014,2.2483,2.3593,2.4003,2.4132,2.4104,2.7512,3.0901,3.3153,3.2932,3.3138,3.5199,3.5755,3.5826,3.593,3.6877,3.7527,3.7644,3.7644,3.7644,3.7644,3.7644,3.7644,3.7644,3.7166,3.6928,3.6928,3.6689,3.6463,3.6022,3.6249,3.6035,3.4935,3.4935,3.4696,3.3988,3.5354,3.5808,3.6022,3.9822,4.1381,4.2061,4.5158,4.6498,4.6716,4.7816,4.8248,4.8248,4.8248,4.8248,4.8248,4.8248,4.8248,4.8248,4.8248,4.8248,4.8248,4.8248,4.8878,4.9933,5.1388,5.2252,5.3304,5.4785,5.4993,5.4955,5.4803,5.4253,5.3683,5.3361,5.1873,5.024,4.9754,4.9452,4.9053,4.8272,4.9053,4.9262,4.8272,4.9243,4.9831,4.9831,4.9849,5.0039,5.0039,4.9831,4.9452,4.8672,4.8463,4.8081,4.7333,4.7333,4.7333,4.714,4.7333,4.7333,4.7525,4.9206,4.9963,5.0209,5.0923,5.1672,1.7093,1.7358,1.803,1.9367,1.9172,0.0,2.2126,2.2846,2.3349,2.5159,2.6329,2.6804,2.6572,2.6371,2.6783,2.7717,2.8339,2.934,3.1003,3.1913,3.2932,3.4177,3.4761,3.5371,3.5891,3.6514,3.7098,3.7618,3.7644,3.7644,3.7644,3.7644,3.7644,3.7644,3.7644,3.7644,3.7644,3.694,3.6702,3.6689,3.6022,3.5593,3.4935,3.4935,3.4696,3.3988,3.5354,3.5808,3.6022,3.9822,4.2061,4.3622,4.5611,4.6716,4.7383,4.8032,4.8248,4.8248,4.8248,4.8248,4.8248,4.8248,4.8248,4.8248,4.8248,4.8248,4.8248,4.8248,4.8248,4.8878,5.1176,5.1811,5.2445,5.4577,5.4993,5.4803,5.4063,5.3835,5.3342,5.1861,4.9236,4.7597,4.8482,4.7872,4.7105,4.7105,4.789,4.8272,4.768,4.9053,4.9831,4.9262,4.9641,5.0039,5.0039,4.9452,4.9452,4.9831,4.8863,4.8272,4.8272,4.8272,4.8081,4.7507,4.8081,4.8482,4.8863,4.9585,5.0132,5.0735,5.2045,5.2808,1.675,1.7193,1.7666,1.8623,0.0,0.0,2.1242,2.1563,2.2279,2.4529,2.4541,2.4756,2.6544,2.6464,2.6648,2.7904,2.8111,2.8383,2.961,3.0879,3.1913,3.3138,3.4293,3.5163,3.5384,3.6241,3.689,3.7124,3.736,3.7727,3.7631,3.7644,3.7644,3.7644,3.7644,3.7644,3.7644,3.7405,3.7405,3.7405,3.6953,3.6488,3.6035,3.5593,3.5139,3.4684,3.5354,3.6249,3.6902,4.0045,4.2061,4.3416,4.5611,4.6716,4.6933,4.7816,4.8248,4.8248,4.8248,4.8248,4.8248,4.8248,4.8248,4.8248,4.8248,4.8248,4.8248,4.8248,4.8248,4.8663,5.1176,5.16,5.2234,5.4558,5.4993,5.4765,5.3949,5.2976,5.186,5.072,4.8436,4.6912,4.7489,4.7105,4.6702,4.6123,4.6894,4.7489,4.7105,4.8272,4.9243,4.9641,4.9831,5.0039,5.0039,4.9831,4.9641,4.9452,4.9053,4.8672,4.8463,4.8463,4.8272,4.8081,4.8654,4.9053,4.9243,4.9622,5.017,5.0735,5.2025,5.2973,1.6487,0.0,0.0,0.0,0.0,0.0,2.1407,2.1394,2.1915,2.4166,2.3622,2.3498,2.6475,2.6292,2.6313,2.7375,2.7596,2.8005,2.9029,3.0268,3.1293,3.2314,3.3723,3.4891,3.5021,3.58,3.6449,3.6761,3.6994,3.7464,3.7618,3.7644,3.7644,3.7644,3.7644,3.7644,3.7644,3.7644,3.7644,3.7644,3.7644,3.7405,3.6689,3.6249,3.5593,3.4935,3.5808,3.6915,3.8465,4.0714,4.2518,4.3857,4.5845,4.6498,4.6933,4.7816,4.8248,4.8248,4.8248,4.8248,4.8248,4.8248,4.8248,4.8248,4.8248,4.8248,4.8248,4.8248,4.8248,4.8663,5.0343,5.0981,5.1811,5.4369,5.4577,5.4143,5.3949,5.1887,4.9854,4.9451,4.7465,4.614,4.6316,4.614,4.5753,4.4959,4.593,4.6912,4.6912,4.8081,4.9053,4.9831,5.0039,5.0039,5.0039,5.0039,4.9831,4.9452,4.9433,4.9243,4.8654,4.8672,4.8863,4.8654,4.9053,4.9433,4.9622,5.0209,5.0942,5.1485,5.2211,5.2952,0.0,0.0,0.0,2.0769,2.0973,2.1456,2.4201,2.3775,2.3484,2.5651,2.4999,2.4752,2.7134,2.6724,2.6313,2.7375,2.7596,2.8005,2.9029,3.0268,3.1293,3.2314,3.3574,3.4436,3.5021,3.5111,3.5592,3.6696,3.6787,3.7033,3.7618,3.7644,3.7644,3.7644,3.7644,3.7644,3.7644,3.7644,3.7644,3.7644,3.7644,3.7405,3.6689,3.6689,3.6035,3.5163,3.6261,3.8029,4.0268,4.2075,4.3872,4.5626,4.6281,4.6933,4.7383,4.8032,4.8248,4.8248,4.8248,4.8248,4.8248,4.8248,4.8248,4.8248,4.8248,4.8248,4.8248,4.8248,4.8248,4.8248,4.8248,4.9093,5.0769,5.416,5.3304,5.2227,5.3541,5.0669,4.7857,4.8086,4.59,4.4213,4.5154,4.4587,4.4017,4.4017,4.5559,4.6912,4.6912,4.8654,4.9831,5.0039,5.0039,5.0039,5.0039,5.0039,5.0039,4.9849,4.9849,4.9641,4.9243,4.9641,4.9641,4.9243,4.9641,5.0209,5.0716,5.1711,5.2456,5.2993,5.2993,5.3526,1.5751,1.7539,1.9542,2.0192,2.1404,2.248,2.2621,2.264,2.3251,2.4686,2.3407,2.3036,2.6536,2.5676,2.5029,2.6304,2.7165,2.7795,2.8005,2.9643,3.1086,3.1293,3.315,3.4254,3.4462,3.4839,3.5241,3.5618,3.621,3.6899,3.7046,3.7503,3.7687,3.7631,3.7644,3.7644,3.7644,3.7644,3.7644,3.7644,3.7644,3.7644,3.7405,3.6928,3.6475,3.6261,3.7379,3.8948,4.0809,4.2357,4.4077,4.5642,4.6281,4.6933,4.7383,4.8032,4.8248,4.8248,4.8248,4.8248,4.8248,4.8248,4.8248,4.8248,4.8248,4.8248,4.8248,4.8248,4.8663,4.9307,4.8447,4.9719,5.1406,5.2445,5.2234,5.1597,5.1637,4.9631,4.7654,4.7256,4.5309,4.4017,4.4408,4.4213,4.4213,4.4782,4.5348,4.6334,4.768,4.8482,4.9262,4.9831,5.0039,5.0039,5.0039,5.0039,5.0039,5.0039,5.0039,4.9831,4.9641,4.9831,4.9831,4.9641,5.019,5.0547,5.0735,5.1111,5.1505,5.2064,5.2456,5.2808,1.5302,1.7343,1.9183,2.0102,2.183,2.3038,2.2088,2.2388,2.32,2.457,2.2667,2.1986,2.5717,2.5258,2.4395,2.5671,2.6745,2.7596,2.7596,2.9238,3.0475,3.089,3.2533,3.3767,3.4177,3.4527,3.4839,3.506,3.5818,3.661,3.6748,3.719,3.77,3.7631,3.7644,3.7644,3.7644,3.7644,3.7644,3.7644,3.7644,3.7644,3.7644,3.7618,3.7488,3.7082,3.9083,4.0611,4.1391,4.2928,4.4297,4.5408,4.6281,4.6716,4.7166,4.8032,4.8248,4.8248,4.8248,4.8248,4.8248,4.8248,4.8248,4.8248,4.8248,4.8248,4.8248,4.8248,4.8663,4.9093,4.8447,4.9719,5.1194,5.1194,5.16,5.1735,4.9815,4.8595,4.7728,4.7204,4.59,4.4976,4.4976,4.4976,4.5171,4.5736,4.6123,4.6912,4.8272,4.8672,4.9243,4.9831,5.0039,5.0039,5.0039,5.0039,5.0039,5.0039,5.0039,5.0039,5.0039,5.0039,5.0039,5.0039,5.0378,5.0735,5.1317,5.1111,5.1298,5.2064,5.2456,5.2828,1.5105,1.6862,1.842,2.0355,2.1866,2.2845,2.2741,2.2605,2.3109,2.495,2.2852,2.1849,2.524,2.4818,2.4395,2.5671,2.6745,2.7596,2.7596,2.8413,2.9643,3.0683,3.1707,3.2932,3.3972,3.4177,3.441,3.4995,3.5592,3.6176,3.6709,3.7319,3.7644,3.7644,3.7644,3.7644,3.7644,3.7644,3.7644,3.7644,3.7644,3.7644,3.7644,3.8967,3.884,3.7833,4.1536,4.253,4.2167,4.396,4.4689,4.4908,4.6047,4.6498,4.6716,4.7816,4.8248,4.8248,4.8248,4.8248,4.8248,4.8248,4.8248,4.8248,4.8248,4.8248,4.8248,4.8248,4.8248,4.8248,4.8248,4.9093,5.0146,4.9933,5.1582,5.1992,4.8618,4.7911,4.816,4.7891,4.7429,4.6912,4.6912,4.6912,4.6912,4.6912,4.768,4.8463,4.8463,4.9452,5.0039,5.0039,5.0039,5.0039,5.0039,5.0039,5.0039,5.0039,5.0039,5.0039,5.0039,5.0039,5.0039,5.002,5.002,5.0774,5.229,5.1711,5.2064,5.2993,5.2993,5.2993,1.4014,1.6783,1.9086,2.0249,2.1634,2.2383,2.1525,2.1775,2.2509,2.4154,2.2419,2.1636,2.4174,2.4395,2.4395,2.5671,2.6745,2.7596,2.7596,2.8413,2.9226,2.9643,3.1293,3.252,3.2932,3.3767,3.4241,3.4397,3.5358,3.6007,3.615,3.7111,3.7644,3.7644,3.7644,3.7644,3.7644,3.7644,3.7644,3.7644,3.7644,3.7644,3.7644,3.8967,3.9272,3.8938,4.2582,4.3299,4.1881,4.3698,4.4609,4.4656,4.6057,4.6716,4.7383,4.8032,4.8248,4.8248,4.8248,4.8248,4.8248,4.8248,4.8248,4.8248,4.8248,4.8248,4.8248,4.8248,4.8878,4.929,4.8464,4.9719,5.0981,5.0129,4.9891,4.9978,4.959,4.992,4.9618,4.7641,4.7055,4.6912,4.6912,4.6912,4.7105,4.789,4.8272,4.8672,4.9452,4.9831,5.0039,5.0039,5.0039,5.0039,5.0039,5.0039,5.0039,5.0039,5.0039,5.0039,5.0039,5.0039,5.0209,5.0547,5.0942,5.1524,5.229,5.2104,5.2456,5.2993,5.2993,5.2993,1.2728,1.5836,1.851,1.9462,2.0958,2.2099,2.0968,2.1357,2.2043,2.3256,2.2487,2.2062,2.376,2.4606,2.5038,2.5671,2.6745,2.7596,2.7596,2.8203,2.8622,2.9029,3.0671,3.1913,3.252,3.3561,3.4177,3.4177,3.5267,3.5943,3.5943,3.7033,3.7644,3.7644,3.7644,3.7644,3.7644,3.7644,3.7644,3.7644,3.7644,3.7644,3.7869,3.9402,3.9898,3.9541,4.2749,4.3308,4.2195,4.3481,4.4288,4.4587,4.5642,4.6442,4.715,4.7816,4.8248,4.8248,4.8248,4.8248,4.8248,4.8248,4.8015,4.7815,4.8148,4.7799,4.7366,4.7649,4.8567,4.9204,4.8567,5.0082,5.16,5.1406,5.1068,5.0952,5.1295,5.0436,4.9549,4.8437,4.8272,4.8272,4.8272,4.8272,4.8463,4.9053,4.9053,4.9243,4.9831,5.0039,5.0039,5.0039,5.0039,5.0039,5.0039,5.0039,5.0039,5.0039,5.0039,5.0039,5.0039,5.0209,5.0378,5.0735,5.1111,5.1691,5.2642,5.2476,5.2642,5.2993,5.2993,5.2993,1.1464,1.4401,1.7289,1.8238,2.0206,2.1736,2.1065,2.1332,2.1894,2.2419,2.2487,2.2912,2.3963,2.5029,2.5882,2.6103,2.6955,2.7596,2.7596,2.7596,2.8005,2.882,3.006,3.1293,3.212,3.3343,3.4177,3.4177,3.5202,3.5826,3.5826,3.6838,3.7423,3.7423,3.7488,3.7527,3.7527,3.7618,3.7644,3.7644,3.7644,3.783,3.7963,4.0074,4.0611,4.0023,4.2518,4.3044,4.2446,4.3345,4.3978,4.4304,4.5131,4.5808,4.6571,4.755,4.8248,4.8248,4.8248,4.8248,4.8248,4.8248,4.7799,4.7383,4.8048,4.7366,4.6467,4.6967,4.7714,4.8535,4.8744,5.0085,5.1897,5.3076,5.323,5.313,5.2516,5.0421,4.8993,4.9849,5.0039,5.0039,5.0039,5.0039,5.0039,5.0039,5.0039,5.0039,5.0039,5.0039,5.0039,5.0039,5.0039,5.0039,5.0039,5.0039,5.0039,5.0039,5.0039,5.0039,5.0039,5.0378,5.0735,5.0923,5.0923,5.1672,5.2993,5.2642,5.2642,5.2993,5.2993,5.2993,1.1765,1.3889,1.6153,1.8518,2.0017,2.0914,2.1098,2.0943,2.135,2.2257,2.2487,2.2912,2.3963,2.5029,2.6093,2.7165,2.7386,2.7596,2.7596,2.7596,2.7596,2.7795,2.9655,3.089,3.1086,3.2945,3.4177,3.4177,3.4839,3.5228,3.5228,3.5865,3.6241,3.6241,3.6696,3.6929,3.6929,3.741,3.7644,3.7644,3.7644,3.7832,3.8187,4.008,4.0644,3.9993,4.2415,4.2709,4.169,4.3411,4.3578,4.2997,4.4732,4.5487,4.5894,4.7154,4.7816,4.8248,4.8248,4.8248,4.8248,4.8248,4.8165,4.8082,4.8215,4.8065,4.7766,4.725,4.71,4.7504,4.8535,4.9699,5.1232,5.2947,5.3448,5.3329,5.1861,5.1079,5.0682,5.0172,5.0039,5.0039,5.0039,5.0039,5.0039,5.0039,5.0039,5.0039,5.0039,5.0039,5.0039,5.0039,5.0039,5.0039,5.0039,5.0039,5.0039,5.0039,5.0039,5.0039,5.0039,5.002,5.0586,5.1317,5.1711,5.2456,5.2993,5.2993,5.2993,5.2993,5.2993,5.2993,1.0462,1.2205,1.4136,1.5977,1.8182,1.9857,2.0617,2.0756,2.1233,2.1809,2.2738,2.3678,2.4101,2.5461,2.6945,2.7585,2.7596,2.7596,2.7596,2.7596,2.7596,2.7596,2.9029,3.0268,3.089,3.2326,3.3548,3.4177,3.4735,3.5085,3.5085,3.5631,3.5943,3.5943,3.6202,3.6345,3.6345,3.6618,3.6903,3.7189,3.754,3.782,3.8436,3.9662,4.0333,4.0315,4.1757,4.2169,4.1867,4.2799,4.3185,4.3402,4.4266,4.5184,4.5896,4.6877,4.7701,4.8248,4.8248,4.8248,4.8248,4.8248,4.7982,4.7732,4.8132,4.7699,4.7017,4.6667,4.6967,4.7779,4.8775,5.0326,5.1788,5.3225,5.2995,5.226,5.1462,5.095,5.0513,5.0115,5.0039,5.0039,5.0039,5.0039,5.0039,5.0039,5.0039,5.0039,5.0039,5.0039,5.0039,5.0039,5.0039,5.0039,5.0039,5.0039,5.0039,5.0039,5.0039,5.0039,5.0039,5.019,5.0755,5.1505,5.2084,5.2456,5.2993,5.2993,5.2993,5.2993,5.2993,5.2993,0.9446,1.1051,1.274,1.3772,1.5924,1.823,1.9647,2.0584,2.1234,2.1093,2.2799,2.424,2.4064,2.6093,2.7596,2.7596,2.7596,2.7596,2.7596,2.7596,2.7596,2.7596,2.8622,2.9643,3.089,3.1913,3.2932,3.4177,3.4618,3.4891,3.4891,3.5319,3.5566,3.5566,3.5683,3.5761,3.5761,3.5878,3.6163,3.6592,3.7191,3.7769,3.8055,3.9281,4.0142,4.0659,4.1256,4.1637,4.223,4.223,4.2965,4.3902,4.4065,4.4817,4.583,4.6607,4.725,4.7996,4.8163,4.8213,4.8032,4.8198,4.7832,4.7466,4.8065,4.7416,4.6451,4.6334,4.6786,4.7692,4.8851,5.0321,5.1832,5.3253,5.2374,5.1254,5.1064,5.0494,5.0039,5.0039,5.0039,5.0039,5.0039,5.0039,5.0039,5.0039,5.0039,5.0039,5.0039,5.0039,5.0039,5.0039,5.0039,5.0039,5.0039,5.0039,5.0039,5.0039,5.0039,5.0039,5.0039,5.0378,5.0923,5.1505,5.1898,5.2456,5.2993,5.2993,5.2993,5.2993,5.2993,5.2993,1.0646,1.1706,1.2987,1.4264,1.4464,1.5374,1.8524,2.0396,2.1227,2.0574,2.2432,2.4092,2.4165,2.6093,2.7596,2.7596,2.7596,2.7596,2.7596,2.7596,2.7596,2.7596,2.8622,2.9643,3.089,3.1913,3.2932,3.4177,3.4228,3.4254,3.4254,3.4306,3.4332,3.4332,3.4878,3.5163,3.5163,3.5683,3.5968,3.602,3.7004,3.7348,3.7067,3.9459,4.0521,4.0659,4.1256,4.1637,4.223,4.2625,4.3052,4.3182,4.3869,4.4212,4.4408,4.5474,4.6374,4.7128,4.7596,4.7849,4.795,4.823,4.8198,4.8148,4.8232,4.8148,4.7899,4.72,4.6517,4.6564,4.8468,4.8693,4.9275,5.2034,5.1956,5.1083,5.0304,5.0077,5.0039,5.0039,5.0039,5.0039,5.0039,5.0039,5.0039,5.0039,5.0039,5.0039,5.0039,5.0039,5.0039,5.0039,5.0039,5.0039,5.0039,5.0039,5.0039,5.0039,5.0039,5.0039,5.0039,5.0378,5.0923,5.1505,5.1505,5.2064,5.2993,5.2993,5.2993,5.2993,5.2993,5.2993,0.8037,0.8964,1.0024,1.0466,1.153,1.3352,1.6616,1.7432,1.8345,2.0382,2.2521,2.3784,2.3945,2.598,2.7501,2.7198,2.7397,2.7596,2.7596,2.7596,2.7596,2.7596,2.8005,2.882,3.0683,3.1293,3.2326,3.4177,3.4177,3.4177,3.4177,3.4177,3.4177,3.4177,3.441,3.454,3.454,3.5385,3.6108,3.6456,3.7735,3.844,3.8196,3.9781,4.0674,4.0674,4.0858,4.1057,4.1256,4.1835,4.223,4.2641,4.3131,4.3738,4.4163,4.4661,4.5431,4.6446,4.6334,4.6734,4.7361,4.7466,4.7865,4.8248,4.8248,4.7915,4.7416,4.6684,4.6251,4.6463,4.86,4.9045,4.9166,5.0391,5.054,5.0437,5.0096,5.0039,5.0039,5.0039,5.0039,5.0039,5.0039,5.0039,5.0039,5.0039,5.0039,5.002,5.0378,5.0378,5.0566,5.0774,5.0962,5.0755,5.0378,5.0378,5.0378,5.0378,5.0378,5.0735,5.1672,5.2211,5.2602,5.2788,5.3157,5.371,5.4282,5.4078,5.4078,5.4282,5.3731,5.371,0.647,0.7279,0.8246,0.8217,0.9413,1.1538,1.4785,1.5165,1.6065,1.9836,2.2086,2.3466,2.3574,2.5689,2.7261,2.6915,2.7146,2.7428,2.7575,2.7596,2.7596,2.7795,2.7795,2.8413,3.0475,3.0879,3.1707,3.3548,3.3972,3.4177,3.4177,3.4177,3.4177,3.4177,3.4586,3.4586,3.4586,3.581,3.6451,3.707,3.8458,3.9245,3.9645,4.026,4.0674,4.0674,4.0674,4.0674,4.0674,4.1256,4.1637,4.223,4.2625,4.3131,4.3603,4.3787,4.4501,4.5386,4.5398,4.6018,4.6709,4.67,4.7283,4.7899,4.7899,4.7699,4.7349,4.685,4.6367,4.6446,4.8717,4.9063,4.8984,4.9396,4.9841,5.0039,5.0039,5.0039,5.0039,5.0039,5.0039,5.0039,5.0039,5.0039,5.0039,5.0039,5.0039,5.002,5.0378,5.0547,5.0923,5.1505,5.1691,5.1672,5.1278,5.1278,5.1465,5.1465,5.1465,5.1839,5.3137,5.3526,5.371,5.371,5.424,5.4606,5.5195,5.4971,5.495,5.5355,5.4627,5.4627,0.719,0.7919,0.8773,0.8546,0.8484,0.9683,1.3587,1.4299,1.5085,1.8605,2.1129,2.3137,2.354,2.5409,2.6863,2.6863,2.6863,2.7041,2.7522,2.7596,2.7795,2.8391,2.7994,2.8203,3.0048,3.0671,3.1293,3.2314,3.3548,3.4177,3.4177,3.4177,3.4177,3.4177,3.5199,3.581,3.581,3.684,3.7475,3.7475,3.8642,3.9645,4.0659,4.0674,4.0674,4.0674,4.0674,4.0674,4.0674,4.1256,4.1637,4.223,4.223,4.223,4.2246,4.3412,4.3804,4.3921,4.5268,4.5755,4.5673,4.599,4.6517,4.7116,4.7116,4.7632,4.8232,4.8232,4.715,4.6374,4.8155,4.8269,4.8339,4.9501,4.986,5.0039,5.0039,5.0039,5.0039,5.0039,5.0039,5.0039,5.0039,5.0039,5.0039,5.0039,5.0039,5.0039,5.0039,5.0378,5.0923,5.1505,5.2045,5.2211,5.2191,5.2562,5.2932,5.2932,5.2932,5.3137,5.3526,5.371,5.371,5.371,5.424,5.4606,5.5195,5.5676,5.5835,5.5835,5.5878,5.5878,0.6838,0.6917,0.7223,0.7729,0.775,0.8515,1.1958,1.2828,1.3773,1.7033,1.9327,2.1458,2.3537,2.5372,2.6507,2.6811,2.7146,2.7418,2.7575,2.7596,2.7585,2.7784,2.7795,2.7994,2.9435,3.0268,3.1293,3.2314,3.3548,3.4177,3.4177,3.4177,3.4177,3.4177,3.5199,3.581,3.581,3.7635,3.8657,3.8642,3.9645,4.026,4.0674,4.0674,4.0674,4.0674,4.0674,4.0674,4.0674,4.0858,4.1057,4.1057,4.1438,4.1653,4.1653,4.2033,4.2428,4.2657,4.2686,4.3305,4.4163,4.4595,4.5153,4.5952,4.6177,4.6201,4.5985,4.5985,4.5635,4.5522,4.6771,4.7082,4.7498,4.8657,4.943,5.0039,5.0039,5.0039,5.0039,5.0039,5.0039,5.0039,5.0039,5.0039,5.0039,5.0039,5.0039,5.0039,5.0039,5.0755,5.1317,5.1505,5.2602,5.3157,5.2788,5.3157,5.3322,5.3322,5.4423,5.5153,5.5174,5.5174,5.5174,5.5174,5.5697,5.6058,5.6598,5.6778,5.6957,5.7358,5.662,5.68,0.6695,0.6746,0.6858,0.7419,0.7551,0.8065,1.0826,1.1577,1.2215,1.4832,1.6736,1.8712,2.1531,2.437,2.634,2.6586,2.7064,2.7596,2.7596,2.7596,2.7795,2.8214,2.7994,2.8413,2.9446,3.0487,3.1512,3.2132,3.3356,3.4177,3.4177,3.4177,3.4381,3.479,3.581,3.6637,3.7028,3.8843,3.9645,3.9645,4.026,4.0674,4.0674,4.0674,4.0674,4.0674,4.0674,4.0674,4.0674,4.0674,4.0674,4.0674,4.1057,4.1057,4.1057,4.1637,4.1835,4.1835,4.2033,4.2336,4.2904,4.3305,4.3994,4.4989,4.5227,4.5298,4.5336,4.5336,4.5153,4.507,4.5564,4.6296,4.7105,4.8081,4.9262,5.0039,5.0039,5.0039,5.0039,5.0039,5.0039,5.0039,5.0039,5.0039,5.0039,5.0039,5.0039,5.0039,5.0039,5.0962,5.1505,5.1505,5.2622,5.3526,5.3526,5.3894,5.4282,5.4444,5.5516,5.5899,5.5899,5.608,5.626,5.626,5.662,5.7158,5.7693,5.7693,5.7893,5.8249,5.7693,5.7693,0.6905,0.702,0.7171,0.7679,0.7703,0.8051,1.0107,1.0388,1.0706,1.2457,1.3823,1.5486,1.8177,2.2642,2.5932,2.6055,2.6835,2.7427,2.7637,2.77,2.8121,2.9084,2.8687,2.8875,2.984,3.089,3.1524,3.1731,3.3163,3.4177,3.4177,3.4381,3.479,3.581,3.7056,3.8053,3.9029,4.006,4.0643,4.0597,4.0643,4.0643,4.0597,4.0643,4.0674,4.0674,4.0612,4.0628,4.0674,4.0612,4.0628,4.0674,4.0674,4.0674,4.0659,4.1835,4.1835,4.1454,4.2428,4.2428,4.2033,4.2033,4.2895,4.3847,4.4049,4.4913,4.5835,4.5835,4.5369,4.4687,4.456,4.5736,4.7105,4.8081,4.9262,5.0039,5.0039,5.0039,5.0039,5.0039,5.0039,5.0039,5.0039,5.0039,5.0039,5.0039,5.0039,5.0039,5.0039,5.0774,5.1505,5.1505,5.2437,5.3342,5.424,5.4809,5.5376,5.5899,5.5899,5.5899,5.5899,5.644,5.662,5.662,5.7158,5.7515,5.8093,5.8093,5.8249,5.8735,5.8735,5.8735,0.6433,0.6742,0.7112,0.7373,0.7454,0.7718,0.9128,0.931,0.9651,1.1459,1.3403,1.5547,1.767,2.0656,2.3285,2.536,2.5834,2.6793,2.8504,2.8694,2.8663,2.9006,2.9028,2.8621,2.8393,2.9625,3.089,3.1524,3.297,3.3779,3.4177,3.4995,3.5606,3.581,3.7635,3.8843,3.9029,4.006,4.0396,3.9887,4.0427,4.0396,3.9902,4.0427,4.0674,4.0643,4.0118,4.018,4.0628,4.0103,4.0196,4.0674,4.0674,4.0674,4.0659,4.124,4.1256,4.0858,4.1438,4.1438,4.1057,4.1454,4.1763,4.2089,4.3082,4.3379,4.3708,4.3708,4.3792,4.4218,4.54,4.6527,4.7698,4.8272,4.9262,5.0039,5.0039,5.0039,5.0039,5.0039,5.0039,5.0039,5.0039,5.0039,5.0039,5.0039,5.0039,5.0039,5.0039,5.0566,5.0923,5.0923,5.1505,5.2437,5.371,5.3894,5.4627,5.5899,5.5899,5.5899,5.5899,5.644,5.644,5.608,5.6957,5.7315,5.7515,5.7915,5.8249,5.8735,5.8735,5.8735,0.6473,0.6838,0.7135,0.6992,0.7069,0.7193,0.7936,0.7807,0.8041,0.9727,1.116,1.2843,1.5869,1.7932,2.0124,2.3072,2.4625,2.5835,2.75,2.7909,2.8112,2.9114,2.8921,2.8813,2.9548,3.0162,3.0879,3.1926,3.297,3.3587,3.4177,3.5199,3.6014,3.6637,3.824,3.9245,3.9845,4.026,4.0319,3.9655,4.0335,4.0304,3.9671,4.035,4.0674,4.0643,4.0273,4.0319,4.0643,4.0257,4.0335,4.0674,4.0275,4.0275,4.0275,4.026,4.0459,4.0659,4.1256,4.1057,4.0674,4.0858,4.1256,4.1438,4.2033,4.2428,4.2625,4.3199,4.4,4.4782,4.5736,4.6912,4.789,4.8654,4.9452,5.0039,5.0039,5.0039,5.0039,5.0039,5.0039,5.0039,5.0039,5.0039,5.0039,5.0039,5.0039,5.0039,5.0039,5.0359,5.0904,5.1465,5.1858,5.2808,5.3894,5.4261,5.4648,5.5558,5.5558,5.5537,5.5334,5.5878,5.626,5.5899,5.6598,5.7158,5.7715,5.7715,5.8049,5.8735,5.8735,5.8735,0.6639,0.7012,0.7207,0.6907,0.6873,0.7048,0.6881,0.6657,0.6653,0.8208,0.8567,0.9895,1.3738,1.5222,1.7053,2.0223,2.2709,2.4636,2.6046,2.6607,2.7428,2.8941,2.8715,2.897,3.0713,3.0727,3.1086,3.2326,3.2763,3.3381,3.4177,3.5403,3.6434,3.7475,3.8657,3.9645,4.0674,4.0674,4.0319,3.9655,4.0335,4.0304,3.9671,4.035,4.0674,4.0674,4.0674,4.0674,4.0475,4.0475,4.0475,4.026,3.9875,3.9675,3.9675,3.926,3.9845,4.0659,4.1057,4.1057,4.0674,4.0674,4.0858,4.1256,4.1454,4.1835,4.2428,4.3396,4.4587,4.5577,4.614,4.7105,4.8081,4.8863,4.9641,5.0039,5.0039,5.0039,5.0039,5.0039,5.0039,5.0039,5.0039,5.0039,5.0039,5.0039,5.0039,5.0039,5.0039,5.0378,5.0923,5.2025,5.2602,5.3342,5.4403,5.4809,5.5195,5.5195,5.5195,5.4809,5.4423,5.5355,5.5899,5.5899,5.644,5.7158,5.8093,5.7693,5.7849,5.8735,5.8735,5.8735,0.6338,0.6826,0.7298,0.7219,0.7235,0.7381,0.7495,0.6931,0.6947,0.8539,0.8988,1.0015,1.3357,1.4619,1.5853,1.7794,1.9656,2.2038,2.584,2.6786,2.7526,2.8596,2.8376,2.8313,2.8296,2.8656,2.9643,3.1719,3.1938,3.2545,3.4177,3.6231,3.7259,3.7475,3.946,4.0459,4.0674,4.0674,4.0319,3.9655,4.0335,4.0304,3.9671,4.035,4.0674,4.0674,4.0674,4.0475,3.9891,3.9891,3.966,3.9245,3.9245,3.9245,3.9245,3.966,4.0075,4.0674,4.0674,4.0659,4.0674,4.0674,4.0674,4.0858,4.1256,4.2033,4.3003,4.3592,4.457,4.5559,4.7105,4.789,4.8463,4.9053,4.9641,5.0039,5.0039,5.0039,5.0039,5.0039,5.0039,5.0039,5.0039,5.0039,5.0039,5.0039,5.0039,5.0039,5.0039,5.002,5.0397,5.1505,5.1691,5.2417,5.422,5.4423,5.4809,5.5195,5.4809,5.4423,5.4423,5.4992,5.5537,5.5899,5.6778,5.7315,5.7515,5.7893,5.8249,5.8735,5.8735,5.8735,0.6532,0.6929,0.7294,0.7195,0.7171,0.7147,0.7215,0.7004,0.7069,0.8609,0.9065,1.0037,1.2724,1.4031,1.5072,1.6854,1.8869,2.117,2.3817,2.5864,2.721,2.793,2.7909,2.8132,2.8844,2.8574,2.9226,3.1524,3.1731,3.2751,3.4995,3.6637,3.7865,3.8254,3.986,4.0674,4.0674,4.0674,4.0121,3.9266,3.9954,3.9543,3.8377,3.9391,4.006,4.0291,3.986,4.0057,4.0375,3.961,3.9245,3.9044,3.8843,3.8642,3.8642,3.8858,3.926,3.986,4.0075,4.0475,4.0674,4.0674,4.1057,4.1454,4.1057,4.2428,4.4374,4.457,4.5365,4.6351,4.7122,4.7698,4.8081,4.8654,4.9243,4.9641,4.9849,5.0039,5.0039,5.0039,5.0039,5.0039,5.0039,5.0039,5.0039,5.0039,5.0039,5.0209,5.0774,5.0774,5.1317,5.2952,5.3137,5.369,5.5153,5.4788,5.4606,5.4809,5.4261,5.4057,5.4057,5.4261,5.4627,5.5153,5.6239,5.6957,5.7315,5.7915,5.8249,5.8735,5.8735,5.8735,0.7088,0.0,0.7632,0.7535,0.7354,0.7322,0.0,0.7223,0.7369,0.8729,0.9141,0.9972,1.2293,1.3209,1.4187,1.5826,1.7867,1.9798,2.1386,2.3946,2.6147,2.7159,2.7206,2.7742,2.9199,2.8621,2.9018,3.0902,3.1317,3.2545,3.479,3.6637,3.7865,3.8642,3.986,4.0674,4.0674,4.0674,4.0214,3.9315,3.9832,3.9073,3.759,3.8723,3.9385,3.9495,3.955,3.9865,4.0164,3.9617,3.8976,3.8642,3.8254,3.8053,3.8053,3.8254,3.8642,3.9245,3.9675,4.0275,4.0674,4.0674,4.1256,4.2033,4.1256,4.3199,4.5559,4.5348,4.614,4.6948,4.6948,4.7315,4.7698,4.8272,4.8863,4.9243,4.9831,5.0039,5.0039,5.0039,5.0039,5.0039,5.0039,5.0039,5.0039,5.0039,5.0039,5.0397,5.1317,5.1505,5.2231,5.422,5.424,5.4606,5.5718,5.4788,5.424,5.424,5.371,5.3547,5.3547,5.3526,5.3894,5.4403,5.5718,5.662,5.7136,5.7737,5.8249,5.8735,5.8735,5.8735,0.0,0.8151,0.826,0.8918,0.8609,0.8304,0.8762,0.8157,0.0,0.8898,0.9015,0.9651,1.1755,1.2614,1.3214,1.4062,1.5486,1.7117,1.9286,2.1143,2.3508,2.6392,2.6526,2.6495,2.7637,2.7627,2.8214,2.9238,3.0268,3.15,3.2726,3.581,3.7461,3.7663,3.966,4.0674,4.0674,4.0674,4.0643,4.0597,4.0643,3.9893,3.8831,3.9558,3.9145,3.8258,4.0037,3.9826,3.8558,3.9522,3.8996,3.7663,3.7663,3.7678,3.7663,3.8053,3.8642,3.9245,3.9675,4.0275,4.0674,4.0674,4.1256,4.223,4.2033,4.4391,4.6737,4.5559,4.614,4.6948,4.6948,4.7315,4.7698,4.8272,4.8863,4.9243,4.9831,5.0039,5.0039,5.0039,5.0039,5.0039,5.0039,5.0039,5.0039,5.0039,5.0039,5.0397,5.1317,5.1505,5.2231,5.422,5.4078,5.4078,5.5195,5.4282,5.371,5.371,5.3362,5.3178,5.3178,5.3547,5.3894,5.4403,5.4992,5.5718,5.662,5.7559,5.8249,5.8735,5.8735,5.8735,0.7817,0.8138,0.8445,0.8685,0.8701,0.8588,0.9162,0.8381,0.787,0.8791,0.9146,0.9681,1.136,1.2562,1.3777,1.5156,1.6288,1.77,2.0163,2.1531,2.3092,2.5175,2.6126,2.675,2.7575,2.7313,2.7665,2.8996,2.998,3.137,3.3536,3.6027,3.7475,3.7475,3.946,4.0674,4.0674,4.0674,4.0475,4.0075,4.0075,3.9527,3.832,3.916,3.934,3.9359,3.961,3.9468,0.0,3.9311,3.8628,3.7504,3.7908,3.8067,3.8053,3.8254,3.8456,3.8642,3.9475,3.9891,4.0275,4.0475,4.0858,4.1454,4.2822,4.4374,4.5947,4.6351,4.6737,4.6948,4.6948,4.714,4.7315,4.789,4.8272,4.8863,4.9433,4.9641,5.0039,5.0039,5.0039,5.0039,5.0039,5.0039,5.0039,5.0039,5.0039,5.0397,5.1317,5.2045,5.2767,5.3874,5.4261,5.4444,5.4261,5.371,5.3342,5.3342,5.3178,5.2993,5.2993,5.3342,5.3894,5.4403,5.4992,5.5443,5.5738,5.6698,5.7537,5.8426,5.858,5.8735,0.8056,0.8212,0.8549,0.9025,0.8866,0.8928,0.9326,0.8782,0.8192,0.8356,0.8918,0.9669,1.1079,1.233,1.3702,1.5558,1.661,1.8098,2.0261,2.1724,2.3228,2.4772,2.6061,2.6955,2.7375,2.7074,2.7426,2.8589,2.9751,3.1129,3.3138,3.5824,3.7475,3.7475,3.926,4.026,4.0674,4.0674,4.0475,4.0091,4.0091,3.9542,3.832,3.8946,3.9155,3.9404,3.897,3.8725,3.8548,3.8755,3.8061,3.7157,3.7807,3.8053,3.8053,3.8053,3.8053,3.8456,3.9074,3.9475,3.9875,4.0275,4.0674,4.1454,4.3199,4.4374,4.5542,4.6755,4.6948,4.6948,4.6948,4.6948,4.714,4.7489,4.8081,4.8463,4.9053,4.9641,5.0039,5.0039,5.0039,5.0039,5.0039,5.0039,5.0039,5.0039,5.0039,5.0397,5.1317,5.2211,5.3137,5.3526,5.4444,5.4627,5.3526,5.3178,5.2993,5.2993,5.2993,5.2993,5.2993,5.3342,5.371,5.424,5.4357,5.4619,5.485,5.5668,5.6373,5.6839,5.7629,5.8091,0.8953,0.8638,0.8406,0.9701,0.9792,0.9219,0.9232,0.9255,0.8994,0.7696,0.8198,0.9316,1.0569,1.1647,1.2929,1.482,1.5969,1.7412,1.9738,2.1768,2.3734,2.5155,2.6658,2.7375,2.6724,2.7155,2.7585,2.7585,2.9643,3.0879,3.089,3.4995,3.7461,3.7461,3.8441,3.9645,4.0659,4.0674,4.0674,4.0674,4.0674,4.0121,3.8907,3.8946,3.8703,3.8169,3.8193,3.7891,3.7325,3.7978,3.7677,3.6579,3.7219,3.7475,3.7475,3.7475,3.7865,3.8254,3.8254,3.9074,3.9891,3.9891,4.0858,4.2428,4.3396,4.457,4.5542,4.6737,4.6948,4.6948,4.6948,4.6948,4.714,4.7489,4.8081,4.8463,4.9053,4.9641,5.0039,5.0039,5.0039,5.0039,5.0039,5.0039,5.0039,5.0039,5.0039,5.0397,5.1317,5.2211,5.3137,5.3526,5.4057,5.4057,5.3178,5.2993,5.2993,5.2993,5.2993,5.2993,5.2993,5.2993,5.3178,5.371,5.3215,5.3278,5.3791,5.4828,5.4706,5.3846,5.5787,5.6767,0.8041,0.8105,0.8195,0.8783,0.854,0.8453,0.8874,0.8397,0.7854,0.7402,0.8052,0.8614,0.917,1.0934,1.2775,1.4307,1.509,1.6433,1.9353,2.0751,2.1991,2.4147,2.5854,2.6812,2.6278,2.666,2.7072,2.7072,2.85,2.9671,3.0867,3.3561,3.5606,3.6176,3.8009,3.9645,4.0659,4.0674,4.0674,4.0674,4.0674,4.0367,4.0168,4.0168,4.0153,3.9786,3.9984,3.8831,3.7294,3.8812,3.8209,3.6535,3.7634,3.8053,3.8053,3.7678,3.7663,3.7865,3.8254,3.8657,3.9445,4.0659,4.1438,4.2412,4.4374,4.5559,4.6544,4.6948,4.6948,4.6948,4.6948,4.6948,4.714,4.7489,4.8081,4.8463,4.9053,4.9641,5.0039,5.0039,5.0039,5.0039,5.0039,5.0039,5.0039,5.0039,5.019,5.0547,5.0923,5.2231,5.2993,5.2642,5.3362,5.371,5.3157,5.2993,5.2993,5.2993,5.2993,5.2993,5.2993,5.2993,5.3178,5.371,5.3215,5.2988,5.2889,5.3521,5.3375,5.2857,5.5181,5.6443,0.7957,0.8004,0.81,0.8329,0.8265,0.8011,0.841,0.8103,0.7706,0.7353,0.7608,0.8175,0.8313,1.0107,1.2061,1.3795,1.4931,1.6616,1.9218,2.065,2.2167,2.4021,2.5508,2.642,2.6743,2.6773,2.6936,2.7135,2.8166,2.9317,3.0256,3.1913,3.3741,3.5742,3.7606,3.9059,4.0275,4.0275,4.026,4.006,4.006,4.006,4.006,3.986,3.9875,4.0275,3.986,3.8861,3.7605,3.8842,3.8238,3.6801,3.7848,3.8254,3.8254,3.7865,3.7663,3.7461,3.7865,3.8456,3.923,4.0643,4.1637,4.2625,4.457,4.5753,4.6351,4.6948,4.6948,4.6948,4.6948,4.6948,4.714,4.7489,4.8081,4.8463,4.9053,4.9641,5.0039,5.0039,5.0039,5.0039,5.0039,5.0039,5.0039,5.0039,5.0209,5.0378,5.0378,5.1858,5.2622,5.2084,5.3157,5.3874,5.371,5.3342,5.3342,5.3526,5.3362,5.3178,5.3362,5.3178,5.3178,5.3362,5.3215,5.3029,5.2686,5.3322,5.3353,5.3007,5.4683,5.5721,0.8497,0.8235,0.7792,0.8098,0.8183,0.8112,0.7792,0.8022,0.8106,0.7219,0.7235,0.768,0.7925,0.9491,1.124,1.3273,1.5366,1.7235,1.9291,2.1223,2.2931,2.4382,2.5419,2.6413,2.7271,2.7125,2.7051,2.7491,2.8337,2.8974,2.9018,3.0268,3.2302,3.5335,3.6826,3.8067,3.969,3.969,3.946,3.9029,3.9029,3.9029,3.9029,3.8657,3.8858,3.9675,3.8858,3.8305,3.7973,3.8193,3.7877,3.7354,3.7993,3.8254,3.8254,3.8254,3.7865,3.7475,3.7475,3.8254,3.9245,4.026,4.1256,4.2625,4.457,4.5348,4.5542,4.6755,4.6948,4.6948,4.6948,4.6948,4.714,4.7507,4.8081,4.8463,4.9053,4.9641,5.0039,5.0039,5.0039,5.0039,5.0039,5.0039,5.0039,5.0039,5.002,5.002,5.0039,5.1485,5.2231,5.1691,5.3322,5.4423,5.4423,5.4078,5.3874,5.4403,5.371,5.3362,5.371,5.3362,5.3137,5.2872,5.2912,5.2777,5.2873,5.3652,5.3886,5.3588,5.4014,5.4566,0.8235,0.8064,0.7767,0.7597,0.7356,0.6986,0.671,0.6963,0.724,0.6808,0.7213,0.7535,0.7247,0.964,1.1726,1.1905,1.4074,1.6597,1.9446,1.9562,2.0862,2.4588,2.5214,2.5664,2.6392,2.6721,2.6905,2.701,2.7215,2.759,2.7983,2.9863,3.1707,3.3125,3.5579,3.7433,3.8657,3.9044,3.9245,3.9029,3.9029,3.9029,3.9029,3.9044,3.9044,3.9245,3.9029,3.8275,3.7536,3.7993,3.7677,3.6777,3.742,3.7663,3.7663,3.7663,3.7678,3.7475,3.7475,3.8254,3.9245,4.026,4.1256,4.2625,4.457,4.5348,4.5542,4.6755,4.6948,4.6948,4.6948,4.6948,4.714,4.7122,4.789,4.8463,4.9053,4.9641,5.0039,5.0039,5.0039,5.0039,5.0039,5.0039,5.0039,5.0039,5.0378,5.0755,5.113,5.2251,5.2973,5.3157,5.3874,5.4423,5.4423,5.4423,5.424,5.4423,5.424,5.4057,5.371,5.3547,5.3018,5.1947,5.1575,5.1305,5.095,5.0752,5.0812,5.1117,5.2694,5.3373,0.825,0.8184,0.8001,0.7629,0.7597,0.7295,0.6964,0.7114,0.7131,0.7024,0.7279,0.7402,0.6907,0.8684,1.07,1.1756,1.3093,1.5276,1.8944,1.9508,2.0805,2.3515,2.4892,2.592,2.6349,2.6578,2.6957,2.7198,2.7208,2.7323,2.7575,2.8622,3.0268,3.2314,3.4368,3.6217,3.7865,3.8254,3.8254,3.8254,3.8254,3.8254,3.8254,3.8254,3.8456,3.8642,3.8642,3.8251,3.7775,3.8109,3.785,3.7391,3.7736,3.7865,3.7865,3.7865,3.7663,3.7461,3.7865,3.8456,3.9029,3.946,4.026,4.1454,4.3003,4.3592,4.4179,4.5753,4.614,4.6351,4.6948,4.6948,4.6948,4.6948,4.7507,4.8081,4.8463,4.9053,4.9452,4.9243,4.9641,4.9831,4.9641,4.9831,5.0039,5.0039,5.0209,5.0566,5.1317,5.2417,5.3157,5.3526,5.4627,5.5153,5.5153,5.4992,5.4992,5.5153,5.4423,5.3872,5.342,5.2876,5.2268,5.1021,5.1262,5.1141,5.1032,5.1234,5.1507,5.2029,5.2528,5.2881,0.8358,0.8358,0.8223,0.7856,0.7998,0.7917,0.7372,0.7395,0.7296,0.7222,0.7323,0.7251,0.6802,0.7752,0.9343,1.1724,1.2746,1.4396,1.7724,1.9726,2.1251,2.2317,2.4387,2.6011,2.6474,2.6804,2.7156,2.7564,2.7512,2.7459,2.7459,2.7459,2.8733,3.1695,3.2726,3.4381,3.6854,3.7056,3.7259,3.7475,3.7475,3.7475,3.7475,3.7475,3.7606,3.8095,3.8211,3.8196,3.8095,3.8211,3.8254,3.8254,3.8254,3.8254,3.8254,3.8254,3.7865,3.7663,3.8053,3.8456,3.8843,3.8456,3.9059,3.9875,4.1057,4.1637,4.2428,4.4374,4.5154,4.5542,4.6544,4.6948,4.6948,4.6948,4.7333,4.7507,4.7698,4.8272,4.8863,4.8463,4.9053,4.9641,4.9243,4.9452,4.9849,5.002,5.0039,5.0209,5.1317,5.2025,5.2767,5.3526,5.4809,5.5718,5.5718,5.5376,5.5376,5.5899,5.4482,5.3301,5.2901,5.2042,5.1179,5.0096,5.0814,5.1252,5.1087,5.1926,5.2629,5.316,5.2491,5.2599,0.8184,0.8358,0.8223,0.7856,0.7735,0.7573,0.6677,0.6954,0.714,0.6481,0.6693,0.7081,0.6916,0.8258,0.9588,1.0139,1.2856,1.5356,1.6572,1.8574,2.057,2.2276,2.3728,2.5184,2.6474,2.7103,2.7522,2.7585,2.7198,2.6957,2.6957,2.6957,2.7754,2.9632,2.9643,3.1098,3.3997,3.5416,3.6244,3.6882,3.7273,3.7475,3.7475,3.7475,3.7163,3.6877,3.7435,3.7363,3.6891,3.7449,3.7663,3.7663,3.7663,3.7663,3.7663,3.7663,3.7663,3.7475,3.7663,3.7865,3.8456,3.8843,3.9044,3.9445,4.1041,4.1454,4.1835,4.3396,4.457,4.5348,4.5542,4.6334,4.6948,4.6948,4.714,4.714,4.7507,4.768,4.789,4.8272,4.8463,4.8672,4.9053,4.9262,4.9433,4.9831,5.0039,5.0209,5.0735,5.1298,5.2045,5.2952,5.4037,5.4606,5.4606,5.4992,5.5195,5.5376,5.3859,5.3004,5.2584,5.165,5.064,4.923,4.921,4.9169,4.8859,4.9337,4.9854,5.039,5.1385,5.1806,0.7468,0.7841,0.7859,0.7399,0.7657,0.7721,0.7011,0.7124,0.7376,0.6885,0.7088,0.7088,0.6946,0.7322,0.8338,1.0438,1.1847,1.3864,1.7116,1.8771,2.0324,2.2609,2.4035,2.5184,2.6053,2.6955,2.748,2.7208,2.724,2.7271,2.7271,2.7271,2.7573,2.8203,2.882,2.9852,3.1098,3.3369,3.5226,3.6678,3.6882,3.7273,3.7475,3.7475,3.7319,3.7063,3.7347,3.7319,3.7077,3.7347,3.7475,3.7475,3.7475,3.7475,3.7475,3.7475,3.7475,3.7461,3.7865,3.7865,3.7865,3.8456,3.8843,3.9245,4.026,4.0659,4.1256,4.2428,4.3199,4.3788,4.4959,4.5753,4.6158,4.6948,4.6948,4.714,4.7315,4.7315,4.7507,4.789,4.8463,4.8672,4.8272,4.9053,4.9641,4.9452,4.9831,5.002,5.019,5.0942,5.1691,5.2045,5.2952,5.3853,5.4423,5.4444,5.4419,5.444,5.3307,5.2291,5.0936,5.0335,4.9382,4.8325,4.8433,4.8566,4.8325,4.9006,4.952,4.9847,5.0499,5.1148,0.6853,0.7233,0.7264,0.7091,0.7375,0.7664,0.7134,0.7069,0.7172,0.6989,0.7017,0.702,0.6769,0.6544,0.7313,0.9969,1.0765,1.2395,1.6709,1.8651,2.0338,2.193,2.404,2.539,2.5519,2.6709,2.7261,2.6894,2.7198,2.7407,2.7407,2.7407,2.7459,2.7585,2.8413,2.882,2.9018,3.1305,3.3587,3.5865,3.6475,3.6882,3.7273,3.7475,3.7376,3.7248,3.7404,3.7376,3.7248,3.7404,3.7475,3.7475,3.7475,3.7475,3.7475,3.7475,3.7475,3.7678,3.7865,3.7865,3.7663,3.8053,3.8456,3.8858,3.9675,4.0275,4.0873,4.2033,4.2412,4.3019,4.457,4.5154,4.5542,4.6351,4.6755,4.6948,4.6948,4.6948,4.714,4.7507,4.81,4.8482,4.768,4.8863,4.9641,4.9452,4.9641,5.0039,5.0039,5.0586,5.1149,5.1149,5.2211,5.3117,5.369,5.371,5.3687,5.332,5.2537,5.1168,4.9603,4.92,4.8627,4.7722,4.8237,4.857,4.8325,4.917,4.9683,4.9868,5.0195,5.0824,0.6796,0.699,0.6763,0.6763,0.6876,0.6982,0.6459,0.6386,0.6302,0.594,0.603,0.6145,0.6065,0.5993,0.6595,0.8156,1.0214,1.2277,1.3329,1.7902,2.0691,1.9944,2.2971,2.5225,2.4855,2.6035,2.6894,2.6863,2.6884,2.6905,2.6905,2.6905,2.7114,2.7575,2.7596,2.7994,2.8391,2.9018,3.089,3.3599,3.5647,3.6692,3.6896,3.7273,3.7134,3.6608,3.7205,3.7134,3.6622,3.7219,3.7475,3.7475,3.7475,3.7475,3.7475,3.7475,3.7475,3.7475,3.7461,3.7461,3.7475,3.7461,3.7678,3.7865,3.9289,4.0275,4.0858,4.2428,4.3199,4.3592,4.3788,4.457,4.5348,4.5348,4.6158,4.6948,4.6948,4.6948,4.6948,4.714,4.714,4.7333,4.7507,4.8463,4.9452,4.9831,5.002,5.0039,5.0039,5.0039,5.002,5.002,5.1672,5.2582,5.1691,5.3322,5.3667,5.1885,5.1017,4.9975,4.907,4.9049,4.8627,4.7722,4.8546,4.8716,4.8325,4.882,4.9335,4.9847,5.0499,5.1007,0.615,0.6414,0.634,0.6266,0.6221,0.6315,0.6145,0.6246,0.6189,0.6273,0.6328,0.6215,0.5967,0.5956,0.6367,0.7543,0.9031,1.0967,1.4266,1.6234,1.8445,2.1543,2.2542,2.3682,2.5315,2.6104,2.6108,2.5431,2.6617,2.7115,2.6699,2.6689,2.6771,2.6945,2.6734,2.6724,2.7354,2.8182,2.9435,3.0683,3.3779,3.543,3.6244,3.7056,3.7347,3.7148,3.7376,3.7347,3.7148,3.7376,3.7475,3.7475,3.7475,3.7475,3.7475,3.7475,3.7475,3.7475,3.7475,3.7475,3.7678,3.7865,3.8053,3.8254,3.949,3.9891,4.0275,4.1256,4.2033,4.2822,4.3592,4.457,4.5542,4.614,4.6737,4.6948,4.6948,4.7315,4.7507,4.7507,4.7698,4.8081,4.8482,4.8654,4.8863,4.9452,4.9001,4.8851,4.8979,4.9053,4.9053,4.9053,4.9585,5.0528,5.1858,5.1491,5.1364,5.1765,5.0344,4.9351,4.907,4.8486,4.8305,4.8567,4.8325,4.8023,4.7848,4.8656,4.915,4.9335,5.0174,5.0683,0.5489,0.5752,0.5701,0.5584,0.5557,0.5844,0.5844,0.5943,0.6062,0.6149,0.6201,0.6091,0.603,0.6049,0.6288,0.702,0.7722,0.9808,1.3595,1.486,1.6804,2.0945,2.1933,2.2795,2.4281,2.4823,2.5145,2.5155,2.6196,2.6773,2.6699,2.6709,2.6781,2.6945,2.6734,2.6524,2.6734,2.7354,2.7973,2.86,3.0867,3.2919,3.4368,3.6217,3.7056,3.7475,3.7475,3.7475,3.7475,3.7475,3.7475,3.7475,3.7475,3.7475,3.7475,3.7475,3.7475,3.7475,3.7475,3.7475,3.7678,3.7865,3.8067,3.8269,3.926,3.9875,4.0275,4.0858,4.1653,4.2428,4.3396,4.4179,4.4959,4.6158,4.6755,4.6948,4.6948,4.7315,4.7507,4.7507,4.7672,4.7869,4.8455,4.8026,4.7841,4.8402,4.8196,4.7954,4.8371,4.8463,4.8463,4.8463,4.8654,4.9585,5.1091,5.048,5.0184,5.0769,4.9705,4.8909,4.8607,4.8325,4.8285,4.8587,4.8305,4.8003,4.7868,4.8656,4.915,4.9335,5.001,5.0499,0.4989,0.5183,0.5019,0.4907,0.5058,0.523,0.5228,0.5323,0.5408,0.5405,0.5498,0.5614,0.572,0.5744,0.5821,0.6054,0.6848,0.8417,1.1293,1.3835,1.5977,1.7754,2.0987,2.2537,2.1022,2.1915,2.3652,2.589,2.5784,2.5779,2.6617,2.6638,2.7062,2.7533,2.7564,2.7144,2.6494,2.6514,2.6924,2.7543,2.7543,2.8985,3.1671,3.4368,3.6231,3.7461,3.7461,3.7475,3.7475,3.7475,3.7475,3.7475,3.7475,3.7475,3.7475,3.7475,3.7475,3.7475,3.7475,3.7475,3.7475,3.7475,3.7475,3.7663,3.8642,3.9845,4.0858,4.1835,4.223,4.2428,4.3396,4.3788,4.3984,4.4959,4.614,4.6948,4.6948,4.6948,4.714,4.714,4.6722,4.6744,4.7136,4.6641,4.6451,4.7353,4.7321,4.7374,4.8334,4.8254,4.8272,4.8272,4.9187,4.9736,4.9206,5.0237,5.0266,4.8904,4.8953,4.8627,4.7782,4.8546,4.8607,4.7762,4.8546,4.8696,4.8284,4.8738,4.9087,4.96,5.0089,5.0273,0.5284,0.5188,0.4812,0.4865,0.474,0.4719,0.4642,0.4767,0.488,0.5299,0.5376,0.5469,0.5498,0.5575,0.5678,0.5824,0.6212,0.7389,1.0489,1.2248,1.4784,1.9027,2.0182,2.0553,2.0438,2.2376,2.3537,2.3449,2.4429,2.4845,2.4752,2.4762,2.4821,2.4949,2.5263,2.542,2.5608,2.6353,2.6945,2.7575,2.7973,2.9215,3.1086,3.2339,3.3985,3.6231,3.6231,3.6637,3.7475,3.7475,3.7475,3.7475,3.7475,3.7475,3.7475,3.7475,3.7475,3.7475,3.7475,3.7475,3.7475,3.7475,3.7475,3.7663,3.8254,3.8657,3.9059,4.0275,4.1057,4.1851,4.2412,4.3216,4.3984,4.4959,4.5542,4.5947,4.6948,4.7315,4.7507,4.7507,4.7708,4.7942,4.8132,4.7948,4.7782,4.8176,4.6926,4.6406,4.6999,4.7164,4.7333,4.7333,4.6983,4.7205,4.8327,4.7723,4.7674,4.8487,4.8207,4.8265,4.8667,4.8285,4.8265,4.8667,4.7661,4.7181,4.6919,4.7054,4.7041,4.722,4.8028,4.8362,0.4897,0.4776,0.4656,0.4921,0.4616,0.4584,0.4966,0.4929,0.4857,0.5325,0.5418,0.5352,0.54,0.5466,0.5564,0.5723,0.575,0.672,0.9362,1.0779,1.3146,1.728,1.7906,1.8357,1.9651,2.1351,2.241,2.2728,2.3363,2.3927,2.3924,2.3933,2.4011,2.4185,2.4436,2.4562,2.4746,2.5419,2.5854,2.6262,2.6856,2.7979,2.9632,3.089,3.2339,3.4177,3.5199,3.6434,3.7475,3.7475,3.7475,3.7475,3.7475,3.7475,3.7404,3.6878,3.6679,3.6707,3.6978,3.7077,3.712,3.7376,3.7475,3.7678,3.7865,3.8053,3.8456,3.9074,3.986,4.0643,4.124,4.223,4.3003,4.3984,4.457,4.4765,4.5559,4.614,4.672,4.672,4.7218,4.7588,4.7588,4.7314,4.7333,4.7799,4.6919,4.6442,4.665,4.6854,4.6823,4.6484,4.6039,4.5985,4.6733,4.6252,4.6379,4.7594,4.751,4.7608,4.8466,4.7641,4.742,4.7943,4.6575,4.6032,4.6414,4.653,4.6718,4.6876,4.7504,4.7205,0.4144,0.4219,0.4718,0.4843,0.462,0.458,0.0,0.5265,0.4849,0.525,0.5222,0.5191,0.531,0.5342,0.5429,0.5673,0.5702,0.6279,0.8089,0.954,1.1323,1.3758,1.453,1.603,1.8608,1.954,2.0735,2.2831,2.269,2.269,2.3664,2.3683,2.3839,2.4369,2.4467,2.4297,2.384,2.4336,2.458,2.4569,2.495,2.596,2.7386,2.967,3.0921,3.155,3.4402,3.6024,3.7047,3.7262,3.7262,3.7262,3.7262,3.7262,3.712,3.5996,3.557,3.5655,3.6224,3.6423,3.6508,3.7077,3.7262,3.7262,3.7262,3.7607,3.7949,3.8022,3.8378,3.8931,4.0015,4.0641,4.1218,4.2382,4.2969,4.3343,4.3555,4.4383,4.5016,4.5016,4.5527,4.6272,4.6272,4.5715,4.5715,4.6926,4.6805,4.6716,4.6805,4.6734,4.6449,4.5825,4.5771,4.5619,4.5179,4.5365,4.5742,4.6785,4.6864,4.7061,4.7561,4.6736,4.6273,4.6273,4.5388,4.5307,4.6273,4.6492,4.691,4.7228,4.7482,4.6303,0.0,0.0,0.0,0.0,0.0,0.0,0.0,0.3982,0.3887,0.4097,0.4244,0.4412,0.482,0.4609,0.477,0.5421,0.5397,0.5949,0.7359,0.8514,0.9429,0.9966,1.1199,1.315,1.6088,1.711,1.8437,2.0731,2.1206,2.1605,2.2069,2.2261,2.2158,2.1915,2.2938,2.3313,2.2766,2.4034,2.4634,2.4723,2.4713,2.5155,2.585,2.7649,2.8838,3.0021,3.2603,3.4186,3.4772,3.5551,3.5939,3.5939,3.5939,3.5939,3.5911,3.5669,3.557,3.5598,3.5712,3.5755,3.5783,3.5911,3.5939,3.5939,3.5939,3.5584,3.5461,3.6555,3.6513,3.6425,3.7545,3.7886,3.8256,3.977,4.0134,4.0719,4.1869,4.2696,4.3289,4.3289,4.3852,4.4543,4.5334,4.5406,4.5598,4.6894,4.5295,4.4341,4.5726,4.5451,4.5255,4.5718,4.5771,4.5451,4.4666,4.4866,4.5388,4.6258,4.6478,4.6675,4.6655,4.581,4.5327,4.5327,4.4462,4.4234,4.4703,4.4425,4.4353,4.4799,4.4482,4.4486,0.0,0.0,0.0,0.0,0.0,0.0,0.0,0.0,0.0,0.0,0.0,0.421,0.4293,0.0,0.4581,0.5185,0.5283,0.5549,0.6252,0.7448,0.7871,0.7438,0.899,1.0721,1.252,1.4944,1.6975,1.8286,1.9932,2.091,2.1098,2.1286,2.1382,2.118,2.1764,2.2064,2.1849,2.3035,2.3663,2.3875,2.4271,2.4786,2.5595,2.7166,2.8146,2.8727,3.1891,3.3266,3.3447,3.4993,3.557,3.5513,3.4873,3.4631,3.4588,3.429,3.4375,3.4631,3.4631,3.483,3.5157,3.547,3.557,3.557,3.557,3.5356,3.5171,3.5867,3.5723,3.5537,3.6264,3.6542,3.691,3.7657,3.8226,3.8983,3.9753,4.0984,4.1985,4.2157,4.3329,4.4622,4.5388,4.4296,4.4038,4.5601,4.4741,4.4186,4.4962,4.4678,4.443,4.4577,4.4764,4.4546,4.3472,4.3886,4.4365,4.4951,4.5375,4.5546,4.525,4.4708,4.4247,4.38,4.3365,4.3426,4.4023,4.4008,4.4081,4.4526,4.348,4.2695,0.0,0.0,0.0,0.0,0.0,0.0,0.0,0.0,0.0,0.0,0.0,0.0,0.0,0.0,0.0,0.4942,0.5167,0.5331,0.54,0.6246,0.6674,0.5702,0.7186,0.8504,0.9378,1.2463,1.5004,1.5909,1.8238,1.976,1.9944,2.0683,2.1061,2.1061,2.1134,2.118,2.118,2.1943,2.2508,2.2857,2.344,0.0,2.4934,2.6502,2.7417,2.7913,3.1135,3.247,3.2365,3.4206,3.5024,3.4925,3.3708,3.3496,3.3621,3.3123,3.318,3.3507,3.3507,3.3763,3.4162,3.4688,3.4844,3.4844,3.4844,3.4773,0.0,3.4816,3.4773,3.4731,3.4972,3.5393,3.5799,3.593,3.6715,3.7484,3.7499,3.8998,4.0349,4.0835,4.2469,4.4053,4.4756,4.2706,4.176,4.3605,4.372,4.3757,4.408,4.4098,4.4098,4.3577,4.3772,4.348,4.2474,4.2981,4.3333,4.331,4.4154,4.4018,4.3114,4.2709,4.2343,4.1577,4.1614,4.2149,4.3366,4.3646,4.4096,4.4204,4.1981,4.0217,0.0,0.0,0.0,0.0,0.0,0.0,0.0,0.0,0.0,0.0,0.0,0.0,0.0,0.0,0.0,0.0,0.4854,0.505,0.5366,0.5508,0.5451,0.5273,0.5544,0.6464,0.8147,0.9496,1.1314,1.3971,1.5686,1.7326,1.8613,1.9527,0.0,0.0,0.0,2.118,2.118,2.1566,2.1977,2.2023,2.2405,2.2815,2.2853,2.4948,2.6405,2.7631,2.9232,3.0474,3.1494,3.2218,3.262,3.2606,3.247,3.2963,3.3678,3.3607,3.328,3.2867,3.2867,0.0,0.0,3.2213,3.2242,3.2242,3.2242,3.1872,3.1573,3.2099,3.1858,3.1715,3.2796,3.3438,3.3939,3.452,3.5016,3.5562,3.6136,3.6664,3.7196,3.8016,3.8726,3.9687,4.1624,4.0427,3.971,4.1108,4.0788,4.0805,4.2215,4.2813,4.339,4.4003,4.3586,0.0,4.3258,4.2927,4.2614,4.2444,4.2589,4.1754,4.0116,3.9068,3.8425,3.8148,3.8642,3.9951,4.1776,4.2206,4.235,4.1981,3.7406,3.5996,0.0,0.0,0.0,0.0,0.0,0.0,0.0,0.0,0.0,0.0,0.0,0.0,0.0,0.0,0.0,0.0,0.4568,0.4831,0.4979,0.5016,0.508,0.5217,0.5276,0.5636,0.6459,0.7824,0.9684,1.1905,1.4383,1.6436,1.8062,1.8966,1.9507,1.9862,2.0212,2.0482,2.0482,2.1041,2.142,2.142,2.223,2.2728,2.3111,2.4488,2.5624,2.6541,2.8257,2.8973,2.943,3.0724,3.1494,3.1701,0.0,0.0,0.0,0.0,3.2441,3.2156,3.1815,3.1744,3.1815,3.1815,3.1815,3.1815,3.1815,3.1644,3.1502,3.1744,3.1644,3.1573,3.2085,3.2387,3.2633,3.2906,3.3329,3.387,3.406,3.4728,3.5784,3.666,3.7829,0.0,3.8283,3.7713,3.7814,3.9247,3.9286,3.9319,4.0418,4.1211,4.1832,4.2153,4.2789,4.2888,4.2028,4.2205,0.0,0.0,0.0,4.0681,4.0123,3.9162,0.0,0.0,0.0,3.8393,3.8342,3.7459,0.0,0.0,3.3888,3.3447,0.0,0.0,0.0,0.0,0.0,0.0,0.0,0.0,0.0,0.0,0.0,0.0,0.0,0.0,0.0,0.0,0.4251,0.4513,0.4513,0.4669,0.4849,0.5021,0.5127,0.5172,0.514,0.6581,0.8187,0.9673,1.2166,1.4447,1.636,1.7396,1.8311,1.8949,1.9565,1.9857,1.9968,2.0709,2.1085,2.1085,2.177,2.2463,2.3031,2.3898,2.4722,2.533,2.6578,2.7089,2.7192,2.8977,3.0047,3.0531,3.0278,3.0795,3.1815,3.1815,3.1815,3.173,3.1147,3.1104,3.1317,3.1317,3.1317,3.1317,3.1317,3.1317,3.1317,3.1317,3.1317,3.136,3.1531,3.1744,3.1787,3.1944,3.2344,3.2872,3.2872,3.3575,3.4635,3.5662,3.6747,3.6995,3.5629,3.5453,3.5899,3.738,3.7765,3.8185,3.9098,3.9867,4.0535,4.0954,4.1877,4.2055,4.103,4.123,4.1101,4.0217,3.9509,3.9322,3.9921,3.9017,3.8752,3.9127,3.8307,3.6857,0.0,0.0,0.0,0.0,0.0,0.0,0.0,0.0,0.0,0.0,0.0,0.0,0.0,0.0,0.0,0.0,0.0,0.0,0.0,0.0,0.0,0.0,0.0,0.0,0.4157,0.433,0.4553,0.456,0.4857,0.5016,0.4902,0.5422,0.6055,0.6701,0.8493,1.0451,1.2562,1.4161,1.6095,1.8133,1.9001,1.9563,1.9968,2.0363,2.0555,2.0555,2.1104,2.1642,2.2001,2.2548,2.3553,2.4682,2.3959,2.4422,2.5552,2.6244,2.7336,2.8563,2.8899,3.0276,3.1815,3.1815,3.1815,3.173,3.1147,3.0549,3.0051,3.0051,3.0051,3.0051,3.0051,3.0051,3.0051,3.0051,3.0051,3.0194,3.0805,3.1296,3.176,3.1844,3.2501,3.3184,3.3184,3.3366,3.3787,3.4451,3.4263,3.3828,3.4243,3.4228,3.4495,3.4951,3.5744,0.0,3.8307,3.9049,3.9802,4.1169,4.1181,4.103,4.103,3.9705,3.8841,3.8731,3.7453,3.7107,3.8079,3.7035,3.6555,3.6818,3.6303,3.4591,3.1832,0.0,0.0,0.0,0.0,0.0,0.0,0.0,0.0,0.0,0.0,0.0,0.0,0.0,0.0,0.0,0.0,0.0,0.0,0.0,0.0,0.0,0.0,0.0,0.0,0.3936,0.4172,0.4387,0.4643,0.4666,0.455,0.4894,0.5642,0.6999,0.7944,0.9605,1.2035,1.3469,1.4964,1.6886,1.7916,1.8855,1.9494,2.0058,2.0265,2.0265,2.1072,2.1393,2.1578,2.2031,2.2615,2.3003,2.3691,2.4027,2.4143,2.5695,2.5971,2.5524,2.5822,2.6775,2.7909,2.7909,2.7909,2.7882,2.8167,2.8131,2.8121,2.8602,2.8757,2.8757,2.8757,2.9042,2.9355,2.9355,2.9667,3.0037,3.0251,3.0471,3.0514,3.0563,3.0771,3.1087,3.1401,3.1731,3.228,3.3244,3.2645,3.1434,3.0246,3.1824,3.2634,3.1654,3.3268,3.49,3.5742,3.6666,3.7712,3.9387,3.9565,3.9602,4.0264,3.939,3.8527,3.7947,3.7028,3.668,3.7365,3.6699,3.6559,3.6814,3.6925,3.4978,3.0964,0.0,0.0,0.0,0.0,0.0,0.0,0.0,0.0,0.0,0.0,0.0,0.0,0.0,0.0,0.0,0.0,0.0,0.0,0.0,0.0,0.0,0.0,0.0,0.0,0.0,0.0,0.4399,0.4452,0.0,0.4253,0.437,0.501,0.6113,0.6549,0.7861,1.0522,1.1602,1.3083,1.5195,1.6666,1.7833,1.8465,1.9363,1.9738,1.9738,2.036,2.0665,2.0684,2.095,2.1249,2.1249,2.1924,2.2259,2.252,2.4183,2.4436,2.3822,2.4395,2.5191,2.5933,2.5933,2.6218,2.6558,2.7011,2.7163,2.7495,2.7965,2.7819,2.7449,2.7449,2.742,2.7463,2.7918,2.8345,2.8757,2.9212,2.9326,2.9326,2.9326,2.9484,2.9844,3.0205,3.0564,3.1022,3.1746,3.1422,3.0247,2.82,2.9463,3.0474,2.9749,3.0948,3.2521,3.4322,3.499,3.5856,3.7507,3.778,3.798,3.847,3.8035,3.7427,3.6644,3.6075,3.6074,3.6822,3.6361,3.6122,3.6117,3.5864,3.3803,0.0,0.0,0.0,0.0,0.0,0.0,0.0,0.0,0.0,0.0,0.0,0.0,0.0,0.0,0.0,0.0,0.0,0.0,0.0,0.0,0.0,0.0,0.0,0.0,0.0,0.0,0.0,0.4163,0.4266,0.0,0.0,0.0,0.0,0.4099,0.4492,0.5691,0.7935,0.8817,1.0458,1.3228,1.5104,1.6397,1.6866,1.8389,1.91,1.9258,1.9258,1.9258,1.9426,1.9426,1.9426,1.9426,1.9081,1.9555,2.0668,2.1823,2.2866,2.3596,2.4299,2.5113,2.6055,2.6083,2.6596,2.7242,2.7051,2.7463,2.7932,2.789,2.7065,2.6069,2.597,2.5131,0.0,0.0,2.6069,2.6382,2.7691,2.8032,2.8046,2.8103,2.8709,2.9324,2.962,2.9743,2.9899,2.9793,3.0328,3.0126,2.767,0.0,2.7812,2.8976,2.8861,3.0127,3.3653,3.3884,3.4336,3.5716,3.604,3.6065,3.6065,3.6032,3.5716,3.5,3.4761,3.5277,3.6735,3.605,3.5134,3.4362,3.2874,0.0,0.0,0.0,0.0,0.0,0.0,0.0,0.0,0.0,0.0,0.0,0.0,0.0,0.0,0.0,0.0,0.0,0.0,0.0,0.0,0.0,0.0,0.0,0.0,0.0,0.0,0.353,0.3591,0.3653,0.3802,0.3782,0.0,0.0,0.0,0.0,0.0,0.0,0.6051,0.6805,0.8635,1.2036,1.2977,1.4709,1.7392,1.7479,1.799,1.8784,1.8784,1.8952,1.9258,1.9258,1.9258,1.9258,1.988,2.0353,2.0563,1.9463,2.0219,2.2017,2.1714,2.188,2.2335,2.2665,2.2651,2.2584,2.4315,2.4297,2.356,2.4063,2.3717,2.309,2.1999,0.0,0.0,0.0,0.0,2.4268,2.6268,2.6579,2.682,2.7904,2.8269,2.8615,2.8898,2.9568,2.9327,2.7117,2.7143,2.63,2.2726,2.4174,0.0,2.4412,2.6522,2.8823,3.0244,3.1563,3.3006,3.4565,3.4513,3.47,3.53,3.5439,3.5099,3.433,3.442,3.4464,3.43,3.3201,3.2101,3.0975,0.0,0.0,0.0,0.0,0.0,0.0,0.0,0.0,0.0,0.0,0.0,0.0,0.0,0.0,0.0,0.0,0.0,0.0,0.0,0.0,0.0,0.0,0.0,0.0,0.0,0.0,0.0,0.3582,0.369,0.3873,0.3841,0.3785,0.0,0.0,0.0,0.0,0.0,0.0,0.0,0.0,0.0,1.075,1.154,1.3048,1.5741,1.6269,1.6909,1.7849,1.8213,1.8396,1.8549,1.8549,1.8386,1.8213,1.864,1.8904,1.9223,1.8114,1.8415,1.9516,0.0,0.0,0.0,0.0,1.9452,1.9763,2.1212,2.1384,2.1017,2.1655,0.0,0.0,0.0,0.0,0.0,0.0,0.0,2.2333,2.4429,2.5185,2.5839,2.6975,2.7454,2.7673,2.8081,2.7518,2.6417,2.4113,2.4296,2.3726,2.017,2.1299,0.0,0.0,0.0,2.6896,2.8552,3.021,3.1608,3.2638,3.248,3.2552,3.3151,3.3082,3.2971,3.2543,3.2683,3.2508,3.1784,3.0473,2.9082,0.0,0.0,0.0,0.0,0.0,0.0,0.0,0.0,0.0,0.0,0.0,0.0,0.0,0.0,0.0,0.0,0.0,0.0,0.0,0.0,0.0,0.0,0.0,0.0,0.0,0.0,0.0,0.0,0.0,0.411,0.4169,0.0,0.0,0.0,0.0,0.0,0.0,0.0,0.0,0.0,0.0,0.0,0.0,0.0,1.1616,1.341,1.4855,1.5852,1.6633,1.7255,1.7465,1.7188,1.7245,1.7004,1.6723,1.6269,0.0,1.7509,1.7131,0.0,0.0,0.0,0.0,0.0,0.0,0.0,0.0,0.0,0.0,0.0,0.0,0.0,0.0,0.0,0.0,0.0,0.0,0.0,0.0,0.0,0.0,2.4658,2.5447,2.602,2.6375,2.6382,2.4616,2.2639,2.1039,2.1559,2.1461,0.0,0.0,0.0,0.0,0.0,0.0,2.7458,2.9393,3.0483,3.0333,3.0483,3.0436,3.0359,3.0492,3.0446,3.0353,3.0263,2.985,2.9232,2.8074,0.0,0.0,0.0,0.0,0.0,0.0,0.0,0.0,0.0,0.0,0.0,0.0,0.0,0.0,0.0,0.0,0.0,0.0,0.0,0.0,0.0,0.0,0.0,0.0,0.0,0.0,0.0,0.0,0.0,0.0,0.0,0.0,0.0,0.0,0.0,0.0,0.0,0.0,0.0,0.0,0.0,0.0,0.0,0.0,0.0,0.0,0.0,0.0,0.0,0.0,1.4958,1.5018,1.527,1.5518,1.5761,1.5938,1.4905,1.5503,1.7225,1.5851,0.0,0.0,0.0,0.0,0.0,0.0,0.0,0.0,0.0,0.0,0.0,0.0,0.0,0.0,0.0,0.0,0.0,0.0,0.0,0.0,0.0,0.0,2.1233,2.2229,2.3139,2.3495,2.2044,0.0,0.0,0.0,0.0,0.0,0.0,0.0,0.0,0.0,0.0,0.0,2.4818,2.7976,2.9914,2.9599,3.0184,3.0251,2.9726,3.0244,3.0263,2.9675,2.8947,2.8188,0.0,0.0,0.0,0.0,0.0,0.0,0.0,0.0,0.0,0.0,0.0,0.0,0.0,0.0,0.0,0.0,0.0,0.0,0.0,0.0,0.0,0.0,0.0,0.0,0.0,0.0,0.0,0.0,0.0,0.0,0.0,0.0,0.0,0.0,0.0,0.0,0.0,0.0,0.0,0.0,0.0,0.0,0.0,0.0,0.0,0.0,0.0,0.0,0.0,0.0,0.0,0.0,0.0,0.0,0.0,0.0,0.0,0.0,1.3871,1.3931,0.0,0.0,0.0,0.0,0.0,0.0,0.0,0.0,0.0,0.0,0.0,0.0,0.0,0.0,0.0,0.0,0.0,0.0,0.0,0.0,0.0,0.0,0.0,0.0,0.0,0.0,0.0,0.0,0.0,0.0,0.0,0.0,0.0,0.0,0.0,0.0,0.0,0.0,0.0,0.0,2.3753,2.693,2.9014,2.887,2.9144,2.9293,2.9,2.9237,2.8906,2.7605,2.7116,0.0,0.0,0.0,0.0,0.0,0.0,0.0,0.0,0.0,0.0,0.0,0.0,0.0,0.0,0.0,0.0,0.0,0.0,0.0,0.0,0.0,0.0,0.0,0.0,0.0,0.0,0.0,0.0,0.0,0.0,0.0,0.0,0.0,0.0,0.0,0.0,0.0,0.0,0.0,0.0,0.0,0.0,0.0,0.0,0.0,0.0,0.0,0.0,0.0,0.0,0.0,0.0,0.0,0.0,0.0,0.0,0.0,0.0,0.0,1.3069,1.2522,0.0,0.0,0.0,0.0,0.0,0.0,0.0,0.0,0.0,0.0,0.0,0.0,0.0,0.0,0.0,0.0,0.0,0.0,0.0,0.0,0.0,0.0,0.0,0.0,0.0,0.0,0.0,0.0,0.0,0.0,0.0,0.0,0.0,0.0,0.0,0.0,0.0,0.0,0.0,0.0,2.3073,2.6086,2.8165,2.8165,2.818,2.832,2.832,2.832,2.7579,2.5916,2.5168,0.0,0.0,0.0,0.0,0.0,0.0,0.0,0.0,0.0,0.0,0.0,0.0,0.0,0.0,0.0,0.0,0.0,0.0,0.0,0.0,0.0,0.0,0.0,0.0,0.0,0.0,0.0,0.0,0.0,0.0,0.0,0.0,0.0,0.0,0.0,0.0,0.0,0.0,0.0,0.0,0.0,0.0,0.0,0.0,0.0,0.0,0.0,0.0,0.0,0.0,0.0,0.0,0.0,0.0,0.0,0.0,0.0,0.0,0.0,0.0,0.0,0.0,0.0,0.0,0.0,0.0,0.0,0.0,0.0,0.0,0.0,0.0,0.0,0.0,0.0,0.0,0.0,0.0,0.0,0.0,0.0,0.0,0.0,0.0,0.0,0.0,0.0,0.0,0.0,0.0,0.0,0.0,0.0,0.0,0.0,0.0,0.0,0.0,0.0,0.0,0.0,2.1678,2.5177,2.7465,2.7465,2.7761,2.818,2.832,2.832,2.7715,2.615,0.0,0.0,0.0,0.0,0.0,0.0,0.0,0.0,0.0,0.0,0.0,0.0,0.0,0.0,0.0,0.0,0.0,0.0,0.0,0.0,0.0,0.0,0.0,0.0,0.0,0.0,0.0,0.0,0.0,0.0,0.0,0.0,0.0,0.0,0.0,0.0,0.0,0.0,0.0,0.0,0.0,0.0,0.0,0.0,0.0,0.0,0.0,0.0,0.0,0.0,0.0,0.0,0.0,0.0,0.0,0.0,0.0,0.0,0.0,0.0,0.0,0.0,0.0,0.0,0.0,0.0,0.0,0.0,0.0,0.0,0.0,0.0,0.0,0.0,0.0,0.0,0.0,0.0,0.0,0.0,0.0,0.0,0.0,0.0,0.0,0.0,0.0,0.0,0.0,0.0,0.0,0.0,0.0,0.0,0.0,0.0,0.0,0.0,0.0,0.0,0.0,0.0,2.1343,2.4489,2.6924,2.7421,2.7137,2.7188,2.7417,2.7217,2.6035,2.3923,0.0,0.0,0.0,0.0,0.0,0.0,0.0,0.0,0.0,0.0,0.0,0.0,0.0,0.0,0.0,0.0,0.0,0.0,0.0,0.0,0.0,0.0,0.0,0.0,0.0,0.0,0.0,0.0,0.0,0.0,0.0,0.0,0.0,0.0,0.0,0.0,0.0,0.0,0.0,0.0,0.0,0.0,0.0,0.0,0.0,0.0,0.0,0.0,0.0,0.0,0.0,0.0,0.0,0.0,0.0,0.0,0.0,0.0,0.0,0.0,0.0,0.0,0.0,0.0,0.0,0.0,0.0,0.0,0.0,0.0,0.0,0.0,0.0,0.0,0.0,0.0,0.0,0.0,0.0,0.0,0.0,0.0,0.0,0.0,0.0,0.0,0.0,0.0,0.0,0.0,0.0,0.0,0.0,0.0,0.0,0.0,0.0,0.0,0.0,0.0,0.0,0.0,2.0689,2.369,2.6001,2.6717,2.6375,2.6362,2.6717,2.6321,2.5123,2.2487,0.0,0.0,0.0,0.0,0.0,0.0,0.0,0.0,0.0,0.0,0.0,0.0,0.0,0.0,0.0,0.0,0.0,0.0,0.0,0.0,0.0,0.0,0.0,0.0,0.0,0.0,0.0,0.0,0.0,0.0,0.0,0.0,0.0,0.0,0.0,0.0,0.0,0.0,0.0,0.0,0.0,0.0,0.0,0.0,0.0,0.0,0.0,0.0,0.0,0.0,0.0,0.0,0.0,0.0,0.0,0.0,0.0,0.0,0.0,0.0,0.0,0.0,0.0,0.0,0.0,0.0,0.0,0.0,0.0,0.0,0.0,0.0,0.0,0.0,0.0,0.0,0.0,0.0,0.0,0.0,0.0,0.0,0.0,0.0,0.0,0.0,0.0,0.0,0.0,0.0,0.0,0.0,0.0,0.0,0.0,0.0,0.0,0.0,0.0,0.0,0.0,0.0,1.9641,2.24,2.4625,2.5441,2.5441,2.5672,2.6421,2.6406,2.5321,0.0,0.0,0.0,0.0,0.0,0.0,0.0,0.0,0.0,0.0,0.0,0.0,0.0,0.0,0.0,0.0,0.0,0.0,0.0,0.0,0.0,0.0,0.0,0.0,0.0,0.0,0.0,0.0,0.0,0.0,0.0,0.0,0.0,0.0,0.0,0.0,0.0,0.0,0.0,0.0,0.0,0.0,0.0,0.0,0.0,0.0,0.0,0.0,0.0,0.0,0.0,0.0,0.0,0.0,0.0,0.0,0.0,0.0,0.0,0.0,0.0,0.0,0.0,0.0,0.0,0.0,0.0,0.0,0.0,0.0,0.0,0.0,0.0,0.0,0.0,0.0,0.0,0.0,0.0,0.0,0.0,0.0,0.0,0.0,0.0,0.0,0.0,0.0,0.0,0.0,0.0,0.0,0.0,0.0,0.0,0.0,0.0,0.0,0.0,0.0,0.0,0.0,0.0,1.9527,2.1646,2.3522,2.451,2.4481,2.4602,2.4968,2.4797,2.3781,2.1661,0.0,0.0,0.0,0.0,0.0,0.0,0.0,0.0,0.0,0.0,0.0,0.0,0.0,0.0,0.0,0.0,0.0,0.0,0.0,0.0,0.0,0.0,0.0,0.0,0.0,0.0,0.0,0.0,0.0,0.0,0.0,0.0,0.0,0.0,0.0,0.0,0.0,0.0,0.0,0.0,0.0,0.0,0.0,0.0,0.0,0.0,0.0,0.0,0.0,0.0,0.0,0.0,0.0,0.0,0.0,0.0,0.0,0.0,0.0,0.0,0.0,0.0,0.0,0.0,0.0,0.0,0.0,0.0,0.0,0.0,0.0,0.0,0.0,0.0,0.0,0.0,0.0,0.0,0.0,0.0,0.0,0.0,0.0,0.0,0.0,0.0,0.0,0.0,0.0,0.0,0.0,0.0,0.0,0.0,0.0,0.0,0.0,0.0,0.0,0.0,0.0,0.0,0.0,2.1062,2.2621,2.4031,2.3909,2.3923,2.4293,2.4283,2.324,2.1308,0.0,0.0,0.0,0.0,0.0,0.0,0.0,0.0,0.0,0.0,0.0,0.0,0.0,0.0,0.0,0.0,0.0,0.0,0.0,0.0,0.0,0.0,0.0,0.0,0.0,0.0,0.0,0.0,0.0,0.0,0.0,0.0,0.0,0.0,0.0,0.0,0.0,0.0,0.0,0.0,0.0,0.0,0.0,0.0,0.0,0.0,0.0,0.0,0.0,0.0,0.0,0.0,0.0,0.0,0.0,0.0,0.0,0.0,0.0,0.0,0.0,0.0,0.0,0.0,0.0,0.0,0.0,0.0,0.0,0.0,0.0,0.0,0.0,0.0,0.0,0.0,0.0,0.0,0.0,0.0,0.0,0.0,0.0,0.0,0.0,0.0,0.0,0.0,0.0,0.0,0.0,0.0,0.0,0.0,0.0,0.0,0.0,0.0,0.0,0.0,0.0,0.0,0.0,2.06,2.2126,2.3604,2.3559,2.3679,2.4429,2.4414,2.3483,2.1308,2.0294,0.0,0.0,0.0,0.0,0.0,0.0,0.0,0.0,0.0,0.0,0.0,0.0,0.0,0.0,0.0,0.0,0.0,0.0,0.0,0.0,0.0,0.0,0.0,0.0,0.0,0.0,0.0,0.0,0.0,0.0,0.0,0.0,0.0,0.0,0.0,0.0,0.0,0.0,0.0,0.0,0.0,0.0,0.0,0.0,0.0,0.0,0.0,0.0,0.0,0.0,0.0,0.0,0.0,0.0,0.0,0.0,0.0,0.0,0.0,0.0,0.0,0.0,0.0,0.0,0.0,0.0,0.0,0.0,0.0,0.0,0.0,0.0,0.0,0.0,0.0,0.0,0.0,0.0,0.0,0.0,0.0,0.0,0.0,0.0,0.0,0.0,0.0,0.0,0.0,0.0,0.0,0.0,0.0,0.0,0.0,0.0,0.0,0.0,0.0,0.0,0.0,0.0,2.0762,2.1892,2.2762,2.2956,2.3318,2.3694,2.3934,2.3225,2.1192,2.0754,0.0,0.0,0.0,0.0,0.0,0.0,0.0,0.0,0.0,0.0,0.0,0.0,0.0,0.0,0.0,0.0,0.0,0.0,0.0,0.0,0.0,0.0,0.0,0.0,0.0,0.0,0.0,0.0,0.0,0.0,0.0,0.0,0.0,0.0,0.0,0.0,0.0,0.0,0.0,0.0,0.0,0.0,0.0,0.0,0.0,0.0,0.0,0.0,0.0,0.0,0.0,0.0,0.0,0.0,0.0,0.0,0.0,0.0,0.0,0.0,0.0,0.0,0.0,0.0,0.0,0.0,0.0,0.0,0.0,0.0,0.0,0.0,0.0,0.0,0.0,0.0,0.0,0.0,0.0,0.0,0.0,0.0,0.0,0.0,0.0,0.0,0.0,0.0,0.0,0.0,0.0,0.0,0.0,0.0,0.0,0.0,0.0,0.0,0.0,0.0,0.0,0.0,1.9493,2.1144,2.2796,2.2956,2.3062,2.3453,2.3799,2.3111,2.1192,2.0823,0.0,0.0,0.0,0.0,0.0,0.0,0.0,0.0,0.0,0.0,0.0,0.0,0.0,0.0,0.0,0.0,0.0,0.0,0.0,0.0,0.0,0.0,0.0,0.0,0.0,0.0,0.0,0.0,0.0,0.0,0.0,0.0,0.0,0.0,0.0,0.0,0.0,0.0,0.0,0.0,0.0,0.0,0.0,0.0,0.0,0.0,0.0,0.0,0.0,0.0,0.0,0.0,0.0,0.0,0.0,0.0,0.0,0.0,0.0,0.0,0.0,0.0,0.0,0.0,0.0,0.0,0.0,0.0,0.0,0.0,0.0,0.0,0.0,0.0,0.0,0.0,0.0,0.0,0.0,0.0,0.0,0.0,0.0,0.0,0.0,0.0,0.0,0.0,0.0,0.0,0.0,0.0,0.0,0.0,0.0,0.0,0.0,0.0,0.0,0.0,0.0,0.0,0.0,2.0126,2.2889,2.296,2.3076,2.3438,2.3589,2.289,2.1208,0.0,0.0,0.0,0.0,0.0,0.0,0.0,0.0,0.0,0.0,0.0,0.0,0.0,0.0,0.0,0.0,0.0,0.0,0.0,0.0,0.0,0.0,0.0,0.0,0.0,0.0,0.0,0.0,0.0,0.0,0.0,0.0,0.0,0.0,0.0,0.0,0.0,0.0,0.0,0.0,0.0,0.0,0.0,0.0,0.0,0.0,0.0,0.0,0.0,0.0,0.0,0.0,0.0,0.0,0.0,0.0,0.0,0.0,0.0,0.0,0.0,0.0,0.0,0.0,0.0,0.0,0.0,0.0,0.0,0.0,0.0,0.0,0.0,0.0,0.0,0.0,0.0,0.0,0.0,0.0,0.0,0.0,0.0,0.0,0.0,0.0,0.0,0.0,0.0,0.0,0.0,0.0,0.0,0.0,0.0,0.0,0.0,0.0,0.0,0.0,0.0,0.0,0.0,0.0,1.9285,2.1212,2.2095,2.2713,2.2941,2.2786,2.2052,2.0977,0.0,0.0,0.0,0.0,0.0,0.0,0.0,0.0,0.0,0.0,0.0,0.0,0.0,0.0]}]]]